Date StartTime U_cm/s V_cm/s W_cm/s Ustd_cm/s Vstd_cm/s Wstd_cm/s Uvar_(cm/s)^2 Vvar_(cm/s)^2 Wvar_(cm/s)^2 KE_(m/s)^2 TurbulentKE_(m/s)^2 HorizWindSpeed_cm/s FrictionSpeec_cm/s DragCoef SpeedOfSound_m/s SonicTemperature_C Pressure_mb 
02/02/2014  00:00:00     -117.360       -8.528      -12.334       30.361       25.634       21.106      921.805      657.107      445.473        0.801        0.101      117.670       16.573        0.020      329.705       -3.389      859.551
02/02/2014  00:01:00     -117.504       -7.077       -9.355       35.267       29.341       21.919     1243.747      860.897      480.437        0.826        0.129      117.717       14.265        0.015      329.667       -3.451      859.548
02/02/2014  00:02:00     -118.655      -40.457      -10.623       25.576       37.488       14.364      654.109     1405.383      206.337        0.905        0.113      125.362        9.798        0.006      329.649       -3.482      859.552
02/02/2014  00:03:00      -60.546      -39.557        2.990       49.068       29.228       20.585     2407.699      854.288      423.730        0.446        0.184       72.323       23.352        0.104      329.699       -3.398      859.566
02/02/2014  00:04:00      -93.791      -41.882       -0.809       23.255       32.062       15.957      540.802     1027.995      254.628        0.619        0.091      102.717       11.820        0.013      329.721       -3.365      859.572
02/02/2014  00:05:00      -83.339      -26.813       -5.446       15.261       12.219        8.117      232.909      149.309       65.886        0.407        0.022       87.546        1.955        0.000      329.784       -3.260      859.560
02/02/2014  00:06:00      -65.869      -11.446       -6.891       14.617       14.600        7.332      213.668      213.146       53.761        0.250        0.024       66.856        4.209        0.004      329.821       -3.200      859.528
02/02/2014  00:07:00      -31.254       -7.858       -0.423        9.172       10.599        9.432       84.122      112.349       88.968        0.066        0.014       32.226        5.736        0.032      329.889       -3.090      859.498
02/02/2014  00:08:00      -38.856      -18.028       -3.497       15.037       15.592        9.983      226.111      243.103       99.667        0.121        0.028       42.835        8.017        0.035      329.957       -2.977      859.479
02/02/2014  00:09:00      -74.681      -30.963       -9.120       13.740       14.089       11.093      188.798      198.500      123.057        0.356        0.026       80.845        7.226        0.008      329.892       -3.083      859.484
02/02/2014  00:10:00      -91.171      -40.274      -13.053       18.819       19.022       13.091      354.157      361.843      171.372        0.550        0.044       99.670        7.206        0.005      329.894       -3.081      859.490
02/02/2014  00:11:00     -102.269      -32.022       -6.234       20.650       30.463       15.918      426.413      927.997      253.375        0.657        0.080      107.166        9.059        0.007      329.859       -3.139      859.508
02/02/2014  00:12:00      -61.088      -34.193       -2.716       32.666       15.065       13.936     1067.080      226.945      194.207        0.320        0.074       70.007       10.961        0.025      329.874       -3.113      859.519
02/02/2014  00:13:00      -45.216      -33.731       -1.256       21.889       15.719       11.243      479.121      247.102      126.409        0.202        0.043       56.412        8.313        0.022      329.913       -3.052      859.533
02/02/2014  00:14:00      -28.928      -14.169       -0.682       20.475       13.759       14.892      419.213      189.313      221.785        0.093        0.042       32.212       10.745        0.111      329.860       -3.136      859.534
02/02/2014  00:15:00      -30.313       -5.408        0.144       11.950       11.055        7.490      142.800      122.211       56.102        0.063        0.016       30.791        5.468        0.032      329.930       -3.022      859.524
02/02/2014  00:16:00      -10.864        1.964       -0.057        9.927        4.030        5.624       98.553       16.241       31.633        0.013        0.007       11.040        3.342        0.092      329.962       -2.969      859.520
02/02/2014  00:17:00      -21.595        4.427       -3.641       16.218        6.601        8.070      263.037       43.573       65.122        0.044        0.019       22.044        7.829        0.126      329.952       -2.984      859.524
02/02/2014  00:18:00      -62.319       -4.219       -5.200       10.649       12.720        9.317      113.396      161.805       86.799        0.215        0.018       62.462        6.270        0.010      330.026       -2.865      859.541
02/02/2014  00:19:00      -77.280      -14.595       -9.866       16.557       17.832       10.817      274.143      317.969      117.010        0.350        0.035       78.646        6.194        0.006      329.961       -2.971      859.548
02/02/2014  00:20:00      -90.147      -12.668      -15.996       28.389       15.420       11.997      805.912      237.773      143.925        0.486        0.059       91.032       15.375        0.029      329.872       -3.117      859.546
02/02/2014  00:21:00     -109.785      -26.197      -10.240       19.937       12.653       10.904      397.466      160.093      118.898        0.676        0.034      112.867        8.084        0.005      329.845       -3.161      859.548
02/02/2014  00:22:00     -131.178      -51.821      -13.702       15.743       21.299       13.867      247.839      453.654      192.290        1.049        0.045      141.043       10.684        0.006      329.792       -3.248      859.539
02/02/2014  00:23:00     -112.509      -38.057      -11.398       25.542       27.974       15.961      652.400      782.540      254.754        0.796        0.084      118.771        8.209        0.005      329.758       -3.304      859.532
02/02/2014  00:24:00     -109.437      -31.613      -21.985       13.310       18.811        9.873      177.155      353.837       97.479        0.704        0.031      113.911        6.217        0.003      329.721       -3.364      859.529
02/02/2014  00:25:00      -86.759      -29.641       -3.488       27.259       38.819       18.179      743.065     1506.921      330.489        0.550        0.129       91.683       12.828        0.020      329.756       -3.305      859.526
02/02/2014  00:26:00      -96.595      -19.612      -13.616       30.541       21.382       17.972      932.732      457.194      323.001        0.581        0.086       98.566       16.726        0.029      329.641       -3.494      859.526
02/02/2014  00:27:00     -113.616       -4.524      -15.533       31.688       29.709       15.199     1004.125      882.629      230.995        0.764        0.106      113.706       15.078        0.018      329.662       -3.460      859.514
02/02/2014  00:28:00     -106.407        7.389       -6.833       42.230       24.982       19.174     1783.368      624.113      367.626        0.710        0.139      106.664       17.602        0.027      329.664       -3.456      859.506
02/02/2014  00:29:00      -83.156      -14.912       -0.051       42.131       27.922       17.303     1775.010      779.643      299.403        0.500        0.143       84.482       18.829        0.050      329.686       -3.422      859.495
02/02/2014  00:30:00      -28.143      -10.738        8.202       23.589       16.530       16.879      556.431      273.251      284.890        0.104        0.056       30.122       15.598        0.268      329.708       -3.385      859.473
02/02/2014  00:31:00      -39.613       -8.002        2.266       31.829       25.159       13.848     1013.112      632.972      191.778        0.174        0.092       40.413       14.881        0.136      329.770       -3.284      859.449
02/02/2014  00:32:00      -75.265      -33.625       -8.046       26.963       19.688       14.484      726.991      387.603      209.777        0.409        0.066       82.434       12.389        0.023      329.822       -3.199      859.439
02/02/2014  00:33:00     -108.786      -46.426      -11.889       19.829       20.712       16.261      393.193      428.971      264.409        0.761        0.054      118.278        9.697        0.007      329.854       -3.148      859.444
02/02/2014  00:34:00      -76.923      -52.590       -1.596       29.421       17.599       13.570      865.595      309.721      184.141        0.502        0.068       93.182       11.513        0.015      329.919       -3.041      859.453
02/02/2014  00:35:00      -67.786      -38.230       -3.987       15.794       15.352       10.837      249.442      235.672      117.450        0.334        0.030       77.823        8.802        0.013      329.805       -3.227      859.459
02/02/2014  00:36:00      -62.351      -16.420       -7.265       17.785       17.624        9.775      316.317      310.593       95.541        0.247        0.036       64.477        6.696        0.011      329.645       -3.490      859.448
02/02/2014  00:37:00      -65.609      -12.320       -2.638       18.707       14.585       11.708      349.946      212.718      137.069        0.258        0.035       66.756       10.550        0.025      329.748       -3.319      859.450
02/02/2014  00:38:00      -27.919        0.529        5.311       31.945       19.528       15.945     1020.513      381.357      254.243        0.123        0.083       27.924       17.501        0.393      329.699       -3.399      859.443
02/02/2014  00:39:00      -40.636       -5.278        1.883       36.798       23.373       16.931     1354.102      546.297      286.673        0.193        0.109       40.977       13.414        0.107      329.628       -3.515      859.450
02/02/2014  00:40:00      -92.122       16.897       -6.947       37.940       27.564       18.613     1439.415      759.751      346.440        0.568        0.127       93.659       11.055        0.014      329.657       -3.469      859.465
02/02/2014  00:41:00      -80.447       10.984      -12.181       49.067       30.427       15.995     2407.570      925.778      255.828        0.516        0.179       81.193       14.826        0.033      329.668       -3.450      859.470
02/02/2014  00:42:00      -84.981      -19.369       -4.190       40.759       23.697       20.263     1661.263      561.549      410.595        0.512        0.132       87.161       20.716        0.056      329.684       -3.425      859.483
02/02/2014  00:43:00      -96.349      -12.843       -8.708       48.206       35.205       23.270     2323.855     1239.372      541.514        0.681        0.205       97.201       16.951        0.030      329.664       -3.457      859.496
02/02/2014  00:44:00     -129.619      -26.312       -9.070       38.331       40.434       25.429     1469.291     1634.937      646.610        1.066        0.188      132.263       20.523        0.024      329.593       -3.573      859.491
02/02/2014  00:45:00     -141.119       16.555      -10.758       40.133       38.561       21.611     1610.673     1486.941      467.054        1.193        0.178      142.087       18.366        0.017      329.522       -3.690      859.483
02/02/2014  00:46:00      -75.233       31.362      -11.175       30.397       27.191       20.706      923.969      739.363      428.744        0.443        0.105       81.508       12.268        0.023      329.588       -3.581      859.460
02/02/2014  00:47:00      -47.179       62.146      -14.365       18.052       20.783       13.287      325.860      431.938      176.543        0.361        0.047       78.026       10.101        0.017      329.965       -2.964      859.428
02/02/2014  00:48:00        7.855       12.017       11.995       19.870        9.853       10.330      394.816       97.091      106.705        0.047        0.030       14.356       10.016        0.487      329.894       -3.080      859.400
02/02/2014  00:49:00       14.323       14.134       12.418       14.457        7.776       11.037      209.017       60.462      121.815        0.048        0.020       20.122       11.004        0.299      329.886       -3.094      859.379
02/02/2014  00:50:00        9.756       11.649        5.744       11.534       12.090        9.561      133.043      146.171       91.416        0.032        0.019       15.195        4.940        0.106      329.866       -3.127      859.374
02/02/2014  00:51:00        1.797        8.701        7.475        7.094        6.800        7.198       50.323       46.238       51.805        0.014        0.007        8.885        3.688        0.172      329.806       -3.224      859.380
02/02/2014  00:52:00      -36.760        2.114       -1.388       13.614       10.926       11.770      185.350      119.386      138.533        0.090        0.022       36.821        8.995        0.060      329.805       -3.226      859.401
02/02/2014  00:53:00      -67.108      -18.502       -5.434       24.266       15.966       11.097      588.838      254.917      123.143        0.292        0.048       69.612        8.627        0.015      329.704       -3.392      859.416
02/02/2014  00:54:00      -77.447      -10.712       -7.232       14.390       12.848        8.074      207.077      165.077       65.194        0.330        0.022       78.184        6.948        0.008      329.607       -3.551      859.425
02/02/2014  00:55:00      -52.278      -13.439       -1.890       25.178       14.171       12.275      633.953      200.811      150.681        0.195        0.049       53.978       10.943        0.041      329.629       -3.516      859.414
02/02/2014  00:56:00      -32.880       -3.952       -3.146       18.709       12.838       11.169      350.028      164.809      124.750        0.087        0.032       33.117       12.097        0.133      329.654       -3.474      859.382
02/02/2014  00:57:00      -33.365       -4.450       -3.163        9.594       10.829        8.170       92.038      117.258       66.750        0.071        0.014       33.661        4.983        0.022      329.676       -3.438      859.356
02/02/2014  00:58:00      -59.973      -19.027      -12.995        8.822        8.893        6.673       77.823       79.087       44.528        0.216        0.010       62.919        4.374        0.005      329.678       -3.433      859.348
02/02/2014  00:59:00      -86.676      -30.355      -10.545       10.402       11.780        8.284      108.201      138.763       68.624        0.443        0.016       91.838        4.196        0.002      329.657       -3.468      859.346
02/02/2014  01:00:00      -83.661      -27.245       -8.278       11.611       21.036       10.378      134.814      442.533      107.712        0.425        0.034       87.986        6.750        0.006      329.639       -3.499      859.335
02/02/2014  01:01:00      -71.290       -4.875      -10.471       12.837       15.083       12.924      164.801      227.508      167.039        0.289        0.028       71.457        5.733        0.006      329.606       -3.553      859.317
02/02/2014  01:02:00      -71.511      -12.208       -7.562       15.406       11.785       10.551      237.338      138.885      111.320        0.290        0.024       72.546        8.754        0.015      329.575       -3.601      859.304
02/02/2014  01:03:00      -81.671      -22.381      -12.272       14.063       12.313       11.044      197.773      151.620      121.964        0.390        0.024       84.682        6.643        0.006      329.595       -3.570      859.307
02/02/2014  01:04:00     -101.990      -46.265       -1.937       25.269       18.308       15.262      638.523      335.174      232.942        0.688        0.060      111.993       12.624        0.013      329.530       -3.676      859.321
02/02/2014  01:05:00     -110.850      -41.624       -5.319       20.566       21.645       13.876      422.947      468.523      192.540        0.757        0.054      118.408        8.064        0.005      329.554       -3.637      859.330
02/02/2014  01:06:00      -62.862      -44.701       -0.508       45.035       25.399       20.852     2028.153      645.120      434.800        0.453        0.155       77.136       17.172        0.050      329.631       -3.511      859.328
02/02/2014  01:07:00      -74.301      -57.562        3.122       43.403       27.061       20.188     1883.816      732.296      407.559        0.593        0.151       93.990       19.762        0.044      329.587       -3.584      859.322
02/02/2014  01:08:00      -59.789      -60.699       -4.308       31.016       23.601       15.535      962.012      556.988      241.343        0.452        0.088       85.200       13.763        0.026      329.603       -3.557      859.296
02/02/2014  01:09:00      -55.551       -3.908       -6.728       16.508       16.634        9.855      272.513      276.691       97.125        0.190        0.032       55.688        8.331        0.022      329.631       -3.511      859.276
02/02/2014  01:10:00      -48.285       -7.689       -8.795       15.480       16.430       12.746      239.616      269.934      162.458        0.157        0.034       48.893       10.277        0.044      329.644       -3.491      859.257
02/02/2014  01:11:00      -42.941      -20.997       -6.463       12.003       14.154       10.103      144.062      200.346      102.067        0.139        0.022       47.799        7.050        0.022      329.700       -3.399      859.249
02/02/2014  01:12:00      -64.273      -24.972      -11.124       18.166       12.191       10.992      330.006      148.621      120.833        0.274        0.030       68.953        5.593        0.007      329.599       -3.565      859.258
02/02/2014  01:13:00      -85.392      -22.694       -7.370        8.034       10.840       11.976       64.543      117.506      143.431        0.409        0.016       88.356        3.436        0.002      329.588       -3.581      859.268
02/02/2014  01:14:00      -71.360      -22.909       -9.166       11.538       15.288        9.096      133.136      233.727       82.742        0.308        0.022       74.947        7.067        0.009      329.578       -3.597      859.271
02/02/2014  01:15:00      -69.957      -23.994      -10.536       16.481       19.180       12.990      271.621      367.864      168.748        0.319        0.040       73.957       10.358        0.020      329.554       -3.638      859.265
02/02/2014  01:16:00      -66.591      -15.901      -10.757       14.383       16.178       11.293      206.863      261.739      127.538        0.270        0.030       68.463        8.121        0.014      329.524       -3.685      859.262
02/02/2014  01:17:00      -86.113      -16.096       -9.924       19.918       12.840       12.932      396.709      164.871      167.237        0.425        0.036       87.604       11.527        0.017      329.519       -3.694      859.269
02/02/2014  01:18:00      -87.112      -30.822       -7.699       15.914       15.970       13.682      253.258      255.056      187.193        0.465        0.035       92.404        9.318        0.010      329.495       -3.732      859.295
02/02/2014  01:19:00      -63.111      -21.112       -9.363       10.489       13.850        7.501      110.009      191.836       56.262        0.244        0.018       66.548        5.969        0.008      329.503       -3.720      859.305
02/02/2014  01:20:00      -19.912       11.131       -4.335       11.170        8.708        6.765      124.769       75.831       45.762        0.039        0.012       22.812        4.213        0.034      329.575       -3.600      859.297
02/02/2014  01:21:00       29.988       26.498       14.000       23.811       12.940       12.157      566.966      167.438      147.787        0.134        0.044       40.018        9.071        0.051      329.643       -3.491      859.272
02/02/2014  01:22:00       44.236       45.802        4.694       26.032       14.738       14.883      677.661      217.204      221.498        0.260        0.056       63.676        6.917        0.012      329.672       -3.443      859.248
02/02/2014  01:23:00       52.362       32.335        8.955       21.166       17.999       12.932      448.011      323.969      167.224        0.240        0.047       61.541       12.115        0.039      329.659       -3.467      859.237
02/02/2014  01:24:00       43.921       17.090       -7.755       19.688       16.821        6.962      387.628      282.933       48.463        0.150        0.036       47.129        7.755        0.027      329.808       -3.223      859.251
02/02/2014  01:25:00        8.600       21.504        6.356       17.541        6.544        7.076      307.700       42.827       50.066        0.049        0.020       23.160        4.140        0.032      329.818       -3.204      859.259
02/02/2014  01:26:00      -50.885       11.032       -6.694       14.858       17.342       10.198      220.754      300.740      104.009        0.169        0.031       52.067        7.488        0.021      329.623       -3.524      859.265
02/02/2014  01:27:00      -77.952      -11.484       -5.479       17.636       14.011       13.734      311.022      196.314      188.623        0.347        0.035       78.793       12.821        0.026      329.594       -3.572      859.260
02/02/2014  01:28:00      -77.779      -23.522      -12.040       18.514       11.854       10.209      342.763      140.513      104.214        0.367        0.029       81.258        8.041        0.010      329.516       -3.700      859.243
02/02/2014  01:29:00      -82.787        1.530      -11.841       16.942       17.875       12.652      287.034      319.532      160.075        0.388        0.038       82.802       10.379        0.016      329.442       -3.819      859.218
02/02/2014  01:30:00      -46.508       14.769       -6.728       15.831       15.469       12.677      250.609      239.297      160.707        0.154        0.033       48.797       11.196        0.053      329.561       -3.626      859.186
02/02/2014  01:31:00        0.349       20.756        4.122       17.496       10.407       11.312      306.112      108.305      127.968        0.050        0.027       20.759        9.631        0.215      329.733       -3.344      859.154
02/02/2014  01:32:00       19.532       68.820      -13.129       13.031       13.912        9.928      169.795      193.550       98.564        0.288        0.023       71.538        7.902        0.012      329.762       -3.296      859.139
02/02/2014  01:33:00        8.753       62.373      -10.882       10.647       15.214        6.206      113.356      231.457       38.509        0.223        0.019       62.985        6.976        0.012      329.803       -3.228      859.146
02/02/2014  01:34:00      -48.055        7.352       -3.564       35.477       49.265       16.629     1258.591     2427.078      276.526        0.317        0.198       48.614       11.343        0.054      329.693       -3.410      859.169
02/02/2014  01:35:00      -92.078      -35.505      -12.729       25.488       27.378       15.541      649.615      749.541      241.512        0.577        0.082       98.686       11.584        0.014      329.526       -3.683      859.191
02/02/2014  01:36:00      -66.003        0.612       -0.066       36.436       26.124       22.622     1327.600      682.486      511.751        0.344        0.126       66.006       21.158        0.103      329.488       -3.745      859.203
02/02/2014  01:37:00      -49.911       -0.179       -7.398       24.840       21.966       16.853      617.043      482.513      284.023        0.196        0.069       49.911       11.725        0.055      329.367       -3.945      859.190
02/02/2014  01:38:00      -32.927        0.102       -7.589       14.583       16.982        8.217      212.659      288.395       67.525        0.086        0.028       32.927        3.830        0.014      329.493       -3.736      859.167
02/02/2014  01:39:00      -26.260       -4.369       -4.418       17.277       12.583        9.292      298.488      158.325       86.344        0.064        0.027       26.621        5.919        0.049      329.589       -3.578      859.140
02/02/2014  01:40:00      -69.012      -20.785      -16.973       19.566       11.928       10.330      382.837      142.281      106.704        0.306        0.032       72.074        8.019        0.012      329.618       -3.531      859.124
02/02/2014  01:41:00     -123.189      -25.598      -12.639       22.343       18.120       16.141      499.215      328.352      260.539        0.854        0.054      125.821        8.811        0.005      329.492       -3.739      859.119
02/02/2014  01:42:00     -118.491      -13.779      -14.836       24.652       31.705       19.938      607.732     1005.209      397.508        0.823        0.101      119.290       12.104        0.010      329.464       -3.784      859.120
02/02/2014  01:43:00      -82.714      -15.278       -8.615       35.319       27.039       22.374     1247.428      731.106      500.577        0.481        0.124       84.113       15.917        0.036      329.535       -3.669      859.107
02/02/2014  01:44:00      -47.211       -8.691       -0.942       23.448       22.581       16.019      549.806      509.916      256.600        0.181        0.066       48.005       10.967        0.052      329.550       -3.643      859.092
02/02/2014  01:45:00      -35.482      -18.383        5.980       26.777       26.472       17.706      717.026      700.756      313.504        0.168        0.087       39.962       14.195        0.126      329.574       -3.605      859.076
02/02/2014  01:46:00      -59.214      -27.957       -6.255       19.007       20.386       14.610      361.257      415.583      213.448        0.266        0.050       65.482       10.700        0.027      329.583       -3.590      859.067
02/02/2014  01:47:00     -112.988      -31.641       -9.467       22.353       17.642       12.756      499.661      311.233      162.706        0.742        0.049      117.335        6.849        0.003      329.575       -3.602      859.064
02/02/2014  01:48:00      -92.688      -32.943      -10.106       22.141       21.702       13.063      490.214      470.991      170.648        0.545        0.057       98.368        9.524        0.009      329.512       -3.705      859.059
02/02/2014  01:49:00      -59.039      -25.148       -4.624       21.184       17.233        9.179      448.768      296.965       84.251        0.248        0.041       64.172        3.538        0.003      329.543       -3.656      859.063
02/02/2014  01:50:00      -60.719       -8.878       -3.689       14.690       16.232       11.222      215.801      263.483      125.930        0.219        0.030       61.364        6.267        0.010      329.658       -3.469      859.065
02/02/2014  01:51:00      -36.133        3.726       -5.590       21.871       14.820       12.737      478.335      219.645      162.227        0.111        0.043       36.325       14.675        0.163      329.691       -3.411      859.064
02/02/2014  01:52:00      -51.344       19.582       -5.778       22.391       15.707       13.196      501.352      246.718      174.142        0.199        0.046       54.951       12.120        0.049      329.703       -3.394      859.069
02/02/2014  01:53:00      -65.913       13.438       -7.654       16.275       19.303       10.922      264.862      372.611      119.301        0.267        0.038       67.269        8.319        0.015      329.748       -3.319      859.068
02/02/2014  01:54:00      -54.885      -10.325       -4.075       15.630       16.388       11.655      244.286      268.574      135.835        0.189        0.032       55.848       10.069        0.033      329.713       -3.378      859.071
02/02/2014  01:55:00      -35.708      -24.508       -7.908       16.562       19.595       15.285      274.308      383.965      233.634        0.141        0.045       43.310       11.003        0.065      329.698       -3.400      859.082
02/02/2014  01:56:00      -31.690      -16.313       -2.285       12.975       14.452       10.221      168.340      208.871      104.475        0.088        0.024       35.642        7.084        0.040      329.677       -3.438      859.086
02/02/2014  01:57:00       19.094       28.072       26.445       22.331       31.872       18.381      498.692     1015.796      337.864        0.185        0.093       33.950       15.366        0.205      329.616       -3.536      859.079
02/02/2014  01:58:00       50.677       41.819        5.974       26.432       27.762       16.599      698.656      770.738      275.516        0.305        0.087       65.704       13.500        0.042      329.428       -3.843      859.054
02/02/2014  01:59:00       30.692       28.772       -7.414       15.762       17.011       11.409      248.442      289.358      130.161        0.125        0.033       42.069        7.260        0.030      329.488       -3.746      859.036
02/02/2014  02:00:00        4.900       35.451       -4.705       10.639       16.454       11.887      113.196      270.733      141.303        0.091        0.026       35.788        8.872        0.061      329.658       -3.469      859.024
02/02/2014  02:01:00       14.286       34.862       -2.485       11.204       13.070        9.935      125.529      170.825       98.706        0.091        0.020       37.676        6.558        0.030      329.654       -3.473      859.008
02/02/2014  02:02:00       10.992        8.639        5.717        8.868        9.091        8.052       78.638       82.642       64.836        0.023        0.011       13.980        5.803        0.172      329.686       -3.420      858.997
02/02/2014  02:03:00       27.279       18.775        2.892        6.745        5.519        7.363       45.501       30.463       54.213        0.062        0.007       33.116        3.691        0.012      329.633       -3.509      858.991
02/02/2014  02:04:00       18.753        6.636        0.433        7.888        7.337        5.360       62.218       53.834       28.735        0.027        0.007       19.892        3.830        0.037      329.710       -3.382      858.986
02/02/2014  02:05:00        5.362       -5.445       -2.373        5.186        6.862        4.862       26.890       47.094       23.636        0.008        0.005        7.642        3.284        0.185      329.886       -3.093      858.990
02/02/2014  02:06:00       -4.815      -18.904        3.174       20.952        9.360       12.696      438.976       87.605      161.187        0.054        0.034       19.508       10.060        0.266      329.880       -3.103      859.008
02/02/2014  02:07:00      -44.035       -6.336       -6.800       12.460       10.422        7.628      155.247      108.620       58.188        0.117        0.016       44.489        6.846        0.024      329.761       -3.300      859.023
02/02/2014  02:08:00      -45.210       15.069        1.333        7.662       13.409        8.438       58.710      179.809       71.195        0.129        0.015       47.655        2.986        0.004      329.777       -3.273      859.026
02/02/2014  02:09:00      -38.558       16.639       -4.059        9.931        5.731        5.773       98.629       32.848       33.327        0.097        0.008       41.995        3.693        0.008      329.744       -3.327      859.035
02/02/2014  02:10:00       -4.962       24.602        2.830       16.054       17.642       13.288      257.743      311.228      176.565        0.069        0.037       25.098       13.730        0.299      329.714       -3.375      859.043
02/02/2014  02:11:00       23.537       46.589      -14.493       10.126        9.567        7.999      102.533       91.520       63.980        0.160        0.013       52.197        5.511        0.011      329.477       -3.763      859.052
02/02/2014  02:12:00        0.299       60.702       -6.744       13.616       23.970       11.422      185.393      574.553      130.459        0.231        0.045       60.703        4.227        0.005      329.495       -3.735      859.051
02/02/2014  02:13:00      -11.001      101.122       -7.583       18.295       25.496       13.770      334.690      650.040      189.604        0.579        0.059      101.719       14.819        0.021      329.402       -3.885      859.044
02/02/2014  02:14:00      -44.299       49.445      -13.468       15.777       21.462       16.913      248.916      460.626      286.064        0.279        0.050       66.387        9.868        0.022      329.538       -3.662      859.034
02/02/2014  02:15:00      -46.392        1.599       -2.396       17.001       19.953       10.516      289.033      398.108      110.591        0.148        0.040       46.419        5.072        0.012      329.616       -3.535      859.021
02/02/2014  02:16:00      -45.288      -23.679      -10.407       12.843       12.704        9.318      164.934      161.384       86.822        0.157        0.021       51.104        7.152        0.020      329.658       -3.467      859.024
02/02/2014  02:17:00      -30.321      -14.029        4.001       25.339       17.070       11.247      642.067      291.387      126.487        0.110        0.053       33.409       13.372        0.160      329.682       -3.427      859.017
02/02/2014  02:18:00      -51.062      -11.491       -4.578       14.770       11.234        8.951      218.166      126.211       80.112        0.159        0.021       52.339        4.938        0.009      329.606       -3.551      859.022
02/02/2014  02:19:00      -52.465      -16.338       -8.024        8.960        9.613        8.471       80.276       92.408       71.754        0.166        0.012       54.950        3.113        0.003      329.618       -3.533      859.025
02/02/2014  02:20:00      -60.582       -8.601       -2.129        9.327       11.886        7.163       86.996      141.281       51.313        0.201        0.014       61.189        4.213        0.005      329.691       -3.411      859.028
02/02/2014  02:21:00      -59.679      -22.503       -8.543       12.482       13.369       10.601      155.796      178.723      112.381        0.229        0.022       63.781        6.878        0.012      329.703       -3.393      859.034
02/02/2014  02:22:00      -61.629      -15.959       -6.514       11.610       14.912       10.631      134.794      222.368      113.009        0.228        0.024       63.661        3.848        0.004      329.580       -3.595      859.048
02/02/2014  02:23:00      -61.620      -12.820        0.616       17.723       14.426        9.296      314.090      208.108       86.419        0.229        0.030       62.940        7.139        0.013      329.585       -3.586      859.040
02/02/2014  02:24:00      -69.158       -5.305       -6.157       18.726       11.851       10.261      350.649      140.457      105.285        0.272        0.030       69.361       10.181        0.022      329.622       -3.526      859.029
02/02/2014  02:25:00      -69.716        2.838       -7.517       13.034        8.364       10.722      169.891       69.964      114.961        0.264        0.018       69.774        6.760        0.009      329.587       -3.584      859.006
02/02/2014  02:26:00      -19.757       -1.308       -2.832       19.622       13.387       11.065      385.031      179.202      122.445        0.054        0.034       19.800       11.907        0.362      329.597       -3.568      858.981
02/02/2014  02:27:00      -34.695        5.562       -5.764       15.937       12.244        8.316      253.973      149.920       69.152        0.087        0.024       35.138        7.853        0.050      329.631       -3.513      858.956
02/02/2014  02:28:00      -36.830        6.056       -7.961       14.801       10.242        8.005      219.073      104.901       64.074        0.092        0.019       37.324        5.868        0.025      329.594       -3.572      858.932
02/02/2014  02:29:00      -30.048      -17.027       -9.394       13.763       12.338        8.984      189.427      152.223       80.720        0.085        0.021       34.537        6.778        0.039      329.588       -3.581      858.926
02/02/2014  02:30:00      -35.939      -20.797      -11.319       10.837        8.870        7.790      117.440       78.675       60.685        0.105        0.013       41.523        3.323        0.006      329.551       -3.642      858.931
02/02/2014  02:31:00      -19.575      -24.395        3.187       19.868       17.548       11.668      394.754      307.923      136.138        0.091        0.042       31.278       11.848        0.143      329.654       -3.474      858.939
02/02/2014  02:32:00        1.529       -5.939        3.884        8.192        8.106        9.026       67.115       65.705       81.466        0.013        0.011        6.133        4.644        0.573      329.654       -3.474      858.939
02/02/2014  02:33:00      -25.147       -3.636      -17.379       12.862        9.731       12.502      165.438       94.700      156.298        0.068        0.021       25.408        9.013        0.126      329.566       -3.619      858.940
02/02/2014  02:34:00      -23.119       -2.572      -13.084       12.838       10.280        8.472      164.815      105.681       71.777        0.053        0.017       23.261        3.980        0.029      329.592       -3.576      858.929
02/02/2014  02:35:00      -21.527        5.444       -2.346       21.933       17.858       14.132      481.064      318.915      199.718        0.075        0.050       22.204       12.438        0.314      329.563       -3.621      858.915
02/02/2014  02:36:00        4.302       45.893       -3.978       10.032        9.752        6.001      100.637       95.097       36.014        0.119        0.012       46.095        6.106        0.018      329.872       -3.117      858.907
02/02/2014  02:37:00        0.315       41.295       -4.750       14.180       12.393        4.940      201.072      153.594       24.402        0.105        0.019       41.296        3.135        0.006      329.845       -3.160      858.893
02/02/2014  02:38:00       -8.235       -6.490       -1.517       10.578       18.369        8.605      111.886      337.429       74.052        0.032        0.026       10.486        4.529        0.187      329.684       -3.425      858.882
02/02/2014  02:39:00      -21.654      -11.478       -0.612       12.925       14.136        9.167      167.068      199.814       84.030        0.053        0.023       24.508        6.294        0.066      329.644       -3.489      858.868
02/02/2014  02:40:00      -33.521      -13.479       -1.609       13.484       14.393        9.608      181.831      207.146       92.323        0.089        0.024       36.129        4.635        0.016      329.653       -3.476      858.853
02/02/2014  02:41:00      -36.417       -7.299       -0.241       20.272       13.763       10.390      410.955      189.432      107.943        0.104        0.035       37.141        8.551        0.053      329.683       -3.425      858.840
02/02/2014  02:42:00      -31.617      -21.525       -5.988       19.598       12.874        8.522      384.071      165.735       72.618        0.106        0.031       38.249        3.891        0.010      329.579       -3.597      858.824
02/02/2014  02:43:00      -10.380       -5.723       -3.531       11.527        7.585        5.556      132.882       57.531       30.865        0.019        0.011       11.853        4.292        0.131      329.628       -3.516      858.817
02/02/2014  02:44:00       12.149        9.081        0.675       14.440       14.260       11.535      208.503      203.338      133.053        0.039        0.027       15.167        9.453        0.388      329.833       -3.182      858.808
02/02/2014  02:45:00       12.552       40.840      -10.029       10.429       14.530        9.343      108.754      211.116       87.299        0.117        0.020       42.725       10.143        0.056      329.928       -3.026      858.807
02/02/2014  02:46:00        0.208       28.230       -5.983       11.427       12.747        6.822      130.580      162.475       46.537        0.059        0.017       28.231        2.709        0.009      329.923       -3.033      858.810
02/02/2014  02:47:00      -47.283       -8.697       -6.869       21.427       11.630        8.134      459.109      135.247       66.165        0.151        0.033       48.076        9.460        0.039      329.647       -3.484      858.811
02/02/2014  02:48:00      -53.993      -20.623       -3.138       21.332       13.333        8.784      455.034      177.770       77.165        0.203        0.035       57.797        9.101        0.025      329.608       -3.549      858.817
02/02/2014  02:49:00      -69.047      -22.621       -3.248       23.487       10.929        9.067      551.619      119.435       82.217        0.302        0.038       72.658        9.914        0.019      329.590       -3.579      858.806
02/02/2014  02:50:00      -50.193      -21.880       -5.736       16.694       10.998       12.400      278.673      120.952      153.762        0.179        0.028       54.755       10.223        0.035      329.560       -3.629      858.789
02/02/2014  02:51:00      -62.419      -24.072       -8.792       11.633       10.487        8.147      135.330      109.983       66.375        0.243        0.016       66.900        4.795        0.005      329.520       -3.692      858.769
02/02/2014  02:52:00      -56.754      -24.797       -2.201       17.122       20.883       10.110      293.173      436.116      102.222        0.234        0.042       61.935        5.828        0.009      329.557       -3.632      858.753
02/02/2014  02:53:00      -66.292      -22.639       -5.993        8.039        9.537        7.807       64.627       90.951       60.951        0.258        0.011       70.051        2.918        0.002      329.553       -3.638      858.739
02/02/2014  02:54:00      -38.840       -8.287      -10.512       10.868        9.894        7.627      118.116       97.893       58.178        0.098        0.014       39.714        8.115        0.042      329.555       -3.635      858.729
02/02/2014  02:55:00      -10.699       14.263        2.057        8.811       11.569       12.980       77.642      133.840      168.468        0.035        0.019       17.830       10.228        0.329      329.723       -3.360      858.704
02/02/2014  02:56:00       11.495       21.427        9.727       12.169        8.307        7.389      148.089       69.014       54.599        0.048        0.014       24.316        7.865        0.105      329.735       -3.340      858.684
02/02/2014  02:57:00       36.788       24.313       -0.127       10.430        9.059        9.383      108.785       82.066       88.049        0.111        0.014       44.096        7.577        0.030      329.835       -3.178      858.666
02/02/2014  02:58:00       36.885       30.856       -2.900        5.920        7.539        8.023       35.046       56.841       64.368        0.124        0.008       48.090        6.171        0.016      329.884       -3.098      858.658
02/02/2014  02:59:00       24.192       21.595        1.262       15.343       13.807       12.088      235.402      190.645      146.121        0.081        0.029       32.428        8.391        0.067      329.885       -3.096      858.642
02/02/2014  03:00:00       23.695       39.996       -3.351       12.034       18.354        9.331      144.821      336.854       87.059        0.137        0.028       46.488        9.886        0.045      329.768       -3.285      858.632
02/02/2014  03:01:00       22.629       49.713       -5.378       12.057       15.219       12.199      145.375      231.613      148.817        0.177        0.026       54.621        9.813        0.032      329.679       -3.432      858.619
02/02/2014  03:02:00       19.806       39.549       -3.813       16.088       30.717       15.004      258.820      943.535      225.116        0.170        0.071       44.231       14.399        0.106      329.656       -3.470      858.619
02/02/2014  03:03:00       29.976       68.037       -7.624       15.628       29.273       16.303      244.237      856.883      265.791        0.348        0.068       74.348       14.694        0.039      329.620       -3.528      858.616
02/02/2014  03:04:00       31.082       62.921      -10.701       17.924       26.192       12.064      321.254      686.044      145.537        0.310        0.058       70.179       11.182        0.025      329.627       -3.517      858.609
02/02/2014  03:05:00       40.900       82.284      -16.621       15.291       23.414       14.822      233.825      548.201      219.692        0.486        0.050       91.888       13.471        0.021      329.719       -3.368      858.603
02/02/2014  03:06:00       25.409       82.028      -10.580       14.304       33.006       17.296      204.599     1089.365      299.152        0.454        0.080       85.873       20.551        0.057      329.679       -3.433      858.588
02/02/2014  03:07:00       24.710      107.905      -14.726       16.773       19.857       13.374      281.321      394.303      178.856        0.666        0.043      110.699       12.316        0.012      329.713       -3.377      858.575
02/02/2014  03:08:00       20.182       97.762      -11.788       21.702       22.424       11.980      470.991      502.839      143.528        0.561        0.056       99.824        9.777        0.010      329.679       -3.433      858.562
02/02/2014  03:09:00       15.829       95.031      -11.308       14.924       21.781        9.532      222.713      474.411       90.866        0.510        0.039       96.340        8.019        0.007      329.705       -3.389      858.553
02/02/2014  03:10:00       19.509       80.379       -8.071       17.512       24.684       14.786      306.686      609.301      218.639        0.402        0.057       82.713       15.706        0.036      329.728       -3.350      858.553
02/02/2014  03:11:00        0.346       44.640       -3.684       17.697       15.400       12.353      313.170      237.172      152.598        0.135        0.035       44.642        8.978        0.040      329.779       -3.267      858.559
02/02/2014  03:12:00        6.736       26.517       -1.830       17.517       19.737       12.540      306.862      389.542      157.248        0.080        0.043       27.359       11.093        0.164      329.706       -3.387      858.559
02/02/2014  03:13:00      -20.662       19.538       -7.204       15.819       18.413        9.813      250.253      339.027       96.303        0.077        0.034       28.437        9.404        0.109      329.651       -3.479      858.545
02/02/2014  03:14:00      -25.894       -1.041        3.225       24.191       12.385       11.703      585.183      153.379      136.952        0.078        0.044       25.915       10.581        0.167      329.510       -3.707      858.531
02/02/2014  03:15:00      -55.659       -2.032       -6.982        7.500       10.146        6.430       56.254      102.936       41.344        0.168        0.010       55.696        3.705        0.004      329.463       -3.785      858.507
02/02/2014  03:16:00      -56.482        2.609       -8.722        6.431        5.876        6.259       41.355       34.524       39.179        0.169        0.006       56.543        3.470        0.004      329.392       -3.901      858.477
02/02/2014  03:17:00      -36.561       -4.333      -16.965       17.062        8.455        7.581      291.108       71.482       57.478        0.103        0.021       36.817        5.088        0.019      329.411       -3.871      858.463
02/02/2014  03:18:00       -8.095      -15.399       -6.794        9.106       10.918       12.129       82.924      119.203      147.125        0.035        0.017       17.397        5.280        0.092      329.489       -3.743      858.461
02/02/2014  03:19:00      -24.152       -6.451      -10.602       13.077        5.720        6.815      171.018       32.716       46.444        0.049        0.013       24.999        7.308        0.085      329.412       -3.869      858.475
02/02/2014  03:20:00      -43.535      -16.380       -5.845       15.088       15.493        8.997      227.651      240.035       80.951        0.137        0.027       46.514        7.728        0.028      329.353       -3.969      858.492
02/02/2014  03:21:00      -73.729       -8.805      -10.502       22.345       20.729       15.666      499.321      429.696      245.411        0.340        0.059       74.253        7.052        0.009      329.239       -4.151      858.500
02/02/2014  03:22:00      -24.669       -0.706       -1.754       29.156       20.000       12.406      850.082      399.996      153.915        0.101        0.070       24.679        9.216        0.139      329.220       -4.184      858.502
02/02/2014  03:23:00      -22.723      -20.607       -7.100       24.049       21.022       12.696      578.332      441.907      161.189        0.109        0.059       30.676        7.453        0.059      329.231       -4.163      858.501
02/02/2014  03:24:00      -29.492        1.582      -13.339       25.666       18.853       15.315      658.722      355.435      234.548        0.115        0.062       29.535       10.002        0.115      329.251       -4.131      858.487
02/02/2014  03:25:00      -31.306      -14.678      -10.643       24.598       39.995       21.807      605.065     1599.584      475.532        0.199        0.134       34.576       11.150        0.104      329.278       -4.088      858.484
02/02/2014  03:26:00      -29.101       -4.389       -0.370       42.218       21.450       18.278     1782.325      460.088      334.067        0.172        0.129       29.430       20.416        0.481      329.290       -4.068      858.477
02/02/2014  03:27:00      -45.296       -0.681       -1.829       33.562       20.646       15.742     1126.380      426.245      247.810        0.193        0.090       45.301       14.339        0.100      329.207       -4.205      858.485
02/02/2014  03:28:00      -98.059      -13.026       -6.710       26.505       23.087       17.021      702.515      532.996      289.701        0.568        0.076       98.920       14.039        0.020      329.073       -4.424      858.489
02/02/2014  03:29:00      -66.792      -23.607       -1.225       21.465       25.356       15.016      460.763      642.915      225.468        0.317        0.066       70.841        9.431        0.018      329.089       -4.398      858.487
02/02/2014  03:30:00      -89.638      -33.657       -8.063       20.657       19.185       12.385      426.708      368.077      153.381        0.509        0.047       95.749        9.338        0.010      329.158       -4.284      858.487
02/02/2014  03:31:00     -109.593      -29.268       -6.980       24.687       20.394       16.950      609.461      415.901      287.311        0.711        0.066      113.434       11.115        0.010      329.094       -4.389      858.481
02/02/2014  03:32:00      -54.314      -35.370        1.975       57.534       24.756       21.499     3310.108      612.845      462.217        0.429        0.219       64.816       26.538        0.168      329.153       -4.291      858.476
02/02/2014  03:33:00      -82.439       -6.103       -9.109       31.477       21.746       19.374      990.812      472.873      375.341        0.438        0.092       82.665       17.294        0.044      329.008       -4.529      858.464
02/02/2014  03:34:00      -70.601      -19.844       -8.847       16.965       15.218        8.510      287.809      231.573       72.418        0.302        0.030       73.337        7.807        0.011      329.081       -4.409      858.451
02/02/2014  03:35:00      -40.089      -16.496       -2.372       18.139       12.811       11.514      329.007      164.112      132.563        0.126        0.031       43.351        8.166        0.035      329.109       -4.365      858.451
02/02/2014  03:36:00      -45.919        1.269       -5.303       20.506       15.122       10.265      420.492      228.668      105.378        0.145        0.038       45.937        7.754        0.028      329.149       -4.299      858.446
02/02/2014  03:37:00      -68.901       -7.790      -13.074        7.342        7.664        5.737       53.903       58.729       32.913        0.256        0.007       69.340        3.430        0.002      329.307       -4.042      858.431
02/02/2014  03:38:00      -58.514      -11.807       -3.844        9.278       11.344       10.760       86.079      128.682      115.777        0.195        0.017       59.693        8.349        0.020      329.423       -3.852      858.411
02/02/2014  03:39:00      -39.437        3.896        1.731       11.474        9.729        8.265      131.653       94.645       68.312        0.093        0.015       39.628        4.831        0.015      329.589       -3.579      858.386
02/02/2014  03:40:00      -40.894       11.860       -1.938       10.031        8.973        8.856      100.612       80.518       78.423        0.104        0.013       42.579        3.827        0.008      329.479       -3.758      858.364
02/02/2014  03:41:00      -33.336       12.072       18.660       13.729        6.736       14.132      188.475       45.369      199.712        0.102        0.022       35.454        8.481        0.057      329.512       -3.707      858.345
02/02/2014  03:42:00      -25.628       -0.573       -1.148       12.294        7.307        7.414      151.142       53.393       54.964        0.046        0.013       25.634        7.857        0.094      329.458       -3.793      858.321
02/02/2014  03:43:00      -27.986       -7.602       -8.612        8.607        6.652        6.394       74.078       44.251       40.879        0.054        0.008       29.000        3.138        0.012      329.546       -3.651      858.311
02/02/2014  03:44:00      -35.164       -9.601       -6.933       10.849        7.350        5.484      117.708       54.021       30.071        0.079        0.010       36.451        5.053        0.019      329.445       -3.814      858.305
02/02/2014  03:45:00      -52.580      -19.284       -1.980       14.879       10.598       11.207      221.386      112.328      125.600        0.180        0.023       56.005        7.904        0.020      329.310       -4.037      858.305
02/02/2014  03:46:00      -27.862      -18.009       -5.932       16.096       12.997       10.653      259.083      168.919      113.495        0.084        0.027       33.175        7.010        0.045      329.251       -4.133      858.304
02/02/2014  03:47:00      -53.472      -24.163      -11.452       13.717       12.471       11.517      188.159      155.526      132.642        0.203        0.024       58.678        7.393        0.016      329.252       -4.130      858.302
02/02/2014  03:48:00      -50.146      -11.530       -8.026       12.482       16.087       11.168      155.799      258.788      124.726        0.163        0.027       51.455        6.381        0.015      329.178       -4.252      858.289
02/02/2014  03:49:00      -48.677        3.872       -8.075       13.259        6.493        9.058      175.794       42.162       82.051        0.137        0.015       48.831        7.066        0.021      329.166       -4.272      858.270
02/02/2014  03:50:00      -50.079       16.404       -7.205        8.576        7.285        8.734       73.551       53.068       76.282        0.152        0.010       52.697        5.476        0.011      329.152       -4.294      858.250
02/02/2014  03:51:00      -42.307       11.211       -1.297       14.868       11.861        9.112      221.054      140.689       83.020        0.118        0.022       43.767        3.882        0.008      329.243       -4.145      858.230
02/02/2014  03:52:00        0.809       40.487       -2.669       24.956       19.303       10.689      622.815      372.604      114.251        0.138        0.055       40.495        8.847        0.048      329.339       -3.989      858.207
02/02/2014  03:53:00        5.223       60.881      -10.046       25.774       18.380       11.420      664.281      337.841      130.427        0.248        0.057       61.104        9.855        0.026      329.425       -3.848      858.201
02/02/2014  03:54:00       -4.795       33.873        2.529       16.803       30.750       11.431      282.330      945.563      130.657        0.127        0.068       34.211       12.239        0.128      329.419       -3.857      858.198
02/02/2014  03:55:00      -11.717       41.045       -2.466       21.469       21.664       12.838      460.904      469.349      164.804        0.146        0.055       42.684        3.025        0.005      329.505       -3.717      858.200
02/02/2014  03:56:00      -35.037       54.922       -5.849       25.279       29.622       19.546      639.028      877.464      382.053        0.309        0.095       65.146       17.089        0.069      329.462       -3.787      858.199
02/02/2014  03:57:00      -44.618       76.273      -10.416       18.776       27.820       17.372      352.557      773.931      301.779        0.467        0.071       88.365       12.155        0.019      329.430       -3.840      858.203
02/02/2014  03:58:00      -39.528       74.797      -10.854       20.037       22.179       15.797      401.494      491.918      249.529        0.421        0.057       84.600       10.028        0.014      329.412       -3.869      858.202
02/02/2014  03:59:00       -6.935       88.787       -8.240       30.434       25.781       18.665      926.202      664.657      348.371        0.497        0.097       89.057       16.846        0.036      329.559       -3.630      858.183
02/02/2014  04:00:00       17.287      105.659      -15.589       16.621       18.743        9.246      276.250      351.299       85.487        0.621        0.036      107.064        6.707        0.004      329.449       -3.810      858.161
02/02/2014  04:01:00       16.028      113.537      -13.757        8.337       11.050        7.511       69.509      122.092       56.419        0.679        0.012      114.663        4.926        0.002      329.424       -3.851      858.138
02/02/2014  04:02:00       27.552       93.858      -14.943       16.337       21.658       14.399      266.910      469.057      207.338        0.537        0.047       97.818       13.032        0.018      329.354       -3.965      858.125
02/02/2014  04:03:00       27.686       87.313      -10.188       20.435       20.404       12.360      417.601      416.342      152.758        0.474        0.049       91.597        9.819        0.011      329.337       -3.993      858.116
02/02/2014  04:04:00       27.256       84.704       -9.932       14.048       18.980       13.970      197.353      360.239      195.168        0.438        0.038       88.981       12.102        0.018      329.358       -3.959      858.109
02/02/2014  04:05:00       25.642       71.374      -11.347       14.932       19.226       10.579      222.951      369.628      111.907        0.329        0.035       75.840        8.812        0.013      329.384       -3.915      858.113
02/02/2014  04:06:00       21.544       32.471       -3.604       14.459       21.211       14.196      209.053      449.911      201.528        0.120        0.043       38.968        7.581        0.038      329.382       -3.918      858.106
02/02/2014  04:07:00       34.676       30.342       -1.567       18.863       19.258       14.118      355.804      370.864      199.331        0.153        0.046       46.077       14.729        0.102      329.418       -3.858      858.099
02/02/2014  04:08:00       35.094       22.506        4.754       18.855       13.191       12.184      355.506      174.000      148.441        0.122        0.034       41.690       11.042        0.070      329.405       -3.881      858.087
02/02/2014  04:09:00       26.622       30.301       -3.499       14.616       13.838       13.229      213.637      191.487      175.011        0.111        0.029       40.335       11.297        0.078      329.411       -3.871      858.090
02/02/2014  04:10:00       28.184       14.730        3.460       12.268        8.861       12.658      150.507       78.520      160.224        0.071        0.019       31.801        8.108        0.065      329.431       -3.839      858.103
02/02/2014  04:11:00       27.355       24.649       -1.468       10.917       10.670        7.894      119.191      113.848       62.319        0.083        0.015       36.822        5.221        0.020      329.433       -3.835      858.124
02/02/2014  04:12:00       27.660       17.976        7.477       12.752        7.726        8.725      162.626       59.697       76.122        0.072        0.015       32.988        6.374        0.037      329.482       -3.754      858.145
02/02/2014  04:13:00       22.456       14.905        8.758        8.731        9.794        8.573       76.238       95.930       73.499        0.052        0.012       26.952        3.292        0.015      329.487       -3.747      858.166
02/02/2014  04:14:00        5.288       17.084        2.080        9.467        6.294        5.230       89.617       39.615       27.356        0.024        0.008       17.883        5.517        0.095      329.489       -3.744      858.176
02/02/2014  04:15:00        1.660       29.578       -2.006        6.587        5.370        3.258       43.394       28.841       10.613        0.048        0.004       29.624        2.940        0.010      329.461       -3.788      858.168
02/02/2014  04:16:00       11.953       39.215       -2.988        9.922        7.372        4.255       98.455       54.341       18.104        0.093        0.009       40.997        2.260        0.003      329.453       -3.800      858.155
02/02/2014  04:17:00       24.026       41.360       -5.399        9.875        7.607        6.574       97.512       57.868       43.213        0.126        0.010       47.832        3.766        0.006      329.466       -3.776      858.149
02/02/2014  04:18:00       35.416       32.139       -4.603        9.336       12.013        8.834       87.167      144.316       78.032        0.131        0.015       47.825        6.182        0.017      329.498       -3.726      858.150
02/02/2014  04:19:00       33.592       27.777        2.658       12.286       11.092        9.103      150.946      123.031       82.872        0.113        0.018       43.589        7.653        0.031      329.480       -3.757      858.153
02/02/2014  04:20:00       59.423       33.921        0.103       12.814       10.090        6.788      164.190      101.801       46.074        0.250        0.016       68.423        4.764        0.005      329.444       -3.817      858.153
02/02/2014  04:21:00       71.885       32.352        3.808       14.194       10.430        9.202      201.477      108.786       84.674        0.331        0.020       78.830        5.805        0.005      329.463       -3.785      858.145
02/02/2014  04:22:00       70.023       38.046        4.760       13.732       11.716       12.231      188.576      137.274      149.600        0.342        0.024       79.691        6.114        0.006      329.461       -3.789      858.131
02/02/2014  04:23:00       47.605       40.325        7.814       10.404        9.912        6.760      108.248       98.252       45.699        0.210        0.013       62.389        6.138        0.010      329.400       -3.889      858.128
02/02/2014  04:24:00       45.420       36.601       10.757       14.479       13.146       11.445      209.653      172.807      130.985        0.202        0.026       58.331        8.756        0.023      329.387       -3.910      858.143
02/02/2014  04:25:00       40.571       33.591       27.957       13.499       11.020        7.515      182.213      121.447       56.470        0.196        0.018       52.672        4.046        0.006      329.439       -3.825      858.156
02/02/2014  04:26:00       32.349       26.693       27.104        9.687        7.472        7.173       93.844       55.833       51.457        0.135        0.010       41.941        4.879        0.014      329.436       -3.831      858.166
02/02/2014  04:27:00       12.492       18.264       18.996       10.173        7.925        7.973      103.500       62.813       63.569        0.054        0.011       22.128        4.160        0.035      329.473       -3.768      858.171
02/02/2014  04:28:00       -6.660        1.941       15.806        5.829        7.621        7.313       33.977       58.073       53.480        0.022        0.007        6.937        5.677        0.670      329.390       -3.904      858.174
02/02/2014  04:29:00      -42.963       -5.870       -3.332        7.918        9.637        7.617       62.694       92.879       58.022        0.105        0.011       43.362        5.126        0.014      329.135       -4.324      858.173
02/02/2014  04:30:00      -46.125       -1.978       -4.028       10.996        7.122       11.121      120.918       50.727      123.683        0.122        0.015       46.168        7.949        0.030      329.147       -4.303      858.169
02/02/2014  04:31:00      -64.079      -15.151      -10.997       10.040       11.959        7.898      100.799      143.028       62.372        0.238        0.015       65.846        5.070        0.006      329.054       -4.453      858.169
02/02/2014  04:32:00      -78.429       -3.011      -12.089       10.172        7.167        7.084      103.463       51.369       50.183        0.326        0.010       78.487        3.929        0.003      329.089       -4.396      858.167
02/02/2014  04:33:00      -69.142      -11.450      -11.686        7.601        5.870        6.657       57.772       34.460       44.312        0.259        0.007       70.084        2.485        0.001      329.080       -4.412      858.166
02/02/2014  04:34:00      -60.241       -3.646       -7.082        8.294        7.910        6.443       68.795       62.561       41.508        0.193        0.009       60.351        5.238        0.008      329.105       -4.370      858.157
02/02/2014  04:35:00      -29.077        3.709       -3.903       13.053        5.597        3.511      170.392       31.327       12.331        0.054        0.011       29.312        2.249        0.006      329.225       -4.175      858.142
02/02/2014  04:36:00      -18.131        0.204       -9.294        4.747        4.217        5.890       22.533       17.782       34.691        0.025        0.004       18.132        3.085        0.029      329.280       -4.085      858.127
02/02/2014  04:37:00       -0.648       11.153        6.494       12.109        7.717        5.741      146.622       59.558       32.964        0.020        0.012       11.172        2.061        0.034      329.399       -3.892      858.120
02/02/2014  04:38:00       12.558       17.944        1.105        5.992        3.224        3.115       35.909       10.395        9.701        0.027        0.003       21.902        3.319        0.023      329.448       -3.811      858.109
02/02/2014  04:39:00       19.606       20.674       -1.676       18.209       14.266        6.792      331.552      203.533       46.129        0.070        0.029       28.492        5.750        0.041      329.422       -3.853      858.096
02/02/2014  04:40:00       21.911       38.274       -2.712        9.398       16.122        7.993       88.315      259.927       63.885        0.118        0.021       44.102        6.704        0.023      329.369       -3.940      858.086
02/02/2014  04:41:00       25.387       59.532       -6.593       13.411       21.480       11.944      179.852      461.379      142.670        0.251        0.039       64.719       10.576        0.027      329.405       -3.880      858.070
02/02/2014  04:42:00       33.504       35.432        0.776       18.774       16.495       16.864      352.479      272.101      284.406        0.164        0.045       48.764       10.349        0.045      329.354       -3.966      858.061
02/02/2014  04:43:00       29.657       25.022       -0.809       19.019       27.627       15.465      361.719      763.278      239.160        0.143        0.068       38.802       12.561        0.105      329.370       -3.937      858.057
02/02/2014  04:44:00       49.400       37.942        2.472       18.278       15.383       17.625      334.092      236.649      310.634        0.238        0.044       62.289       11.462        0.034      329.382       -3.919      858.059
02/02/2014  04:45:00       33.261       39.268       -3.167       21.644       16.830       13.745      468.451      283.237      188.923        0.180        0.047       51.461       12.647        0.060      329.359       -3.959      858.056
02/02/2014  04:46:00       36.934       43.016       -0.460       20.991       26.030       19.882      440.611      677.546      395.292        0.236        0.076       56.697       17.332        0.093      329.340       -3.987      858.043
02/02/2014  04:47:00       34.624       34.271        2.893       23.821       15.255       14.376      567.434      232.705      206.677        0.169        0.050       48.716        9.482        0.038      329.296       -4.058      858.038
02/02/2014  04:48:00       55.638       48.023       -0.889       16.445       15.450       13.286      270.453      238.697      176.513        0.304        0.034       73.497        9.281        0.016      329.332       -4.002      858.033
02/02/2014  04:49:00       67.776       48.144        6.287       14.085       10.740       10.261      198.378      115.351      105.294        0.368        0.021       83.135        5.058        0.004      329.328       -4.006      858.034
02/02/2014  04:50:00       56.447       34.988       13.381       21.940       13.891       23.797      481.376      192.957      566.317        0.291        0.062       66.411       17.199        0.067      329.389       -3.907      858.028
02/02/2014  04:51:00       32.577       21.245       13.440       12.940       14.013       14.144      167.439      196.357      200.039        0.113        0.028       38.893        4.481        0.013      329.325       -4.010      858.022
02/02/2014  04:52:00       19.638       22.445       -1.450       13.832        9.823        7.328      191.338       96.490       53.698        0.062        0.017       29.823        4.134        0.019      329.286       -4.075      858.015
02/02/2014  04:53:00       -4.485       18.255       -3.917       12.444        8.893        5.500      154.842       79.081       30.246        0.032        0.013       18.798        6.142        0.107      329.333       -4.001      858.008
02/02/2014  04:54:00      -19.993        1.805       -4.953       13.754       11.275       11.509      189.183      127.136      132.456        0.044        0.022       20.074        8.585        0.183      329.026       -4.500      858.007
02/02/2014  04:55:00        2.623       -6.551        9.411       15.841        8.982       10.395      250.943       80.675      108.060        0.029        0.022        7.057        9.649        1.870      329.013       -4.521      858.016
02/02/2014  04:56:00      -17.254       -1.653        2.074       19.690       12.900       14.348      387.686      166.404      205.861        0.053        0.038       17.333       15.163        0.765      329.054       -4.454      858.025
02/02/2014  04:57:00      -30.835       -8.159       -5.088       17.577       11.638       10.868      308.935      135.453      118.107        0.080        0.028       31.896        9.862        0.096      329.074       -4.422      858.031
02/02/2014  04:58:00      -58.579       -8.288      -13.387       14.842       13.652        9.398      220.277      186.371       88.321        0.209        0.025       59.162        5.958        0.010      329.115       -4.355      858.033
02/02/2014  04:59:00      -44.145       -9.930      -12.937       10.491       14.610        8.957      110.067      213.464       80.228        0.131        0.020       45.248        6.993        0.024      329.154       -4.293      858.036
02/02/2014  05:00:00      -40.692      -15.295       -3.602       13.276       11.506       10.454      176.254      132.391      109.287        0.116        0.021       43.471        8.746        0.040      329.161       -4.279      858.041
02/02/2014  05:01:00      -15.199       -1.001        3.902       17.624        5.738        8.570      310.609       32.929       73.438        0.033        0.021       15.232        8.687        0.325      329.129       -4.331      858.047
02/02/2014  05:02:00      -27.214      -22.091        3.235       12.613       12.868       10.002      159.082      165.585      100.049        0.083        0.021       35.051        8.250        0.055      329.154       -4.291      858.048
02/02/2014  05:03:00      -51.879      -12.820       -3.089       14.317       12.136        9.126      204.984      147.291       83.281        0.165        0.022       53.440        6.064        0.013      329.082       -4.407      858.054
02/02/2014  05:04:00      -68.820       -2.668       -6.671       18.337       12.575       10.526      336.244      158.124      110.792        0.270        0.030       68.872        9.132        0.018      329.101       -4.379      858.064
02/02/2014  05:05:00      -69.750      -11.234       -8.693       11.016       10.212        9.152      121.346      104.289       83.763        0.269        0.015       70.649        7.250        0.011      329.104       -4.373      858.075
02/02/2014  05:06:00      -67.259      -16.161       -5.107       18.491       14.394       10.219      341.913      207.180      104.420        0.273        0.033       69.173        7.184        0.011      329.111       -4.361      858.090
02/02/2014  05:07:00      -64.684      -13.569       -0.487       15.835       11.173       10.569      250.754      124.840      111.700        0.243        0.024       66.092        9.019        0.019      329.141       -4.312      858.096
02/02/2014  05:08:00      -51.374      -13.588       -6.601       13.016        8.757        5.918      169.422       76.691       35.024        0.157        0.014       53.141        3.768        0.005      329.185       -4.240      858.095
02/02/2014  05:09:00      -49.366      -21.977       -7.194       10.222        9.882        8.152      104.493       97.653       66.456        0.162        0.013       54.037        3.928        0.005      329.281       -4.085      858.089
02/02/2014  05:10:00      -34.873       -6.836       -1.666       13.708       10.801        8.390      187.919      116.654       70.387        0.082        0.019       35.537        8.174        0.053      329.342       -3.985      858.084
02/02/2014  05:11:00      -58.682      -31.096       -1.992       14.586       13.102       11.400      212.740      171.659      129.970        0.246        0.026       66.412        5.792        0.008      329.323       -4.016      858.085
02/02/2014  05:12:00      -66.892      -35.049       -3.573       13.926       12.291       10.217      193.922      151.066      104.397        0.308        0.022       75.519        6.305        0.007      329.287       -4.074      858.089
02/02/2014  05:13:00      -79.027      -47.886       -1.923       35.334       20.100       15.828     1248.485      404.014      250.514        0.522        0.095       92.403        6.592        0.005      329.260       -4.119      858.086
02/02/2014  05:14:00      -81.079      -31.496        2.658       38.250       29.636       17.611     1463.080      878.303      310.154        0.511        0.133       86.982       17.500        0.040      329.198       -4.219      858.076
02/02/2014  05:15:00      -85.905      -33.849        2.402       28.996       22.971       18.797      840.769      527.652      353.343        0.513        0.086       92.333        7.420        0.006      329.244       -4.143      858.063
02/02/2014  05:16:00      -76.722      -14.204       -3.830       42.263       18.440       18.683     1786.171      340.025      349.066        0.429        0.124       78.026       21.732        0.078      329.323       -4.016      858.043
02/02/2014  05:17:00      -62.624       -5.036       -0.929       23.107       18.074       18.730      533.923      326.661      350.824        0.258        0.061       62.827       14.917        0.056      329.325       -4.011      858.020
02/02/2014  05:18:00      -78.316       -3.307       -8.151       14.032       12.727       12.052      196.892      161.982      145.242        0.336        0.025       78.385        8.949        0.013      329.267       -4.106      857.999
02/02/2014  05:19:00      -67.784      -11.630       -6.372       13.547       12.364        7.699      183.518      152.878       59.282        0.258        0.020       68.774        5.943        0.007      329.266       -4.106      857.983
02/02/2014  05:20:00      -30.594       -9.308       -0.173       15.054       17.488       11.503      226.609      305.817      132.323        0.084        0.033       31.979        8.813        0.076      329.273       -4.095      857.970
02/02/2014  05:21:00      -32.484       -9.444       -6.170       12.136       15.778        7.746      147.294      248.945       59.995        0.082        0.023       33.829        7.491        0.049      329.300       -4.052      857.962
02/02/2014  05:22:00      -39.476       -1.818        0.298        9.331       13.325       10.102       87.075      177.562      102.051        0.096        0.018       39.517        6.378        0.026      329.307       -4.042      857.955
02/02/2014  05:23:00      -38.283      -15.487       -5.629        7.596        6.250        6.331       57.704       39.060       40.081        0.094        0.007       41.297        4.283        0.011      329.294       -4.062      857.949
02/02/2014  05:24:00      -41.452      -19.125       -4.966       11.268       12.095        6.747      126.968      146.290       45.526        0.121        0.016       45.651        4.685        0.011      329.341       -3.987      857.937
02/02/2014  05:25:00      -49.541      -18.297       -2.781       16.039       11.715       12.202      257.242      137.251      148.889        0.167        0.027       52.812       10.315        0.038      329.333       -3.999      857.927
02/02/2014  05:26:00      -59.422      -26.990      -14.753        9.581       13.703        7.232       91.803      187.762       52.307        0.240        0.017       65.264        4.486        0.005      329.240       -4.150      857.918
02/02/2014  05:27:00      -52.853      -35.178       -6.657       18.090       12.915       11.702      327.247      166.788      136.931        0.235        0.032       63.489        7.297        0.013      329.265       -4.110      857.914
02/02/2014  05:28:00      -72.071      -24.429       -5.371       16.641       14.631       10.562      276.915      214.057      111.548        0.321        0.030       76.098        5.720        0.006      329.248       -4.136      857.909
02/02/2014  05:29:00      -69.803      -31.375       -9.504       10.726       10.197        7.529      115.057      103.988       56.685        0.311        0.014       76.530        4.134        0.003      329.246       -4.138      857.908
02/02/2014  05:30:00      -62.812      -28.048       -7.927       19.135       14.318       10.626      366.156      204.999      112.922        0.274        0.034       68.790        6.818        0.010      329.297       -4.058      857.910
02/02/2014  05:31:00      -64.500      -23.426      -10.324       19.379       10.424        7.349      375.530      108.669       54.013        0.268        0.027       68.622        7.297        0.011      329.211       -4.196      857.907
02/02/2014  05:32:00      -26.839      -35.166       -4.508       32.342       15.574       10.653     1046.032      242.554      113.492        0.169        0.070       44.238       13.139        0.088      329.391       -3.903      857.903
02/02/2014  05:33:00        3.914      -20.777       11.588       17.993       20.349       16.380      323.762      414.069      268.306        0.079        0.050       21.142       12.806        0.367      329.396       -3.895      857.900
02/02/2014  05:34:00      -15.404      -20.826       12.169       12.429       10.832       12.442      154.489      117.342      154.803        0.062        0.021       25.904        7.660        0.087      329.365       -3.946      857.895
02/02/2014  05:35:00      -43.207      -12.175        0.992       22.871       12.985       13.723      523.068      168.617      188.313        0.145        0.044       44.889       10.786        0.058      329.311       -4.035      857.885
02/02/2014  05:36:00      -60.886      -20.258       -2.522       25.402       24.729       14.627      645.283      611.531      213.962        0.280        0.074       64.168       10.390        0.026      329.219       -4.186      857.869
02/02/2014  05:37:00      -31.233      -29.980        8.839       27.493       21.351       15.347      755.881      455.846      235.523        0.170        0.072       43.293        9.569        0.049      329.258       -4.121      857.856
02/02/2014  05:38:00      -42.184      -16.828       -4.953       20.363        9.719       11.236      414.655       94.455      126.255        0.136        0.032       45.417       11.359        0.063      329.247       -4.140      857.839
02/02/2014  05:39:00      -41.167       -4.181        6.663       12.642       10.371        9.402      159.821      107.555       88.407        0.106        0.018       41.379        2.247        0.003      329.174       -4.259      857.829
02/02/2014  05:40:00      -23.899       -3.070        2.437       13.230        4.691        7.243      175.031       22.009       52.458        0.042        0.012       24.095        6.853        0.081      329.193       -4.227      857.818
02/02/2014  05:41:00        4.702        7.727        6.930       11.334        6.092        8.516      128.463       37.109       72.515        0.018        0.012        9.045        6.817        0.568      329.185       -4.240      857.806
02/02/2014  05:42:00       12.856       21.794       -3.705       10.359       16.521        7.644      107.316      272.958       58.435        0.055        0.022       25.303        6.857        0.073      329.197       -4.219      857.799
02/02/2014  05:43:00       17.263       23.658       -1.460       13.181       13.656       10.570      173.730      186.479      111.719        0.067        0.024       29.287        9.067        0.096      329.198       -4.220      857.798
02/02/2014  05:44:00       10.569       28.252       -3.134       10.631        8.958        9.127      113.018       80.249       83.301        0.060        0.014       30.164        5.606        0.035      329.155       -4.290      857.795
02/02/2014  05:45:00       -2.179       19.336       -2.641        6.490        9.996        4.170       42.124       99.918       17.386        0.027        0.008       19.458        3.835        0.039      329.145       -4.306      857.800
02/02/2014  05:46:00       -6.647        5.039        3.115        7.631        4.858        7.048       58.234       23.604       49.674        0.011        0.007        8.341        4.378        0.276      329.171       -4.264      857.800
02/02/2014  05:47:00      -28.600       20.217        0.876       11.169        9.188        9.091      124.756       84.412       82.654        0.076        0.015       35.024        5.235        0.022      329.164       -4.275      857.795
02/02/2014  05:48:00      -16.554        9.111        3.161        8.018        9.100        7.181       64.292       82.808       51.561        0.028        0.010       18.896        5.947        0.099      329.205       -4.207      857.787
02/02/2014  05:49:00       -1.426        4.993       11.830        7.708        5.679        5.008       59.416       32.251       25.075        0.014        0.006        5.193        4.818        0.861      329.163       -4.276      857.780
02/02/2014  05:50:00        5.187        9.131        6.583        5.485        9.128        5.857       30.085       83.318       34.309        0.015        0.007       10.502        3.814        0.132      329.140       -4.316      857.770
02/02/2014  05:51:00        5.607       35.552        0.116        6.091        9.817        6.348       37.100       96.370       40.295        0.073        0.009       35.991        4.778        0.018      329.218       -4.186      857.754
02/02/2014  05:52:00       11.402       28.183        2.711        6.479        5.897        6.424       41.979       34.770       41.265        0.052        0.006       30.402        1.319        0.002      329.279       -4.086      857.745
02/02/2014  05:53:00       19.882       38.927       -3.427        6.906        6.996        5.500       47.697       48.942       30.255        0.102        0.006       43.711        3.374        0.006      329.211       -4.196      857.748
02/02/2014  05:54:00       38.716       33.881      -10.988       10.720       10.893        9.063      114.919      118.654       82.147        0.154        0.016       51.448        5.814        0.013      329.144       -4.308      857.745
02/02/2014  05:55:00       23.489       23.724        1.024       11.616       15.307       17.166      134.922      234.310      294.682        0.089        0.033       33.385        8.106        0.059      329.165       -4.275      857.742
02/02/2014  05:56:00       19.074       39.439       -7.305        8.447        7.190        5.714       71.359       51.701       32.645        0.106        0.008       43.809        3.447        0.006      329.133       -4.327      857.738
02/02/2014  05:57:00       26.289       21.615       -9.092       10.865       13.274        9.262      118.042      176.191       85.781        0.081        0.019       34.034        7.863        0.053      329.127       -4.336      857.737
02/02/2014  05:58:00       26.639       30.282       -0.112        7.949        7.952       12.885       63.181       63.227      166.019        0.096        0.015       40.332        6.347        0.025      329.111       -4.359      857.731
02/02/2014  05:59:00       28.891       36.033        7.485        8.572       10.730       12.901       73.473      115.142      166.433        0.127        0.018       46.185        8.838        0.037      329.099       -4.380      857.729
02/02/2014  06:00:00       37.775       32.273       12.437        9.621        7.083        7.545       92.562       50.176       56.923        0.141        0.010       49.684        3.476        0.005      329.118       -4.349      857.717
02/02/2014  06:01:00       31.130       24.217       15.150       13.897       10.732        6.744      193.115      115.183       45.486        0.107        0.018       39.441        5.364        0.018      329.170       -4.266      857.709
02/02/2014  06:02:00       39.882       27.791        5.090        8.337        7.617        7.482       69.510       58.017       55.977        0.129        0.009       48.610        5.918        0.015      329.223       -4.179      857.706
02/02/2014  06:03:00       38.107       23.374       19.506       10.863        8.923        7.626      118.000       79.621       58.153        0.132        0.013       44.705        4.092        0.008      329.248       -4.137      857.702
02/02/2014  06:04:00       35.014       24.794       26.040       16.851       12.067        8.171      283.968      145.615       66.759        0.151        0.025       42.904        5.488        0.016      329.297       -4.056      857.697
02/02/2014  06:05:00       38.050       30.044       16.599       20.767       14.247       10.942      431.265      202.975      119.722        0.169        0.038       48.481        5.625        0.013      329.327       -4.009      857.696
02/02/2014  06:06:00       14.944       21.430       20.578       16.620       10.916       12.151      276.237      119.163      147.637        0.082        0.027       26.126       10.973        0.176      329.342       -3.983      857.694
02/02/2014  06:07:00       28.019       26.089       26.825       14.300       13.554       12.642      204.489      183.705      159.816        0.137        0.027       38.284        5.018        0.017      329.347       -3.976      857.698
02/02/2014  06:08:00       42.495       38.436       30.239       13.328       13.870       11.178      177.643      192.369      124.950        0.235        0.025       57.299        8.250        0.021      329.353       -3.967      857.698
02/02/2014  06:09:00       35.595       29.802       28.003       15.323       17.103       14.956      234.787      292.499      223.684        0.185        0.038       46.424        9.355        0.041      329.367       -3.942      857.696
02/02/2014  06:10:00       23.910       25.953       24.190       13.583       12.294       12.295      184.490      151.144      151.176        0.116        0.024       35.288        6.891        0.038      329.369       -3.940      857.698
02/02/2014  06:11:00       10.850       14.852       27.554       19.539       18.440       16.826      381.759      340.024      283.124        0.105        0.050       18.393        9.596        0.272      329.398       -3.893      857.698
02/02/2014  06:12:00       -0.272       -4.913       31.684       12.940       19.503       11.532      167.446      380.378      132.982        0.085        0.034        4.921        6.317        1.648      329.507       -3.713      857.702
02/02/2014  06:13:00        2.049       31.528       51.143       16.733       18.932       12.122      279.997      358.419      146.931        0.220        0.039       31.595       11.368        0.129      329.425       -3.848      857.708
02/02/2014  06:14:00       -8.526       24.606       49.238       11.209       20.847       13.924      125.646      434.591      193.889        0.193        0.038       26.042       14.176        0.296      329.422       -3.853      857.724
02/02/2014  06:15:00      -15.241       -2.952        9.529       17.136       13.636       12.514      293.632      185.933      156.606        0.048        0.032       15.524        8.454        0.297      329.424       -3.852      857.730
02/02/2014  06:16:00       19.212      -19.422       16.395       26.087       16.341       18.982      680.554      267.013      360.301        0.116        0.065       27.319       11.191        0.168      329.523       -3.688      857.727
02/02/2014  06:17:00       22.841       14.180       19.409       20.230       14.260       16.861      409.263      203.340      284.298        0.100        0.045       26.885       11.932        0.197      329.476       -3.764      857.712
02/02/2014  06:18:00       26.608       18.535        7.450       14.363       14.297       19.556      206.285      204.395      382.429        0.095        0.040       32.427       11.016        0.115      329.497       -3.729      857.696
02/02/2014  06:19:00       42.503       35.376       18.054       29.419       16.891       20.089      865.468      285.323      403.577        0.247        0.078       55.299       15.593        0.080      329.443       -3.819      857.687
02/02/2014  06:20:00       56.444       47.091       21.528       21.086       18.260       28.027      444.601      333.415      785.497        0.371        0.078       73.508       15.058        0.042      329.335       -3.995      857.686
02/02/2014  06:21:00       39.299       32.447       25.771       26.988       19.307       14.293      728.338      372.762      204.280        0.228        0.065       50.963        9.457        0.034      329.351       -3.968      857.685
02/02/2014  06:22:00       78.400       41.437       21.142       17.893       17.746       20.033      320.149      314.926      401.303        0.467        0.052       88.677       13.076        0.022      329.361       -3.953      857.672
02/02/2014  06:23:00       53.391       63.254       21.893       20.165       14.032       15.334      406.615      196.896      235.139        0.408        0.042       82.775        6.759        0.007      329.359       -3.957      857.669
02/02/2014  06:24:00       68.295       52.337       18.409       17.677       12.907       14.538      312.492      166.588      211.355        0.422        0.035       86.042        9.127        0.011      329.315       -4.027      857.674
02/02/2014  06:25:00       73.994       57.737       29.068       21.601       14.768       17.485      466.589      218.092      305.712        0.532        0.050       93.855        8.980        0.009      329.312       -4.032      857.679
02/02/2014  06:26:00       41.246       35.127       13.085       13.738       10.953       15.966      188.720      119.969      254.897        0.183        0.028       54.177        9.200        0.029      329.299       -4.056      857.683
02/02/2014  06:27:00       45.197       46.575       11.939       17.338       19.931       20.239      300.591      397.242      409.611        0.273        0.055       64.900       15.214        0.055      329.298       -4.054      857.678
02/02/2014  06:28:00       31.476       54.688       -2.039       22.090       14.521       13.790      487.984      210.862      190.163        0.244        0.044       63.099       12.220        0.038      329.314       -4.030      857.663
02/02/2014  06:29:00       69.492       71.571       12.723       27.530       26.368       19.215      757.919      695.275      369.197        0.597        0.091       99.757       19.488        0.038      329.314       -4.030      857.644
02/02/2014  06:30:00       76.641       34.121        3.984       16.331       28.133       14.500      266.709      791.450      210.261        0.416        0.063       83.893        7.751        0.009      329.320       -4.019      857.643
02/02/2014  06:31:00       47.006       17.685       -3.351       17.112       23.144       18.807      292.806      535.654      353.702        0.186        0.059       50.223        8.946        0.032      329.335       -3.998      857.646
02/02/2014  06:32:00       38.546       34.585       -2.461       10.980       14.955       11.666      120.556      223.648      136.086        0.158        0.024       51.787        5.651        0.012      329.337       -3.993      857.650
02/02/2014  06:33:00       27.388       22.900        3.381       13.606       12.484       13.539      185.131      155.859      183.305        0.091        0.026       35.700        5.197        0.021      329.375       -3.931      857.650
02/02/2014  06:34:00       34.369       28.890       -7.660       15.377       14.472        9.399      236.459      209.430       88.343        0.130        0.027       44.899        8.973        0.040      329.310       -4.036      857.645
02/02/2014  06:35:00       15.782       22.222      -10.411        9.929        8.113       10.591       98.592       65.817      112.162        0.056        0.014       27.256        6.484        0.057      329.343       -3.983      857.638
02/02/2014  06:36:00       36.636       34.078       -2.850       12.719       12.156        9.503      161.781      147.770       90.310        0.146        0.020       50.035        7.288        0.021      329.334       -3.997      857.619
02/02/2014  06:37:00       31.070       26.791        0.636        6.261        9.194       10.067       39.198       84.531      101.346        0.095        0.011       41.026        5.054        0.015      329.327       -4.008      857.616
02/02/2014  06:38:00       27.626       33.006       12.067       12.144       12.545       10.505      147.474      157.375      110.361        0.121        0.021       43.041        6.476        0.023      329.332       -4.001      857.625
02/02/2014  06:39:00       30.872       28.439        2.931        9.027        7.803        9.643       81.494       60.882       92.985        0.100        0.012       41.975        4.017        0.009      329.304       -4.046      857.647
02/02/2014  06:40:00       27.533       20.564       24.669       16.382       10.832       10.341      268.363      117.334      106.941        0.114        0.025       34.365        6.822        0.039      329.411       -3.873      857.658
02/02/2014  06:41:00        1.747        4.032       26.784       19.543       18.520       11.954      381.914      343.005      142.900        0.080        0.043        4.395        8.196        3.478      329.515       -3.700      857.664
02/02/2014  06:42:00       -2.749       -2.404       22.502        7.247       17.019        8.718       52.519      289.655       76.008        0.047        0.021        3.651        4.497        1.517      329.520       -3.693      857.665
02/02/2014  06:43:00        9.441        4.235       12.375       12.890       23.575       12.152      166.160      555.766      147.680        0.056        0.043       10.347       11.385        1.211      329.508       -3.714      857.655
02/02/2014  06:44:00        8.620       26.777        0.484       16.597        9.950        9.405      275.448       99.008       88.451        0.063        0.023       28.130        9.373        0.111      329.363       -3.950      857.647
02/02/2014  06:45:00       16.009       24.882       -5.782        9.592        8.156        6.149       92.007       66.519       37.815        0.055        0.010       29.587        4.120        0.019      329.365       -3.949      857.651
02/02/2014  06:46:00      -10.867        3.853       -3.413        9.435        6.556        5.878       89.026       42.977       34.555        0.016        0.008       11.530        3.321        0.083      329.363       -3.951      857.658
02/02/2014  06:47:00        6.243        6.505        3.983        9.488        6.857        6.470       90.030       47.023       41.864        0.014        0.009        9.016        4.366        0.234      329.399       -3.892      857.663
02/02/2014  06:48:00       32.147       27.661       13.510       11.385        9.763        9.504      129.618       95.323       90.332        0.115        0.016       42.409        4.427        0.011      329.329       -4.005      857.666
02/02/2014  06:49:00       39.142       33.774        0.590        9.693       10.065       11.120       93.958      101.299      123.657        0.150        0.016       51.699        8.397        0.026      329.308       -4.038      857.658
02/02/2014  06:50:00       33.543       30.971        8.563       12.541       13.830       11.901      157.279      191.264      141.641        0.132        0.025       45.654        7.599        0.028      329.306       -4.043      857.649
02/02/2014  06:51:00       45.757       28.227        6.858       13.434        7.497        8.760      180.477       56.201       76.730        0.163        0.016       53.763        5.147        0.009      329.270       -4.100      857.628
02/02/2014  06:52:00       55.137       34.008        5.969       12.851       13.879       11.595      165.157      192.625      134.447        0.236        0.025       64.781        9.208        0.020      329.281       -4.083      857.610
02/02/2014  06:53:00       46.726       35.214        2.713       11.304       10.277       10.768      127.773      105.608      115.957        0.189        0.017       58.509        4.810        0.007      329.278       -4.087      857.587
02/02/2014  06:54:00       23.353       18.020        4.797       11.965       14.470       11.298      143.159      209.394      127.655        0.069        0.024       29.498        8.070        0.075      329.304       -4.045      857.578
02/02/2014  06:55:00       12.105       12.518       -0.599        9.669        8.871        7.187       93.491       78.696       51.651        0.026        0.011       17.413        6.217        0.127      329.259       -4.116      857.580
02/02/2014  06:56:00       -1.826       14.966        1.225        7.954       10.934        7.510       63.268      119.558       56.393        0.023        0.012       15.077        6.349        0.177      329.344       -3.981      857.584
02/02/2014  06:57:00      -17.367       26.020       -2.817       11.010       12.328        7.672      121.226      151.986       58.860        0.066        0.017       31.284        3.704        0.014      329.296       -4.059      857.590
02/02/2014  06:58:00      -11.725        7.717        1.957       12.296        9.538        7.877      151.202       90.980       62.041        0.025        0.015       14.036        9.505        0.459      329.326       -4.010      857.594
02/02/2014  06:59:00       -1.824        8.872        4.302        5.243        7.251        7.572       27.488       52.584       57.338        0.012        0.007        9.057        5.695        0.395      329.304       -4.044      857.592
02/02/2014  07:00:00       -9.781       13.639       -1.691        6.219        7.328        5.296       38.678       53.701       28.050        0.020        0.006       16.784        3.539        0.044      329.337       -3.992      857.596
02/02/2014  07:01:00      -12.808       12.134       -0.054        9.346       13.526       11.669       87.346      182.945      136.159        0.036        0.020       17.643        9.497        0.290      329.404       -3.884      857.603
02/02/2014  07:02:00       -0.860       19.606       -1.210       10.532        9.387        6.368      110.925       88.119       40.548        0.031        0.012       19.624        4.764        0.059      329.391       -3.903      857.615
02/02/2014  07:03:00        6.696        5.488       10.221        6.524        5.400        6.011       42.558       29.156       36.128        0.014        0.005        8.657        3.477        0.161      329.395       -3.898      857.630
02/02/2014  07:04:00       19.780       21.282        5.596        8.507        9.963        7.945       72.362       99.261       63.118        0.056        0.012       29.055        6.460        0.049      329.409       -3.877      857.647
02/02/2014  07:05:00       25.466       24.282        0.232        7.892        5.065        6.069       62.277       25.654       36.832        0.068        0.006       35.187        3.564        0.010      329.376       -3.932      857.663
02/02/2014  07:06:00       14.249       30.747        0.575        8.938        4.875        5.419       79.888       23.761       29.371        0.064        0.007       33.888        3.773        0.012      329.359       -3.958      857.678
02/02/2014  07:07:00       -4.709       15.986        0.578        5.852        4.498        4.623       34.248       20.229       21.373        0.018        0.004       16.665        3.060        0.034      329.370       -3.942      857.688
02/02/2014  07:08:00       -5.829        8.288        3.383        9.132        7.817        6.042       83.399       61.101       36.504        0.015        0.009       10.132        5.014        0.245      329.383       -3.919      857.701
02/02/2014  07:09:00      -37.472       -5.351       -1.371       14.187       12.043        9.490      201.273      145.042       90.052        0.094        0.022       37.852        8.313        0.048      329.458       -3.794      857.704
02/02/2014  07:10:00      -30.473      -13.904        4.393       12.365       17.065        8.919      152.882      291.216       79.549        0.083        0.026       33.496        8.343        0.062      329.529       -3.679      857.714
02/02/2014  07:11:00      -35.261      -24.086        3.825       24.246       13.691       13.881      587.891      187.432      192.672        0.140        0.048       42.702       13.952        0.107      329.491       -3.740      857.714
02/02/2014  07:12:00      -41.586      -35.940        5.561       29.806       17.269       20.339      888.369      298.234      413.694        0.233        0.080       54.965       18.009        0.107      329.536       -3.667      857.709
02/02/2014  07:13:00      -23.817      -36.622       -2.248       30.028       27.761       11.903      901.665      770.676      141.691        0.186        0.091       43.685        9.534        0.048      329.590       -3.578      857.698
02/02/2014  07:14:00      -22.340        8.655        7.847       19.292       25.139       16.145      372.170      631.954      260.664        0.095        0.063       23.958        7.725        0.104      329.532       -3.673      857.682
02/02/2014  07:15:00        5.898        5.054       18.517       19.538       10.522       15.630      381.731      110.710      244.291        0.057        0.037        7.767        7.250        0.871      329.531       -3.675      857.676
02/02/2014  07:16:00      -36.708       25.232       -5.812       27.190       19.066       14.963      739.282      363.502      223.886        0.167        0.066       44.544       10.179        0.052      329.495       -3.733      857.679
02/02/2014  07:17:00      -88.521      -21.711        0.959       34.246       25.967       20.240     1172.787      674.279      409.646        0.528        0.113       91.144       21.304        0.055      329.517       -3.698      857.686
02/02/2014  07:18:00      -60.809      -47.055       -1.760       39.322       29.355       23.673     1546.236      861.698      560.403        0.444        0.148       76.888       18.152        0.056      329.559       -3.629      857.695
02/02/2014  07:19:00      -82.118      -87.600       -6.485       23.308       29.483       15.699      543.284      869.251      246.471        0.806        0.083      120.071       13.851        0.013      329.379       -3.922      857.716
02/02/2014  07:20:00      -67.013      -67.315        2.223       36.845       27.747       25.138     1357.525      769.888      631.924        0.589        0.138       94.985       26.249        0.076      329.447       -3.812      857.725
02/02/2014  07:21:00      -68.155      -10.740        0.152       32.133       20.657       18.234     1032.507      426.700      332.476        0.328        0.090       68.996       19.313        0.078      329.467       -3.778      857.729
02/02/2014  07:22:00      -61.666       -4.020       -4.029       22.542       19.357       12.915      508.155      374.675      166.799        0.244        0.052       61.797        9.726        0.025      329.480       -3.757      857.722
02/02/2014  07:23:00      -56.875      -27.040      -10.225       22.131       19.225       15.248      489.764      369.607      232.507        0.258        0.055       62.976       10.534        0.028      329.494       -3.734      857.718
02/02/2014  07:24:00      -34.930        3.311       -1.818       22.717       26.956       14.277      516.041      726.635      203.846        0.134        0.072       35.086        8.647        0.061      329.554       -3.638      857.712
02/02/2014  07:25:00      -81.841       37.141       -9.359       22.224       18.472       14.008      493.902      341.211      196.212        0.460        0.052       89.874       10.034        0.012      329.429       -3.841      857.709
02/02/2014  07:26:00     -101.596       25.562       -8.872       31.521       18.989       12.543      993.590      360.567      157.327        0.628        0.076      104.763       13.857        0.017      329.380       -3.922      857.708
02/02/2014  07:27:00     -104.282       -1.582       -5.801       20.698       16.649       13.854      428.391      277.195      191.939        0.590        0.045      104.294       12.322        0.014      329.449       -3.808      857.708
02/02/2014  07:28:00      -72.353       -7.648      -10.446       31.650       16.267       10.613     1001.740      264.620      112.645        0.339        0.069       72.756       10.881        0.022      329.408       -3.878      857.708
02/02/2014  07:29:00      -46.309       -2.581       -3.033       20.198       14.724       12.797      407.951      216.790      163.772        0.147        0.039       46.380       11.249        0.059      329.451       -3.805      857.705
02/02/2014  07:30:00      -65.148      -24.195      -11.538       11.776       10.866        9.545      138.685      118.061       91.115        0.266        0.017       69.496        3.913        0.003      329.458       -3.795      857.703
02/02/2014  07:31:00      -66.744      -12.049      -12.878       16.543       12.712       10.664      273.668      161.597      113.727        0.266        0.027       67.823        4.980        0.005      329.432       -3.837      857.699
02/02/2014  07:32:00      -63.282       -1.604       -9.754       13.021       15.319        7.964      169.535      234.673       63.431        0.228        0.023       63.302        4.940        0.006      329.435       -3.829      857.692
02/02/2014  07:33:00      -84.046      -46.875      -13.050       13.284       17.471        8.508      176.457      305.226       72.384        0.499        0.028       96.234        4.829        0.003      329.472       -3.772      857.683
02/02/2014  07:34:00      -72.584      -35.997       -8.137       18.941       20.218       11.400      358.769      408.751      129.953        0.376        0.045       81.019        6.987        0.007      329.476       -3.761      857.677
02/02/2014  07:35:00      -64.479      -18.610      -10.960       15.545       11.956        9.572      241.634      142.949       91.617        0.255        0.024       67.110        6.024        0.008      329.499       -3.726      857.671
02/02/2014  07:36:00      -51.528      -12.056       -2.879       12.643       12.811       12.643      159.834      164.119      159.853        0.165        0.024       52.920        8.168        0.024      329.547       -3.648      857.657
02/02/2014  07:37:00      -59.217       -9.072      -12.036       24.063       21.449       12.663      579.041      460.069      160.345        0.247        0.060       59.908       12.517        0.044      329.596       -3.571      857.642
02/02/2014  07:38:00      -41.379      -17.423       -9.690       13.274       16.473        8.937      176.210      271.365       79.865        0.132        0.026       44.897        5.770        0.017      329.651       -3.479      857.627
02/02/2014  07:39:00      -67.697       18.834      -10.471       17.280       15.894       10.510      298.603      252.619      110.465        0.285        0.033       70.268       10.605        0.023      329.645       -3.489      857.627
02/02/2014  07:40:00      -49.167       27.768       -3.836       16.625        9.762        8.617      276.395       95.287       74.248        0.182        0.022       56.466        6.784        0.014      329.613       -3.539      857.622
02/02/2014  07:41:00      -39.704       17.598        0.153       11.863        7.405        8.075      140.720       54.834       65.204        0.107        0.013       43.429        3.886        0.008      329.675       -3.438      857.634
02/02/2014  07:42:00      -28.920       17.909        7.180       10.217       10.373        6.810      104.386      107.609       46.370        0.073        0.013       34.017        6.040        0.032      329.683       -3.425      857.649
02/02/2014  07:43:00        7.717        8.567       11.936       10.607        8.969       11.511      112.510       80.438      132.504        0.030        0.016       11.531        7.482        0.421      329.779       -3.271      857.665
02/02/2014  07:44:00        1.069       27.359       12.784        9.645       12.643       14.060       93.028      159.844      197.688        0.068        0.023       27.380        9.073        0.110      329.792       -3.247      857.676
02/02/2014  07:45:00       10.926       36.585       50.241       23.830       25.273       14.078      567.869      638.700      198.201        0.269        0.070       38.182       10.405        0.074      329.787       -3.255      857.678
02/02/2014  07:46:00       18.802       43.360       57.927       25.549       29.243       13.684      652.753      855.150      187.261        0.364        0.085       47.261        5.579        0.014      329.715       -3.373      857.678
02/02/2014  07:47:00        6.650       56.922       68.639       19.026       31.865       15.946      362.008     1015.351      254.268        0.481        0.082       57.310       13.922        0.059      329.670       -3.448      857.679
02/02/2014  07:48:00       12.495       58.013       78.506       29.864       30.531       23.242      891.859      932.163      540.172        0.602        0.118       59.343       22.832        0.148      329.631       -3.511      857.679
02/02/2014  07:49:00       48.271       61.950       57.547       30.916       28.364       24.144      955.828      804.530      582.944        0.591        0.117       78.535       16.716        0.045      329.607       -3.550      857.682
02/02/2014  07:50:00       30.604       45.242       53.366       34.468       29.471       16.615     1188.076      868.516      276.062        0.408        0.117       54.621       13.445        0.061      329.691       -3.413      857.701
02/02/2014  07:51:00        2.498       -4.769       36.431       28.224       24.147       19.956      796.597      583.087      398.243        0.157        0.089        5.384       13.714        6.488      329.798       -3.239      857.728
02/02/2014  07:52:00       45.358      -91.561       -0.510       32.845       48.512       30.108     1078.765     2353.445      906.521        0.739        0.217      102.180       27.678        0.073      329.685       -3.423      857.758
02/02/2014  07:53:00       64.495      -85.700       -7.642       30.531       33.101       20.375      932.150     1095.686      415.153        0.700        0.122      107.257       15.883        0.022      329.678       -3.434      857.794
02/02/2014  07:54:00       -6.820      -43.171       -9.060       26.692       20.277       23.122      712.450      411.152      534.617        0.183        0.083       43.707       10.856        0.062      329.957       -2.977      857.827
02/02/2014  07:55:00      -29.814        3.895       11.694       25.315       20.523       13.045      640.872      421.180      170.177        0.114        0.062       30.067       12.216        0.165      329.942       -3.002      857.856
02/02/2014  07:56:00      -55.535      -23.482        7.608       22.846       23.522       16.487      521.932      553.303      271.810        0.252        0.067       60.296       10.634        0.031      329.946       -2.995      857.875
02/02/2014  07:57:00      -43.540      -31.116       11.147       41.002       24.821       25.929     1681.129      616.106      672.336        0.298        0.148       53.516       21.589        0.163      329.986       -2.931      857.885
02/02/2014  07:58:00      -38.281      -20.480       15.074       45.512       30.248       25.177     2071.355      914.952      633.902        0.287        0.181       43.415       21.216        0.239      329.941       -3.004      857.876
02/02/2014  07:59:00      -18.815      -11.434        8.288       30.064       30.207       23.064      903.824      912.447      531.969        0.145        0.117       22.017       16.124        0.536      329.965       -2.965      857.861
02/02/2014  08:00:00      -87.879      -37.606        0.029       38.087       33.634       21.723     1450.617     1131.251      471.871        0.609        0.153       95.587       19.862        0.043      329.850       -3.153      857.842
02/02/2014  08:01:00     -100.659      -72.824       -1.523       38.728       33.216       23.045     1499.853     1103.334      531.085        0.929        0.157      124.240       22.346        0.032      329.865       -3.129      857.827
02/02/2014  08:02:00      -89.836     -119.344       -7.539       32.148       44.275       17.492     1033.518     1960.247      305.974        1.283        0.165      149.376       18.504        0.015      329.820       -3.203      857.807
02/02/2014  08:03:00      -75.892      -66.257       -4.610       32.718       34.444       23.699     1070.449     1186.420      561.619        0.649        0.141      100.745       21.475        0.045      329.870       -3.121      857.787
02/02/2014  08:04:00      -68.494      -74.480       -1.837       23.306       24.121       14.858      543.189      581.804      220.749        0.579        0.067      101.186       10.049        0.010      329.888       -3.092      857.776
02/02/2014  08:05:00      -42.332      -53.196       -0.480       22.512       31.465       11.289      506.786      990.032      127.436        0.312        0.081       67.984        8.789        0.017      329.914       -3.049      857.766
02/02/2014  08:06:00       -9.509      -52.614        2.267       13.672       19.871       17.760      186.918      394.847      315.415        0.188        0.045       53.467        7.030        0.017      330.029       -2.859      857.761
02/02/2014  08:07:00      -41.176      -15.588       -3.995       19.347       23.832       12.504      374.290      567.954      156.346        0.153        0.055       44.027        8.810        0.040      329.977       -2.946      857.758
02/02/2014  08:08:00      -14.244        1.546        2.817       12.303        7.076       10.367      151.371       50.074      107.470        0.026        0.015       14.328        7.368        0.264      329.987       -2.929      857.767
02/02/2014  08:09:00        8.791       22.359       16.210       10.264       11.991       10.846      105.356      143.793      117.627        0.060        0.018       24.025        8.142        0.115      329.980       -2.940      857.784
02/02/2014  08:10:00       17.257       22.183       -3.379       14.527       11.562       14.157      211.020      133.681      200.430        0.067        0.027       28.105        5.425        0.037      329.916       -3.045      857.801
02/02/2014  08:11:00       14.576       28.555       45.144       21.970       26.602       18.751      482.674      707.650      351.597        0.230        0.077       32.060       16.527        0.266      330.038       -2.846      857.810
02/02/2014  08:12:00       49.257       70.844       61.621       29.737       18.605       18.726      884.302      346.135      350.665        0.641        0.079       86.285       15.272        0.031      329.818       -3.206      857.810
02/02/2014  08:13:00       79.060       48.947       33.018       27.398       20.825       23.252      750.642      433.688      540.662        0.573        0.086       92.986       13.714        0.022      329.821       -3.201      857.808
02/02/2014  08:14:00       79.243       41.534       18.597       24.656       18.016       24.197      607.907      324.584      585.483        0.493        0.076       89.468       18.812        0.044      329.762       -3.294      857.803
02/02/2014  08:15:00       79.590       47.306       -4.037       21.677       19.580       18.278      469.876      383.378      334.088        0.489        0.059       92.588       13.625        0.022      329.774       -3.276      857.797
02/02/2014  08:16:00      106.687       43.596        5.066       31.264       31.637       23.820      977.465     1000.918      567.374        0.793        0.127      115.251       16.441        0.020      329.774       -3.275      857.777
02/02/2014  08:17:00      131.725       65.942        7.514       31.845       21.346       28.618     1014.090      455.643      818.992        1.202        0.114      147.309       18.649        0.016      329.707       -3.387      857.754
02/02/2014  08:18:00      103.391       39.223       20.485       47.614       36.102       34.958     2267.051     1303.375     1222.069        0.872        0.240      110.581       30.900        0.078      329.802       -3.230      857.723
02/02/2014  08:19:00       96.761       67.341       10.491       33.370       29.035       28.904     1113.579      843.054      835.469        0.840        0.140      117.887       20.933        0.032      329.818       -3.205      857.721
02/02/2014  08:20:00      128.745       75.142       20.218       32.298       26.519       33.867     1043.161      703.244     1146.946        1.276        0.145      149.069       22.429        0.023      329.753       -3.312      857.738
02/02/2014  08:21:00       92.310       71.732       20.367       25.510       24.924       28.893      650.776      621.206      834.788        0.809        0.105      116.904        5.701        0.002      329.785       -3.258      857.764
02/02/2014  08:22:00       10.663       14.549       39.558       21.982       26.681       26.180      483.206      711.864      685.401        0.189        0.094       18.039       21.283        1.392      330.011       -2.890      857.804
02/02/2014  08:23:00        0.796       44.243       60.560       20.497       49.635       32.156      420.143     2463.602     1034.009        0.477        0.196       44.250       32.226        0.530      330.090       -2.760      857.826
02/02/2014  08:24:00       54.552       41.782       33.361       43.706       33.429       33.511     1910.256     1117.495     1123.014        0.499        0.208       68.714       19.363        0.079      330.033       -2.853      857.835
02/02/2014  08:25:00       28.118       64.493       68.319       36.860       42.057       23.601     1358.650     1768.804      557.023        0.665        0.184       70.356       19.678        0.078      330.061       -2.808      857.829
02/02/2014  08:26:00       57.988       90.487       93.590       47.346       42.514       36.955     2241.617     1807.421     1365.685        1.286        0.271      107.473       31.445        0.086      330.040       -2.841      857.810
02/02/2014  08:27:00       82.417       72.870       76.257       57.592       52.055       40.813     3316.794     2709.744     1665.740        1.280        0.385      110.012       35.909        0.107      329.940       -3.006      857.788
02/02/2014  08:28:00      130.478       89.472       31.998       65.929       58.068       62.639     4346.669     3371.948     3923.655        1.885        0.582      158.208       42.761        0.073      329.785       -3.260      857.778
02/02/2014  08:29:00       59.948       46.834       34.130       60.203       46.494       39.307     3624.450     2161.684     1545.060        0.714        0.367       76.074       37.075        0.238      329.914       -3.047      857.785
02/02/2014  08:30:00       87.384       84.546       36.742       50.385       33.872       34.308     2538.622     1147.284     1177.020        1.050        0.243      121.590       29.249        0.058      329.941       -3.004      857.806
02/02/2014  08:31:00       83.203       68.763       54.046       57.562       28.715       29.223     3313.375      824.574      853.969        0.978        0.250      107.940       25.992        0.058      329.990       -2.924      857.827
02/02/2014  08:32:00       53.368       40.255       52.683       47.257       30.411       26.130     2233.207      924.804      682.788        0.554        0.192       66.847       20.469        0.094      330.073       -2.787      857.853
02/02/2014  08:33:00       76.978       21.108       24.893       42.806       50.244       43.371     1832.394     2524.448     1881.066        0.661        0.312       79.820       31.405        0.155      329.992       -2.921      857.881
02/02/2014  08:34:00       18.053        4.431       42.347       26.337       53.381       30.210      693.625     2849.568      912.665        0.330        0.223       18.589       30.465        2.686      330.211       -2.561      857.900
02/02/2014  08:35:00       25.141      -11.185       39.621       41.550       79.994       44.902     1726.373     6399.052     2016.165        0.623        0.507       27.517       58.437        4.510      330.167       -2.633      857.910
02/02/2014  08:36:00       33.551      -10.559       25.608       51.666       61.231       46.584     2669.335     3749.292     2170.044        0.524        0.429       35.174       47.519        1.825      330.216       -2.554      857.911
02/02/2014  08:37:00       14.827       33.257       54.934       40.057       58.591       43.496     1604.600     3432.914     1891.884        0.564        0.346       36.413       46.999        1.666      330.140       -2.678      857.905
02/02/2014  08:38:00       30.662       15.121       56.406       52.129       55.629       30.927     2717.422     3094.574      956.453        0.556        0.338       34.188       36.176        1.120      330.220       -2.547      857.881
02/02/2014  08:39:00        7.857        4.283       37.727       36.635       45.108       32.675     1342.126     2034.722     1067.668        0.297        0.222        8.949       28.609       10.220      330.293       -2.427      857.860
02/02/2014  08:40:00      102.942       75.546       45.831       80.109       49.993       39.638     6417.508     2499.264     1571.174        1.444        0.524      127.688       22.969        0.032      330.074       -2.787      857.842
02/02/2014  08:41:00       91.448       81.317       44.904       46.942       24.090       28.956     2203.592      580.335      838.436        1.031        0.181      122.373       22.875        0.035      329.869       -3.121      857.830
02/02/2014  08:42:00       87.871       87.956       58.096       35.152       40.521       43.068     1235.652     1641.917     1854.879        1.178        0.237      124.328       35.627        0.082      329.962       -2.971      857.832
02/02/2014  08:43:00       49.305       61.261       55.350       52.727       57.346       40.810     2780.129     3288.562     1665.455        0.849        0.387       78.638       29.187        0.138      330.050       -2.824      857.838
02/02/2014  08:44:00       -2.824       82.957       96.695       28.856       38.296       22.369      832.667     1466.561      500.377        0.952        0.140       83.005       18.791        0.051      330.081       -2.775      857.864
02/02/2014  08:45:00      106.933       75.041       39.962       79.970       55.024       57.539     6395.181     3027.587     3310.785        1.570        0.637      130.636       59.506        0.207      329.926       -3.030      857.873
02/02/2014  08:46:00       59.013       58.732       46.180       43.749       30.009       29.821     1913.943      900.535      889.307        0.638        0.185       83.259       24.007        0.083      329.965       -2.965      857.886
02/02/2014  08:47:00       44.049       66.210       77.417       42.537       35.910       28.197     1809.373     1289.537      795.057        0.811        0.195       79.524       25.674        0.104      330.110       -2.728      857.890
02/02/2014  08:48:00       59.837       74.097       91.285       36.937       37.743       25.463     1364.349     1424.498      648.375        1.042        0.172       95.240       21.941        0.053      329.953       -2.985      857.890
02/02/2014  08:49:00       66.014       41.023       57.355       43.420       42.004       35.638     1885.264     1764.341     1270.077        0.712        0.246       77.722       29.053        0.140      330.000       -2.907      857.898
02/02/2014  08:50:00       49.307       86.196       80.021       53.160       41.215       42.291     2825.988     1698.649     1788.488        1.129        0.316       99.302       41.990        0.179      330.040       -2.842      857.904
02/02/2014  08:51:00       67.871       86.157       67.521       35.567       29.158       39.568     1265.011      850.176     1565.599        1.013        0.184      109.679       21.586        0.039      330.003       -2.903      857.909
02/02/2014  08:52:00       39.144       57.342       44.235       33.866       34.855       34.332     1146.879     1214.855     1178.702        0.516        0.177       69.428       26.099        0.141      330.026       -2.864      857.904
02/02/2014  08:53:00       20.445        0.273       15.079       17.962       45.803       17.459      322.642     2097.923      304.822        0.168        0.136       20.447       10.937        0.286      330.085       -2.768      857.896
02/02/2014  08:54:00       29.180       -1.764        2.265       20.826       23.492       25.905      433.720      551.859      671.092        0.126        0.083       29.234        6.182        0.045      330.137       -2.683      857.890
02/02/2014  08:55:00       57.585       60.673       51.673       29.162       30.932       29.649      850.402      956.762      879.044        0.618        0.134       83.650       12.628        0.023      330.063       -2.803      857.887
02/02/2014  08:56:00       61.700       68.991       52.035       44.363       34.591       28.226     1968.101     1196.554      796.705        0.762        0.198       92.556       22.369        0.058      329.994       -2.916      857.882
02/02/2014  08:57:00       60.339       61.320       63.104       44.578       35.207       27.717     1987.162     1239.555      768.218        0.769        0.200       86.029       26.622        0.096      329.951       -2.987      857.887
02/02/2014  08:58:00       30.635       45.647       48.308       35.044       27.929       30.257     1228.075      780.027      915.509        0.414        0.146       54.974       16.290        0.088      330.042       -2.838      857.886
02/02/2014  08:59:00       76.613       45.674        9.203       21.142       26.194       22.083      446.990      686.109      487.637        0.483        0.081       89.194        8.720        0.010      329.970       -2.957      857.888
02/02/2014  09:00:00       43.075       -4.626       16.334       29.054       25.110       15.319      844.136      630.505      234.684        0.193        0.085       43.323       11.704        0.073      329.975       -2.947      857.888
02/02/2014  09:01:00       32.523       42.721        3.280       28.482       30.049       16.707      811.240      902.958      279.130        0.244        0.100       53.692       13.133        0.060      330.030       -2.859      857.881
02/02/2014  09:02:00      100.155       61.902       44.126       51.774       38.612       40.003     2680.497     1490.885     1600.275        1.079        0.289      117.741       28.010        0.057      330.071       -2.791      857.872
02/02/2014  09:03:00      121.005       80.847       45.838       32.855       30.927       34.923     1079.479      956.497     1219.586        1.327        0.163      145.528       26.737        0.034      330.020       -2.874      857.871
02/02/2014  09:04:00       78.933       59.218       38.273       36.282       25.226       34.070     1316.374      636.347     1160.749        0.716        0.156       98.677       25.229        0.065      330.025       -2.866      857.865
02/02/2014  09:05:00       18.095       40.956       65.373       28.697       29.559       15.271      823.514      873.759      233.192        0.410        0.097       44.775       10.380        0.054      330.155       -2.653      857.848
02/02/2014  09:06:00       61.924       47.947        3.607       32.233       28.612       32.313     1038.963      818.635     1044.154        0.452        0.145       78.317       19.932        0.065      330.127       -2.700      857.832
02/02/2014  09:07:00       93.521       76.177        4.265       39.974       33.211       32.825     1597.956     1103.002     1077.451        0.917        0.189      120.619       25.379        0.044      330.019       -2.876      857.823
02/02/2014  09:08:00      101.702       46.300        9.961       28.927       27.715       23.965      836.756      768.101      574.340        0.738        0.109      111.745       12.993        0.014      330.008       -2.893      857.821
02/02/2014  09:09:00       69.365       54.364       31.187       43.338       30.660       29.620     1878.178      940.064      877.346        0.622        0.185       88.130       24.990        0.080      330.069       -2.795      857.828
02/02/2014  09:10:00       12.706       33.860       39.416       38.203       27.357       26.002     1459.476      748.406      676.121        0.287        0.144       36.165       19.564        0.293      330.240       -2.515      857.835
02/02/2014  09:11:00       27.557       35.747       11.987       30.093       28.588       28.374      905.614      817.255      805.112        0.235        0.126       45.135       22.112        0.240      330.286       -2.437      857.850
02/02/2014  09:12:00       80.752       65.556       13.471       39.178       35.091       26.085     1534.929     1231.398      680.404        0.722        0.172      104.012       16.036        0.024      330.106       -2.733      857.852
02/02/2014  09:13:00       35.447       45.158        4.669       34.254       25.921       26.541     1173.324      671.878      704.406        0.293        0.127       57.409       17.154        0.089      330.179       -2.615      857.853
02/02/2014  09:14:00       87.617       68.337        0.251       44.180       27.394       23.504     1951.829      750.431      552.435        0.780        0.163      111.116       17.435        0.025      330.091       -2.759      857.855
02/02/2014  09:15:00       90.288       54.852       -5.331       31.353       24.714       25.014      982.983      610.796      625.679        0.670        0.111      105.644       19.686        0.035      329.975       -2.948      857.847
02/02/2014  09:16:00       50.412       28.997       -1.462       34.685       31.408       16.490     1203.060      986.438      271.911        0.292        0.123       58.157       14.912        0.066      330.083       -2.770      857.843
02/02/2014  09:17:00       43.018       44.491        9.150       21.911       12.421       19.897      480.073      154.281      395.899        0.247        0.052       61.887        6.992        0.013      330.179       -2.614      857.848
02/02/2014  09:18:00       27.105       38.690       -6.407       19.465       32.018       14.853      378.898     1025.132      220.626        0.195        0.081       47.239       14.424        0.093      330.249       -2.498      857.859
02/02/2014  09:19:00       36.217       78.604       -9.853       17.979       23.488       22.859      323.255      551.679      522.547        0.449        0.070       86.546       16.087        0.035      330.092       -2.757      857.861
02/02/2014  09:20:00       32.488      102.018      -14.112       27.456       35.721       13.766      753.839     1276.017      189.501        0.694        0.111      107.066        7.174        0.004      329.986       -2.932      857.848
02/02/2014  09:21:00       38.572       45.824       -2.537       44.145       38.556       22.355     1948.780     1486.564      499.764        0.376        0.197       59.897       22.512        0.141      330.051       -2.824      857.833
02/02/2014  09:22:00       67.887       63.929        0.909       32.272       31.727       29.318     1041.461     1006.585      859.516        0.580        0.145       93.250       11.684        0.016      330.105       -2.736      857.828
02/02/2014  09:23:00       42.894       39.555        6.291       39.408       25.019       19.844     1552.959      625.975      393.791        0.301        0.129       58.348       17.481        0.090      330.191       -2.593      857.818
02/02/2014  09:24:00       58.266       59.223        6.591       39.342       30.236       31.338     1547.779      914.191      982.086        0.519        0.172       83.080       21.989        0.070      330.147       -2.666      857.804
02/02/2014  09:25:00       42.231       60.548        2.599       34.117       34.838       25.766     1163.969     1213.711      663.897        0.425        0.152       73.821       22.918        0.096      330.177       -2.617      857.806
02/02/2014  09:26:00       71.622       71.044        8.406       59.146       40.031       30.857     3498.222     1602.493      952.165        0.815        0.303      100.881       18.137        0.032      330.111       -2.726      857.815
02/02/2014  09:27:00       75.905       84.457       -6.737       50.846       37.726       34.711     2585.303     1423.247     1204.867        0.908        0.261      113.554       24.354        0.046      330.061       -2.807      857.811
02/02/2014  09:28:00       26.658       57.246       -4.791       20.946       28.652       18.879      438.741      820.959      356.398        0.281        0.081       63.149       17.278        0.075      330.154       -2.655      857.816
02/02/2014  09:29:00       51.670       40.267        1.425       20.268       15.981       15.709      410.796      255.404      246.786        0.260        0.046       65.507        9.561        0.021      330.179       -2.614      857.821
02/02/2014  09:30:00       51.526       17.883       23.455       39.415       39.156       38.030     1553.541     1533.155     1446.301        0.403        0.227       54.541       32.577        0.357      330.396       -2.258      857.815
02/02/2014  09:31:00       95.260       27.837       26.429       49.723       35.149       31.035     2472.358     1235.423      963.185        0.761        0.234       99.244       23.216        0.055      330.264       -2.474      857.810
02/02/2014  09:32:00       77.052       63.529       27.040       36.827       24.581       29.249     1356.221      604.205      855.478        0.676        0.141       99.865       20.756        0.043      330.271       -2.462      857.787
02/02/2014  09:33:00       95.207       55.384       15.793       35.670       26.474       26.676     1272.370      700.856      711.604        0.753        0.134      110.144        9.917        0.008      330.230       -2.531      857.771
02/02/2014  09:34:00       88.069       68.784       13.339       28.410       29.572       30.214      807.137      874.512      912.872        0.763        0.130      111.747       18.721        0.028      330.168       -2.632      857.765
02/02/2014  09:35:00       72.300       44.958        6.717       39.681       30.255       27.134     1574.591      915.381      736.246        0.526        0.161       85.138       13.309        0.024      330.250       -2.498      857.766
02/02/2014  09:36:00       81.463       59.235        4.424       27.241       35.197       31.697      742.060     1238.842     1004.706        0.657        0.149      100.723       25.306        0.063      330.301       -2.414      857.781
02/02/2014  09:37:00       68.713       50.141       22.256       35.220       21.106       22.869     1240.442      445.469      523.008        0.497        0.110       85.062        8.554        0.010      330.268       -2.468      857.786
02/02/2014  09:38:00       90.494       66.071       16.688       29.190       17.696       26.807      852.037      313.141      718.600        0.736        0.094      112.047       16.111        0.021      330.268       -2.467      857.792
02/02/2014  09:39:00       34.922       38.181       40.177       27.953       30.039       28.020      781.390      902.351      785.133        0.338        0.123       51.743       16.224        0.098      330.444       -2.178      857.785
02/02/2014  09:40:00       71.261       49.675       23.154       31.974       27.810       33.574     1022.367      773.378     1127.197        0.550        0.146       86.866       24.458        0.079      330.346       -2.340      857.792
02/02/2014  09:41:00       76.745       54.432       16.752       19.943       17.504       20.398      397.714      306.382      416.080        0.513        0.056       94.088       11.826        0.016      330.291       -2.430      857.795
02/02/2014  09:42:00       26.705       42.430       30.884       22.198       16.500       14.700      492.731      272.258      216.090        0.222        0.049       50.134       10.674        0.045      330.328       -2.371      857.813
02/02/2014  09:43:00       10.461        4.926       -8.866       14.902       20.853        7.212      222.058      434.862       52.019        0.046        0.035       11.563        9.722        0.707      330.316       -2.390      857.820
02/02/2014  09:44:00      -11.749       -7.836       -5.936       12.429       10.512        9.648      154.481      110.500       93.076        0.030        0.018       14.123        7.243        0.263      330.338       -2.354      857.829
02/02/2014  09:45:00        8.336        8.406       13.183       19.499       15.667       14.390      380.203      245.454      207.080        0.057        0.042       11.839        9.507        0.645      330.547       -2.011      857.820
02/02/2014  09:46:00       25.198       58.613       -8.589       14.277       30.255       13.198      203.847      915.393      174.198        0.272        0.065       63.800       10.128        0.025      330.318       -2.386      857.819
02/02/2014  09:47:00       23.198       92.359      -14.103       19.971       41.883       18.427      398.856     1754.144      339.555        0.588        0.125       95.227       12.685        0.018      330.359       -2.318      857.813
02/02/2014  09:48:00       20.575       73.904       -7.801       24.384       30.588       15.137      594.557      935.620      229.118        0.385        0.088       76.715        9.842        0.016      330.409       -2.237      857.808
02/02/2014  09:49:00       52.918       42.138        1.799       19.198       19.147       16.027      368.563      366.606      256.872        0.279        0.050       67.646       12.421        0.034      330.391       -2.266      857.798
02/02/2014  09:50:00       41.020       23.764        0.541       21.847       12.587       11.658      477.313      158.435      135.902        0.151        0.039       47.407        6.795        0.021      330.365       -2.308      857.787
02/02/2014  09:51:00       62.153       28.390       13.512       25.239       26.574       22.224      636.996      706.181      493.910        0.334        0.092       68.330       13.855        0.041      330.426       -2.209      857.784
02/02/2014  09:52:00       38.885       28.133       24.690       27.139       17.926       21.837      736.540      321.343      476.840        0.222        0.077       47.995       13.850        0.083      330.587       -1.945      857.775
02/02/2014  09:53:00       32.443       58.485       -5.509       33.520       27.576       20.437     1123.598      760.416      417.670        0.340        0.115       66.881       17.892        0.072      330.578       -1.960      857.779
02/02/2014  09:54:00       -1.150       87.962       -7.641       12.290       20.374       12.921      151.042      415.082      166.952        0.426        0.037       87.969        8.750        0.010      330.447       -2.177      857.788
02/02/2014  09:55:00      -15.323       66.878      -12.235       11.077       18.571       10.825      122.703      344.895      117.178        0.272        0.029       68.611        4.682        0.005      330.466       -2.144      857.799
02/02/2014  09:56:00       -8.871       14.604        0.193       14.075       16.006       12.166      198.118      256.181      148.019        0.045        0.030       17.087       12.253        0.514      330.673       -1.804      857.800
02/02/2014  09:57:00      -10.939       25.593       10.493       27.135       46.352       18.263      736.286     2148.526      333.544        0.205        0.161       27.833       15.524        0.311      330.721       -1.723      857.796
02/02/2014  09:58:00       -8.492       36.214        3.607       12.414       27.117       14.115      154.097      735.332      199.233        0.124        0.054       37.196       17.231        0.215      330.717       -1.732      857.796
02/02/2014  09:59:00       12.281       28.645       17.357       29.439       22.657       18.805      866.641      513.352      353.617        0.150        0.087       31.167       14.893        0.228      330.826       -1.551      857.788
02/02/2014  10:00:00       16.322       28.196       42.014       28.469       28.558       23.248      810.458      815.553      540.483        0.250        0.108       32.579       19.854        0.371      330.841       -1.527      857.785
02/02/2014  10:01:00       37.495       69.888       70.546       39.114       31.561       21.126     1529.871      996.111      446.327        0.712        0.149       79.311       12.446        0.025      330.684       -1.786      857.770
02/02/2014  10:02:00       57.287       56.475       50.966       36.360       26.711       24.193     1322.061      713.485      585.301        0.584        0.131       80.444       15.176        0.036      330.670       -1.808      857.764
02/02/2014  10:03:00       55.130       33.291        4.813       19.799       26.606       25.151      391.995      707.903      632.562        0.295        0.087       64.402       21.218        0.109      330.556       -1.996      857.776
02/02/2014  10:04:00       -1.210       -0.977        4.547       24.009       18.939       19.900      576.422      358.689      396.025        0.068        0.067        1.556       13.820       78.918      330.719       -1.728      857.775
02/02/2014  10:05:00       60.365       34.516       32.882       35.285       44.279       28.334     1245.061     1960.599      802.802        0.496        0.200       69.536       23.642        0.116      330.735       -1.702      857.765
02/02/2014  10:06:00       46.151       56.601       44.825       56.954       22.532       20.885     3243.798      507.698      436.178        0.576        0.209       73.031       28.676        0.154      330.762       -1.657      857.757
02/02/2014  10:07:00       81.216       63.669       15.623       18.367       14.087       19.316      337.364      198.443      373.091        0.590        0.045      103.198       10.874        0.011      330.605       -1.915      857.746
02/02/2014  10:08:00       73.625       47.454        8.898       21.331       19.134       24.768      455.028      366.100      613.463        0.459        0.072       87.593       11.263        0.017      330.721       -1.726      857.717
02/02/2014  10:09:00       68.511       46.058        2.355       19.861       18.410       14.353      394.451      338.928      206.019        0.388        0.047       82.553        9.281        0.013      330.565       -1.980      857.689
02/02/2014  10:10:00       25.950       31.986        3.953       20.060       18.310       19.501      402.416      335.253      380.296        0.141        0.056       41.188       13.077        0.101      330.675       -1.800      857.653
02/02/2014  10:11:00       31.988       18.813        5.641       42.514       17.362       18.115     1807.456      301.451      328.137        0.192        0.122       37.110       14.651        0.156      330.792       -1.609      857.629
02/02/2014  10:12:00       43.114       39.454        8.083       23.534       23.042       17.053      553.872      530.916      290.804        0.243        0.069       58.442       15.716        0.072      330.745       -1.687      857.631
02/02/2014  10:13:00       17.543       -3.343       11.659       15.393       32.578       17.808      236.952     1061.295      317.140        0.103        0.081       17.859        7.143        0.160      330.933       -1.378      857.620
02/02/2014  10:14:00       30.671       28.986       43.404       32.207       24.561       22.715     1037.320      603.256      515.951        0.291        0.108       42.201       19.338        0.210      331.010       -1.251      857.619
02/02/2014  10:15:00       29.316        6.036       31.959       30.121       67.113       20.075      907.260     4504.149      403.019        0.386        0.291       29.931       12.223        0.167      330.880       -1.464      857.630
02/02/2014  10:16:00       64.126      -62.137        1.011       41.332       60.004       27.640     1708.301     3600.486      763.950        0.702        0.304       89.293       26.092        0.085      330.959       -1.334      857.625
02/02/2014  10:17:00       24.081      -69.546       16.413       39.747       63.359       29.599     1579.850     4014.330      876.071        0.608        0.324       73.597       38.576        0.275      331.161       -1.004      857.635
02/02/2014  10:18:00       29.971      -23.821       28.091       38.634       48.188       32.270     1492.580     2322.062     1041.341        0.355        0.243       38.284       25.849        0.456      331.121       -1.068      857.646
02/02/2014  10:19:00       42.226       29.006       39.094       29.469       37.446       31.085      868.406     1402.210      966.298        0.369        0.162       51.229       28.564        0.311      330.974       -1.309      857.647
02/02/2014  10:20:00       70.401       49.249       23.236       35.121       23.847       35.469     1233.519      568.673     1258.022        0.549        0.153       85.917       27.190        0.100      330.773       -1.640      857.639
02/02/2014  10:21:00       60.155       51.608       23.453       15.831       15.797       22.746      250.615      249.560      517.364        0.392        0.051       79.259        7.847        0.010      330.736       -1.700      857.641
02/02/2014  10:22:00       41.252       49.585       61.143       42.293       39.704       42.092     1788.711     1576.428     1771.773        0.652        0.257       64.501       27.499        0.182      330.923       -1.393      857.633
02/02/2014  10:23:00       52.832       69.084       76.594       50.841       41.491       38.250     2584.788     1721.500     1463.036        0.960        0.288       86.970       34.067        0.153      330.926       -1.388      857.632
02/02/2014  10:24:00       10.455      -21.577       41.718       20.538       50.584       25.811      421.826     2558.789      666.211        0.298        0.182       23.976       13.203        0.303      331.117       -1.074      857.618
02/02/2014  10:25:00       48.051       46.937       30.610       30.840       27.177       30.487      951.123      738.615      929.463        0.403        0.131       67.171       21.062        0.098      331.023       -1.228      857.619
02/02/2014  10:26:00       85.683       67.185       39.807       40.275       28.219       34.199     1622.113      796.332     1169.571        0.851        0.179      108.882       16.351        0.023      330.912       -1.411      857.617
02/02/2014  10:27:00       99.119       69.964       44.426       27.958       23.387       31.165      781.634      546.955      971.261        0.950        0.115      121.324       19.822        0.027      330.792       -1.608      857.620
02/02/2014  10:28:00       81.207       42.550       17.684       42.759       30.097       28.204     1828.367      905.835      795.474        0.612        0.176       91.679       21.897        0.057      330.878       -1.467      857.624
02/02/2014  10:29:00       68.583       61.634       30.802       33.311       20.906       28.704     1109.653      437.055      823.907        0.591        0.119       92.208       10.767        0.014      331.067       -1.156      857.621
02/02/2014  10:30:00       74.888       76.992        7.614       34.832       30.583       29.458     1213.289      935.327      867.802        0.730        0.151      107.406       20.861        0.038      330.862       -1.492      857.623
02/02/2014  10:31:00       89.510       68.852       14.503       19.284       14.483       22.196      371.880      209.761      492.662        0.702        0.054      112.928       12.853        0.013      330.787       -1.616      857.629
02/02/2014  10:32:00       47.683       61.449       65.813       36.175       26.784       17.989     1308.613      717.398      323.616        0.636        0.117       77.780       12.924        0.028      331.035       -1.210      857.626
02/02/2014  10:33:00       38.472       59.725       69.449       34.872       26.859       19.915     1216.043      721.428      396.594        0.610        0.117       71.044        7.229        0.010      331.042       -1.199      857.616
02/02/2014  10:34:00       32.248       47.327       59.045       34.044       36.102       23.276     1158.984     1303.343      541.759        0.488        0.150       57.269       13.405        0.055      331.052       -1.182      857.603
02/02/2014  10:35:00       10.551       32.247       35.270       28.573       31.939       19.227      816.439     1020.085      369.671        0.230        0.110       33.930       15.397        0.206      331.189       -0.955      857.578
02/02/2014  10:36:00       78.134       48.259       47.692       38.144       26.326       30.957     1454.964      693.069      958.336        0.691        0.155       91.836       20.125        0.048      330.978       -1.304      857.571
02/02/2014  10:37:00       95.726       59.179       26.693       46.447       33.165       47.913     2157.357     1099.898     2295.630        0.946        0.278      112.542       21.162        0.035      330.938       -1.369      857.563
02/02/2014  10:38:00       70.294       48.216       19.171       25.970       18.878       23.689      674.431      356.394      561.178        0.461        0.080       85.241       14.962        0.031      330.954       -1.342      857.560
02/02/2014  10:39:00       40.330       53.593       42.745       26.676       17.767       25.258      711.601      315.676      637.965        0.400        0.083       67.072       13.384        0.040      330.944       -1.359      857.550
02/02/2014  10:40:00       52.002       41.367        6.657       17.661       16.165       17.843      311.917      261.292      318.383        0.268        0.045       66.449        9.351        0.020      330.885       -1.455      857.542
02/02/2014  10:41:00       31.186       24.975        1.028       18.601       19.291       15.787      346.001      372.130      249.237        0.128        0.048       39.954        4.570        0.013      330.954       -1.342      857.535
02/02/2014  10:42:00       24.149       28.992        1.675       23.000       24.597       20.857      528.983      605.023      435.035        0.150        0.078       37.732       11.467        0.092      331.080       -1.136      857.527
02/02/2014  10:43:00       42.271       48.586       36.166       41.445       35.835       32.697     1717.727     1284.142     1069.110        0.476        0.204       64.401       21.647        0.113      331.214       -0.917      857.518
02/02/2014  10:44:00       54.756       16.436       26.378       42.917       22.257       27.957     1841.837      495.394      781.613        0.354        0.156       57.170       19.907        0.121      331.195       -0.946      857.516
02/02/2014  10:45:00       68.619       62.062        2.771       29.171       30.378       20.950      850.919      922.850      438.912        0.539        0.111       92.522        9.602        0.011      331.067       -1.159      857.494
02/02/2014  10:46:00       -5.455       17.391       36.146       18.613       31.722       29.142      346.456     1006.279      849.243        0.192        0.110       18.227       22.444        1.516      331.301       -0.772      857.469
02/02/2014  10:47:00       75.485       70.251        8.338       34.541       27.398       40.649     1193.113      750.657     1652.330        0.715        0.180      103.118       18.818        0.033      331.007       -1.255      857.454
02/02/2014  10:48:00       76.006       64.464       13.346       36.179       26.471       25.857     1308.932      700.705      668.609        0.639        0.134       99.662       14.841        0.022      331.054       -1.177      857.441
02/02/2014  10:49:00       84.936       66.842        7.194       27.641       16.095       21.213      764.029      259.040      449.975        0.660        0.074      108.083       14.390        0.018      330.910       -1.416      857.430
02/02/2014  10:50:00       95.102       55.797       14.802       18.692       15.743       17.067      349.405      247.844      291.271        0.663        0.044      110.262       12.198        0.012      330.871       -1.478      857.414
02/02/2014  10:51:00       79.844       39.447        0.296       23.049       31.571       20.380      531.267      996.748      415.327        0.494        0.097       89.057       12.951        0.021      330.987       -1.288      857.399
02/02/2014  10:52:00       74.000       48.714       15.251       34.213       24.735       26.794     1170.541      611.818      717.925        0.529        0.125       88.595       25.739        0.084      330.989       -1.284      857.390
02/02/2014  10:53:00       68.552       51.135        6.953       19.416       19.949       19.168      376.996      397.978      367.426        0.425        0.057       85.523        6.752        0.006      330.977       -1.304      857.391
02/02/2014  10:54:00       66.018       58.646        6.699       19.295       23.781       18.238      372.316      565.543      332.608        0.456        0.064       88.305        6.554        0.006      330.963       -1.327      857.383
02/02/2014  10:55:00       90.033       48.855       18.186       27.602       28.753       29.782      761.856      826.717      886.972        0.665        0.124      102.435       20.056        0.038      331.099       -1.104      857.379
02/02/2014  10:56:00       72.087       37.439        8.522       33.307       42.402       34.429     1109.324     1797.947     1185.325        0.538        0.205       81.230       25.853        0.101      331.131       -1.051      857.373
02/02/2014  10:57:00       48.606       -4.699       -0.774       32.040       20.658       21.073     1026.586      426.758      444.051        0.214        0.095       48.833       10.462        0.046      331.095       -1.111      857.363
02/02/2014  10:58:00       67.219       26.565       15.442       30.599       30.950       23.197      936.320      957.913      538.102        0.395        0.122       72.278        7.251        0.010      331.152       -1.018      857.353
02/02/2014  10:59:00      100.319       54.944       17.487       23.437       20.153       28.976      549.313      406.146      839.591        0.759        0.090      114.380        9.688        0.007      331.089       -1.121      857.347
02/02/2014  11:00:00       69.723       25.443       -4.934       32.940       23.667       22.384     1085.054      560.134      501.046        0.384        0.107       74.220       18.216        0.060      331.239       -0.874      857.346
02/02/2014  11:01:00       53.221       34.466       13.013       22.701       21.948       19.085      515.314      481.706      364.231        0.278        0.068       63.406       12.008        0.036      331.211       -0.921      857.343
02/02/2014  11:02:00       15.927       26.654       -1.758       31.836       23.957       14.909     1013.559      573.922      222.277        0.139        0.090       31.050       14.780        0.227      331.293       -0.786      857.334
02/02/2014  11:03:00       17.088      -13.987       11.438       23.982       33.987       16.619      575.147     1155.097      276.191        0.131        0.100       22.082        8.241        0.139      331.472       -0.491      857.318
02/02/2014  11:04:00       35.939       36.806       51.753       50.206       43.555       31.134     2520.691     1896.998      969.345        0.535        0.269       51.443       30.954        0.362      331.429       -0.561      857.301
02/02/2014  11:05:00       60.687       19.627       13.883       44.576       29.814       31.052     1986.984      888.899      964.257        0.405        0.192       63.782       22.528        0.125      331.366       -0.664      857.296
02/02/2014  11:06:00       47.545       27.268       13.448       34.734       24.001       28.574     1206.445      576.037      816.472        0.289        0.130       54.810       24.538        0.200      331.410       -0.594      857.287
02/02/2014  11:07:00       32.894       43.521       40.659       37.029       29.638       27.513     1371.149      878.417      756.983        0.382        0.150       54.554       22.121        0.164      331.527       -0.402      857.279
02/02/2014  11:08:00       85.035       63.231       10.854       26.894       26.679       22.988      723.285      711.760      528.430        0.665        0.098      105.968       18.228        0.030      331.261       -0.839      857.264
02/02/2014  11:09:00       50.335       20.788       -5.654       18.040       10.578       11.923      325.432      111.899      142.162        0.179        0.029       54.459        9.819        0.033      331.067       -1.158      857.264
02/02/2014  11:10:00       36.503       31.840       -5.538       13.943       10.841       15.922      194.404      117.533      253.495        0.147        0.028       48.438        8.776        0.033      331.071       -1.151      857.255
02/02/2014  11:11:00      -16.325       19.216        2.042       14.554       13.097       25.606      211.830      171.519      655.685        0.084        0.052       25.214       12.034        0.228      331.299       -0.776      857.243
02/02/2014  11:12:00       16.800      -46.036       -2.774       32.330       26.305       24.331     1045.200      691.972      591.986        0.237        0.116       49.005       22.171        0.205      331.347       -0.697      857.218
02/02/2014  11:13:00       19.168       35.323        7.487       21.585       29.115       22.529      465.920      847.690      507.543        0.175        0.091       40.189       23.108        0.331      331.339       -0.710      857.188
02/02/2014  11:14:00       43.488       24.602       16.774       13.642       13.227       15.761      186.100      174.942      248.394        0.169        0.030       49.965        9.223        0.034      331.286       -0.797      857.172
02/02/2014  11:15:00       31.570       -4.137       -2.589       24.839       21.662       19.333      616.991      469.258      373.766        0.124        0.073       31.840       11.239        0.125      331.297       -0.779      857.163
02/02/2014  11:16:00       -4.751       21.259       36.248       19.233       30.042       26.139      369.908      902.533      683.235        0.187        0.098       21.783       17.748        0.664      331.604       -0.273      857.149
02/02/2014  11:17:00       18.366       23.842       36.249       25.962       19.415       15.698      674.051      376.950      246.442        0.176        0.065       30.096       12.255        0.166      331.429       -0.562      857.131
02/02/2014  11:18:00        3.503        9.304       19.665       14.959       14.775       14.645      223.767      218.307      214.490        0.057        0.033        9.942        9.668        0.946      331.535       -0.387      857.123
02/02/2014  11:19:00      -11.882       14.841       15.893       12.250       19.823       16.303      150.064      392.965      265.776        0.071        0.040       19.011       10.050        0.279      331.553       -0.359      857.111
02/02/2014  11:20:00      -22.436       18.007       20.730       20.499       16.691       12.845      420.215      278.592      164.997        0.106        0.043       28.769        8.589        0.089      331.658       -0.185      857.094
02/02/2014  11:21:00       -0.899       -4.633       10.636       28.657       19.943       27.301      821.211      397.723      745.323        0.105        0.098        4.720       19.744       17.501      331.758       -0.020      857.073
02/02/2014  11:22:00      -30.998      -20.811       13.967       44.158       32.634       24.306     1949.906     1064.962      590.779        0.260        0.180       37.336       26.576        0.507      331.678       -0.150      857.072
02/02/2014  11:23:00      -96.868      -18.428        1.487       45.160       36.383       20.895     2039.421     1323.758      436.604        0.676        0.190       98.605       20.079        0.041      331.464       -0.505      857.067
02/02/2014  11:24:00     -152.258      -16.821        1.676       60.698       55.760       35.144     3684.304     3109.183     1235.095        1.575        0.401      153.184       33.707        0.048      331.383       -0.639      857.049
02/02/2014  11:25:00     -152.502      -36.010       -6.492       53.429       46.459       26.831     2854.687     2158.482      719.884        1.516        0.287      156.696       28.175        0.032      331.264       -0.834      857.040
02/02/2014  11:26:00     -116.946      -28.073        5.411       58.149       49.101       26.424     3381.339     2410.919      698.240        1.049        0.325      120.269       27.948        0.054      331.352       -0.688      857.045
02/02/2014  11:27:00     -114.672       40.246       -5.723       58.011       35.041       27.946     3365.268     1227.882      780.968        1.009        0.269      121.529       28.234        0.054      331.226       -0.895      857.044
02/02/2014  11:28:00      -87.817        5.762        8.729       58.733       38.145       24.220     3449.557     1455.049      586.624        0.666        0.275       88.006       20.270        0.053      331.300       -0.773      857.033
02/02/2014  11:29:00      -84.560      -36.216       -0.869       45.899       43.896       20.811     2106.682     1926.853      433.083        0.646        0.223       91.989       21.850        0.056      331.325       -0.732      857.022
02/02/2014  11:30:00     -128.551      -64.079        0.448       64.121       50.657       32.934     4111.478     2566.096     1084.659        1.420        0.388      143.637       35.934        0.063      331.358       -0.678      857.009
02/02/2014  11:31:00     -137.516      -81.342       -2.883       69.250       33.673       28.057     4795.553     1133.864      787.174        1.612        0.336      159.772       25.830        0.026      331.190       -0.956      856.985
02/02/2014  11:32:00     -121.016      -41.104        3.290       79.105       58.559       37.185     6257.525     3429.117     1382.689        1.371        0.553      127.807       39.965        0.098      331.230       -0.889      856.970
02/02/2014  11:33:00     -116.109       22.722      -13.411       36.942       38.438       20.150     1364.681     1477.517      406.027        0.871        0.162      118.312       10.801        0.008      331.175       -0.980      856.965
02/02/2014  11:34:00     -160.143      -25.325      -20.857       43.587       41.705       19.809     1899.823     1739.342      392.382        1.538        0.202      162.133       16.760        0.011      331.161       -1.004      856.948
02/02/2014  11:35:00     -181.056        7.822      -22.360       57.830       31.944       24.357     3344.328     1020.405      593.278        1.915        0.248      181.224       22.123        0.015      331.105       -1.096      856.947
02/02/2014  11:36:00     -157.887      -49.287      -12.200       80.584       40.283       26.304     6493.738     1622.712      691.921        1.816        0.440      165.401       34.024        0.042      331.138       -1.044      856.948
02/02/2014  11:37:00     -174.396      -70.612       -7.167       52.144       41.435       26.970     2719.011     1716.847      727.404        2.031        0.258      188.149       24.064        0.016      331.120       -1.072      856.951
02/02/2014  11:38:00     -161.706      -57.074      -10.032       72.882       33.302       22.835     5311.841     1109.046      521.434        1.822        0.347      171.483       19.845        0.013      331.106       -1.093      856.950
02/02/2014  11:39:00     -106.997      -36.601       -5.159       41.020       48.916       25.850     1682.658     2392.758      668.201        0.878        0.237      113.084       21.488        0.036      331.228       -0.893      856.949
02/02/2014  11:40:00     -123.908      -25.200       -9.129       32.759       34.788       19.740     1073.135     1210.183      389.663        0.937        0.134      126.445       16.311        0.017      331.271       -0.821      856.949
02/02/2014  11:41:00     -115.605        0.030       -8.521       28.809       45.739       23.396      829.964     2092.052      547.362        0.845        0.173      115.605       13.416        0.013      331.179       -0.971      856.945
02/02/2014  11:42:00     -104.125       18.943      -12.535       38.150       32.154       16.067     1455.390     1033.870      258.163        0.705        0.137      105.834       11.142        0.011      331.016       -1.242      856.931
02/02/2014  11:43:00      -95.976      -15.708      -17.334       36.088       24.449       17.439     1302.375      597.739      304.119        0.598        0.110       97.253       11.973        0.015      331.141       -1.036      856.922
02/02/2014  11:44:00      -49.162       16.295       -0.817       18.810       18.918       20.899      353.809      357.897      436.764        0.192        0.057       51.793       17.225        0.111      331.228       -0.892      856.915
02/02/2014  11:45:00      -36.101        8.228        8.380       26.975       23.643       21.272      727.676      559.012      452.516        0.159        0.087       37.027       18.233        0.242      331.457       -0.515      856.911
02/02/2014  11:46:00      -61.470        3.197       10.117       27.378       32.030       22.118      749.561     1025.946      489.201        0.308        0.113       61.553       20.759        0.114      331.331       -0.723      856.899
02/02/2014  11:47:00      -14.068      -13.983       -0.283       37.716       32.021       17.385     1422.488     1025.326      302.252        0.157        0.138       19.836       17.850        0.810      331.530       -0.395      856.888
02/02/2014  11:48:00      -85.496      -34.941       -1.346       48.560       40.511       24.497     2358.028     1641.142      600.116        0.657        0.230       92.361       22.021        0.057      331.449       -0.530      856.884
02/02/2014  11:49:00     -144.594      -57.364       -5.875       60.310       37.501       24.076     3637.238     1406.349      579.646        1.493        0.281      155.557       26.286        0.029      331.164       -0.997      856.874
02/02/2014  11:50:00     -133.754      -71.937       -9.738       40.129       36.344       20.459     1610.329     1320.853      418.588        1.325        0.167      151.872       22.512        0.022      331.111       -1.087      856.858
02/02/2014  11:51:00      -77.439      -49.554       -1.759       29.158       21.895       17.961      850.202      479.381      322.582        0.505        0.083       91.937       19.110        0.043      331.209       -0.924      856.840
02/02/2014  11:52:00      -78.074      -43.514       -3.988       35.226       39.868       17.292     1240.864     1589.466      299.022        0.557        0.156       89.382       17.441        0.038      331.179       -0.973      856.818
02/02/2014  11:53:00      -58.332        7.866       -8.310       32.693       19.185       15.094     1068.853      368.081      227.839        0.260        0.083       58.860        8.955        0.023      331.181       -0.970      856.811
02/02/2014  11:54:00      -33.720       -2.622       -1.194       43.350       20.006       16.421     1879.232      400.227      269.642        0.185        0.127       33.822       16.117        0.227      331.318       -0.745      856.799
02/02/2014  11:55:00      -84.405      -47.776      -11.987       31.284       27.961       23.150      978.674      781.837      535.922        0.592        0.115       96.989       17.346        0.032      331.159       -1.006      856.791
02/02/2014  11:56:00      -25.883      -16.139        8.040       52.679       32.237       22.830     2775.049     1039.228      521.212        0.266        0.217       30.503       27.795        0.830      331.681       -0.146      856.776
02/02/2014  11:57:00     -101.383       22.576       -8.929       26.537       19.318       15.355      704.213      373.199      235.773        0.609        0.066      103.867        8.246        0.006      331.128       -1.055      856.769
02/02/2014  11:58:00      -73.539       -6.054       -7.111       39.490       17.409       16.396     1559.498      303.086      268.839        0.381        0.107       73.787       18.174        0.061      331.321       -0.739      856.768
02/02/2014  11:59:00      -44.107      -36.437       12.659       33.873       20.488       20.591     1147.364      419.750      424.008        0.271        0.100       57.211       17.898        0.098      331.645       -0.205      856.751
02/02/2014  12:00:00      -31.639      -52.664       -7.777       39.796       29.075       17.368     1583.753      845.328      301.659        0.328        0.137       61.437        8.478        0.019      331.568       -0.332      856.727
02/02/2014  12:01:00      -57.817      -51.691        5.605       51.366       29.883       27.359     2638.446      893.008      748.539        0.516        0.214       77.555       19.662        0.064      331.648       -0.201      856.712
02/02/2014  12:02:00      -30.926      -33.311        6.439       44.131       31.684       25.775     1947.553     1003.869      664.375        0.286        0.181       45.454       22.304        0.241      331.604       -0.274      856.685
02/02/2014  12:03:00      -49.678      -88.796        2.853       35.153       61.509       24.722     1235.727     3783.332      611.167        0.799        0.282      101.748       20.370        0.040      331.452       -0.523      856.664
02/02/2014  12:04:00      -63.280     -127.032       -4.934       29.081       45.602       24.127      845.725     2079.581      582.135        1.184        0.175      141.921       15.163        0.011      331.259       -0.842      856.665
02/02/2014  12:05:00      -27.975      -53.089       -7.568       30.336       36.739       26.920      920.248     1349.723      724.687        0.333        0.150       60.008       27.919        0.216      331.344       -0.701      856.642
02/02/2014  12:06:00      -81.864      -60.865       -8.629       41.886       34.025       23.922     1754.412     1157.681      572.259        0.698        0.174      102.012       21.842        0.046      331.368       -0.662      856.638
02/02/2014  12:07:00      -41.893      -37.854        1.060       28.601       33.036       16.536      818.008     1091.390      273.435        0.269        0.109       56.462       14.579        0.067      331.312       -0.753      856.628
02/02/2014  12:08:00     -102.200      -58.167       -8.273       54.695       51.763       25.612     2991.550     2679.403      655.999        1.011        0.316      117.594       26.974        0.053      331.431       -0.558      856.608
02/02/2014  12:09:00     -112.448      -89.510       -6.400       69.796       51.706       21.689     4871.519     2673.500      470.427        1.436        0.401      143.724       26.540        0.034      331.364       -0.668      856.581
02/02/2014  12:10:00     -155.293      -41.531      -18.316       38.332       29.232       23.087     1469.359      854.538      533.017        1.452        0.143      160.751       21.480        0.018      331.392       -0.622      856.560
02/02/2014  12:11:00      -70.408       -6.708      -12.814       32.875       23.202       18.119     1080.793      538.332      328.291        0.356        0.097       70.726       16.079        0.052      331.435       -0.553      856.528
02/02/2014  12:12:00      -71.389       41.139      -19.907       19.496       26.412       14.800      380.111      697.580      219.053        0.424        0.065       82.394        7.667        0.009      331.401       -0.608      856.510
02/02/2014  12:13:00       -9.998        8.538        0.283       33.550       15.092       18.934     1125.621      227.779      358.492        0.094        0.086       13.147       17.707        1.814      331.622       -0.244      856.475
02/02/2014  12:14:00      -29.268       -1.763       12.813       32.519       18.170       25.038     1057.501      330.141      626.888        0.152        0.101       29.321       27.202        0.861      331.844        0.122      856.463
02/02/2014  12:15:00      -53.807      -37.521        8.329       47.656       34.048       21.156     2271.067     1159.300      447.562        0.412        0.194       65.597       23.836        0.132      331.902        0.217      856.450
02/02/2014  12:16:00      -86.807      -70.270        2.125       43.173       51.600       22.627     1863.895     2662.541      511.972        0.876        0.252      111.684       19.602        0.031      331.796        0.043      856.431
02/02/2014  12:17:00     -109.702       36.369      -17.254       47.404       27.873       22.157     2247.130      776.917      490.941        0.858        0.176      115.574       19.334        0.028      331.498       -0.448      856.421
02/02/2014  12:18:00      -69.705       -3.293       -5.859       31.939       31.108       18.982     1020.107      967.705      360.333        0.363        0.117       69.782        8.358        0.014      331.519       -0.414      856.406
02/02/2014  12:19:00     -104.115       52.820       -8.596       34.342       34.534       29.688     1179.382     1192.602      881.360        0.848        0.163      116.747       13.604        0.014      331.562       -0.342      856.383
02/02/2014  12:20:00      -46.129       10.160       -9.641       15.967       24.429       19.142      254.944      596.763      366.403        0.177        0.061       47.235        8.630        0.033      331.576       -0.321      856.366
02/02/2014  12:21:00      -76.367       -6.484       -8.914       39.344       23.650       17.552     1547.946      559.327      308.060        0.418        0.121       76.642       10.912        0.020      331.620       -0.248      856.350
02/02/2014  12:22:00      -85.093      -47.969        5.640       59.325       47.362       27.146     3519.460     2243.123      736.907        0.804        0.325       97.683       28.115        0.083      332.032        0.431      856.348
02/02/2014  12:23:00      -89.398      -46.042        1.507       51.233       37.488       30.387     2624.870     1405.364      923.370        0.753        0.248      100.558       30.037        0.089      331.868        0.161      856.337
02/02/2014  12:24:00     -146.034      -28.575       -2.534       38.571       50.823       25.197     1487.702     2582.952      634.890        1.343        0.235      148.804       22.030        0.022      331.682       -0.146      856.332
02/02/2014  12:25:00      -94.404      -19.815       -1.740       65.028       36.372       23.615     4228.588     1322.908      557.645        0.771        0.305       96.461       26.210        0.074      331.836        0.108      856.325
02/02/2014  12:26:00      -97.299      -13.799       -4.374       54.016       42.695       20.484     2917.762     1822.888      419.576        0.742        0.258       98.272       23.499        0.057      331.910        0.230      856.296
02/02/2014  12:27:00      -82.813      -81.875       -4.486       30.418       29.456       22.659      925.231      867.663      513.450        0.794        0.115      116.454       11.838        0.010      331.695       -0.125      856.282
02/02/2014  12:28:00     -121.711      -92.864       -4.054       40.622       26.826       28.356     1650.119      719.656      804.053        1.331        0.159      153.093       24.766        0.026      331.757       -0.023      856.250
02/02/2014  12:29:00      -79.126      -76.588       -7.446       43.728       26.974       24.012     1912.148      727.603      576.557        0.770        0.161      110.121       18.841        0.029      331.651       -0.197      856.235
02/02/2014  12:30:00      -55.821      -77.675        5.057       48.651       34.062       29.316     2366.951     1160.245      859.444        0.678        0.219       95.652       32.954        0.119      331.879        0.179      856.218
02/02/2014  12:31:00      -39.131      -69.640       -5.183       35.675       50.790       28.664     1272.689     2579.605      821.651        0.554        0.234       79.881       26.170        0.107      331.903        0.219      856.208
02/02/2014  12:32:00      -79.583      -34.964       -1.884       32.721       24.133       20.136     1070.642      582.400      405.477        0.481        0.103       86.924       20.706        0.057      331.792        0.036      856.194
02/02/2014  12:33:00      -97.553        9.945      -20.337       22.699       24.886       17.103      515.242      619.295      292.520        0.573        0.071       98.059        7.966        0.007      331.648       -0.200      856.180
02/02/2014  12:34:00      -49.352      -76.627      -11.908       41.990       51.841       27.290     1763.169     2687.451      744.729        0.682        0.260       91.144        7.786        0.007      331.871        0.167      856.163
02/02/2014  12:35:00      -21.128      -41.526       20.619       80.871       48.754       33.280     6540.132     2376.955     1107.526        0.631        0.501       46.592       38.815        0.694      332.215        0.733      856.142
02/02/2014  12:36:00      -87.450      -59.447       -6.088       30.820       35.639       21.258      949.848     1270.116      451.920        0.694        0.134      105.743       21.188        0.040      331.796        0.043      856.130
02/02/2014  12:37:00     -101.135       -3.439      -15.777       27.314       47.512       22.464      746.068     2257.436      504.622        0.700        0.175      101.193       17.895        0.031      331.702       -0.112      856.111
02/02/2014  12:38:00      -48.443      -57.180       -7.007       22.936       24.502       15.657      526.054      600.342      245.152        0.352        0.069       74.942        6.141        0.007      332.050        0.460      856.091
02/02/2014  12:39:00      -60.964      -67.885       -6.364       23.897       30.394       22.992      571.079      923.817      528.627        0.519        0.101       91.241       18.150        0.040      331.778        0.014      856.075
02/02/2014  12:40:00     -106.923       -7.250       -9.909       30.733       24.241       21.840      944.490      587.629      476.987        0.680        0.100      107.169       16.764        0.024      331.803        0.055      856.058
02/02/2014  12:41:00      -95.888      -10.347      -17.853       17.827       15.038       13.205      317.788      226.129      174.374        0.517        0.036       96.445        6.448        0.004      331.706       -0.106      856.049
02/02/2014  12:42:00      -64.574      -31.545       -1.034       19.694       28.724       13.424      387.860      825.072      180.195        0.328        0.070       71.867        9.928        0.019      331.920        0.248      856.030
02/02/2014  12:43:00      -70.280        6.655       -8.561       30.429       23.216       22.577      925.903      538.991      509.707        0.352        0.099       70.595       22.608        0.103      332.083        0.515      856.016
02/02/2014  12:44:00      -28.248       20.227        2.122       24.243       19.249       14.594      587.740      370.510      212.981        0.119        0.059       34.743       12.302        0.125      332.226        0.750      855.997
02/02/2014  12:45:00      -10.548       40.351        6.851       26.428       34.084       23.518      698.454     1161.744      553.090        0.210        0.121       41.707       20.765        0.248      332.408        1.051      855.985
02/02/2014  12:46:00        8.955       44.712      -10.750       26.747       47.450       20.866      715.380     2251.485      435.384        0.280        0.170       45.600       18.019        0.156      332.025        0.420      855.976
02/02/2014  12:47:00      -33.383      -19.878       17.241       53.268       25.215       22.073     2837.460      635.817      487.202        0.288        0.198       38.853       25.534        0.432      332.229        0.755      855.966
02/02/2014  12:48:00      -88.751       -6.352       -9.241       25.043       39.001       21.889      627.142     1521.057      479.113        0.531        0.131       88.978       20.094        0.051      331.925        0.255      855.958
02/02/2014  12:49:00      -34.432      -19.861       10.242       33.129       26.061       22.169     1097.560      679.174      491.483        0.198        0.113       39.749       20.090        0.255      332.365        0.979      855.941
02/02/2014  12:50:00      -12.334       27.247       26.471       41.712       32.548       23.698     1739.889     1059.401      561.582        0.248        0.168       29.909       16.261        0.296      332.472        1.157      855.924
02/02/2014  12:51:00      -41.257       47.011       -5.097       43.500       22.562       19.923     1892.227      509.047      396.917        0.337        0.140       62.548        8.346        0.018      331.977        0.340      855.911
02/02/2014  12:52:00       51.834       33.542       14.062       36.807       29.289       23.657     1354.742      857.821      559.636        0.339        0.139       61.740       18.379        0.089      332.229        0.756      855.886
02/02/2014  12:53:00       39.774       65.662       34.061       34.405       26.908       31.574     1183.724      724.037      996.927        0.498        0.145       76.769       22.722        0.088      332.112        0.563      855.874
02/02/2014  12:54:00       33.216       39.905       21.327       30.986       37.752       27.863      960.139     1425.244      776.361        0.316        0.158       51.920        5.474        0.011      332.250        0.790      855.852
02/02/2014  12:55:00       42.213       57.081       -5.522       29.604       31.267       22.268      876.425      977.607      495.877        0.371        0.117       70.994       18.667        0.069      331.948        0.293      855.838
02/02/2014  12:56:00       36.555       30.318       13.865       25.445       23.231       26.441      647.430      539.681      699.135        0.217        0.094       47.491       17.546        0.136      332.178        0.674      855.822
02/02/2014  12:57:00       34.854       25.011       22.718       28.673       25.835       29.197      822.149      667.432      852.480        0.235        0.117       42.899       19.280        0.202      332.158        0.636      855.816
02/02/2014  12:58:00      122.462       65.014       23.870       45.959       30.479       32.787     2112.262      928.990     1074.975        1.195        0.206      138.650       23.304        0.028      332.070        0.493      855.794
02/02/2014  12:59:00       24.586       63.953       54.826       32.662       34.492       26.808     1066.804     1189.690      718.660        0.534        0.149       68.516       17.048        0.062      332.269        0.822      855.789
02/02/2014  13:00:00        4.932       15.598       51.721       24.124       51.608       26.865      581.968     2663.383      721.704        0.345        0.198       16.359       32.553        3.960      332.482        1.173      855.774
02/02/2014  13:01:00       67.374      -66.162        2.985       62.750       40.871       33.678     3937.535     1670.466     1134.240        0.783        0.337       94.428       23.402        0.061      332.168        0.655      855.767
02/02/2014  13:02:00       50.959      -42.016       28.376       46.859       73.216       40.930     2195.781     5360.518     1675.273        0.720        0.462       66.046       42.376        0.412      332.172        0.662      855.752
02/02/2014  13:03:00       55.626       22.238       64.598       54.476       45.436       47.611     2967.670     2064.419     2266.840        0.753        0.365       59.906       31.854        0.283      332.247        0.786      855.739
02/02/2014  13:04:00       94.877       48.331       38.679       70.295       45.900       47.773     4941.436     2106.816     2282.249        1.108        0.467      106.477       32.948        0.096      332.046        0.454      855.726
02/02/2014  13:05:00       13.630       -6.706       43.398       37.920       76.191       51.159     1437.928     5805.116     2617.267        0.599        0.493       15.190       59.191       15.183      332.127        0.587      855.716
02/02/2014  13:06:00       33.385        6.706       27.715       29.483       49.920       25.137      869.247     2491.973      631.887        0.296        0.200       34.051       24.059        0.499      332.053        0.467      855.707
02/02/2014  13:07:00       96.493       62.744       18.355       61.679       28.249       34.203     3804.295      798.015     1169.849        0.968        0.289      115.099       36.343        0.100      332.117        0.570      855.700
02/02/2014  13:08:00       31.349       50.395       50.491       62.689       38.299       35.792     3929.913     1466.829     1281.042        0.637        0.334       59.350       27.105        0.209      332.342        0.943      855.693
02/02/2014  13:09:00      102.389      106.994       78.259       58.788       45.421       42.907     3455.981     2063.056     1840.982        1.771        0.368      148.092       37.287        0.063      332.071        0.495      855.684
02/02/2014  13:10:00      103.950      106.777       84.664       44.200       44.878       46.822     1953.622     2014.073     2192.317        1.777        0.308      149.020       39.053        0.069      331.923        0.250      855.681
02/02/2014  13:11:00       71.377       54.448       23.444       56.324       38.697       35.753     3172.413     1497.435     1278.246        0.728        0.297       89.773       21.497        0.057      331.998        0.375      855.668
02/02/2014  13:12:00      113.644       78.530       20.559       62.242       46.609       36.513     3874.053     2172.372     1333.209        1.344        0.369      138.137       30.420        0.048      331.953        0.301      855.648
02/02/2014  13:13:00       66.205       63.762        5.795       48.572       31.695       21.627     2359.216     1004.575      467.741        0.616        0.192       91.917       15.769        0.029      331.804        0.054      855.635
02/02/2014  13:14:00      110.053       77.114       25.486       51.248       40.080       32.426     2626.312     1606.406     1051.470        1.200        0.264      134.381       29.226        0.047      331.838        0.110      855.606
02/02/2014  13:15:00      129.039       86.131       60.151       76.332       49.978       46.798     5826.584     2497.809     2190.044        1.910        0.526      155.144       30.909        0.040      331.944        0.285      855.582
02/02/2014  13:16:00       53.988      101.928       94.268       52.220       41.528       37.139     2726.933     1724.569     1379.292        1.401        0.292      115.343       26.745        0.054      332.063        0.482      855.565
02/02/2014  13:17:00       71.026       82.910       75.559       62.223       52.119       35.661     3871.739     2716.429     1271.706        1.274        0.393      109.173       26.122        0.057      332.090        0.528      855.554
02/02/2014  13:18:00       84.465       65.925       64.916       47.138       59.845       43.432     2221.994     3581.454     1886.363        1.169        0.384      107.147       44.422        0.172      331.954        0.302      855.537
02/02/2014  13:19:00       26.813       65.880       79.825       53.263       51.602       43.254     2836.941     2662.809     1870.939        0.940        0.369       71.128       38.216        0.289      332.166        0.652      855.524
02/02/2014  13:20:00      130.661       96.697       37.021       54.699       36.912       43.022     2991.978     1362.532     1850.876        1.700        0.310      162.550       30.273        0.035      331.914        0.237      855.526
02/02/2014  13:21:00       84.741       51.528       46.698       66.748       43.853       38.806     4455.235     1923.090     1505.943        0.995        0.394       99.177       29.632        0.089      332.080        0.509      855.515
02/02/2014  13:22:00      120.517       70.498       28.089       60.740       50.651       40.262     3689.393     2565.482     1621.014        1.408        0.394      139.622       23.658        0.029      331.830        0.097      855.516
02/02/2014  13:23:00       79.558       40.369       34.382       45.251       66.056       41.233     2047.609     4363.451     1700.193        0.862        0.406       89.213       33.711        0.143      332.018        0.407      855.506
02/02/2014  13:24:00       62.425      -46.839       32.563       55.492       88.836       50.350     3079.390     7891.837     2535.147        1.033        0.675       78.043       63.488        0.662      332.017        0.406      855.492
02/02/2014  13:25:00       46.627        7.046       57.915       54.136       43.529       35.282     2930.737     1894.776     1244.800        0.582        0.304       47.157       36.436        0.597      332.006        0.388      855.494
02/02/2014  13:26:00       61.549      -59.380        6.822       38.355       49.828       25.484     1471.106     2482.788      649.439        0.598        0.230       85.524       31.655        0.137      332.098        0.541      855.482
02/02/2014  13:27:00       -6.755       46.384       61.538       22.101       31.483       23.513      488.440      991.180      552.881        0.401        0.102       46.874       20.875        0.198      332.311        0.892      855.469
02/02/2014  13:28:00       -8.996        5.669       36.138       20.349       23.403       18.333      414.069      547.717      336.116        0.136        0.065       10.633        5.911        0.309      332.374        0.995      855.468
02/02/2014  13:29:00       13.328       30.678       55.024       28.345       37.443       29.408      803.447     1401.970      864.813        0.361        0.154       33.448       19.999        0.358      332.429        1.087      855.459
02/02/2014  13:30:00       35.863      -31.725       35.001       48.000       87.301       40.512     2303.978     7621.523     1641.220        0.754        0.578       47.882       54.173        1.280      332.288        0.853      855.455
02/02/2014  13:31:00       30.036       36.937       79.170       46.665       74.978       33.517     2177.579     5621.669     1123.391        0.873        0.446       47.607       37.716        0.628      332.187        0.686      855.452
02/02/2014  13:32:00      114.546       76.963       27.558       39.318       28.716       29.953     1545.885      824.616      897.196        1.154        0.163      138.000       13.166        0.009      331.843        0.120      855.438
02/02/2014  13:33:00       82.422       50.480       34.079       41.023       32.848       33.893     1682.867     1079.013     1148.704        0.721        0.196       96.652       27.590        0.081      331.993        0.367      855.429
02/02/2014  13:34:00      110.010       79.124       26.485       40.108       34.034       35.018     1608.642     1158.310     1226.238        1.153        0.200      135.509       17.908        0.017      331.984        0.352      855.413
02/02/2014  13:35:00       81.483       95.935       87.290       58.319       50.141       38.330     3401.093     2514.080     1469.203        1.542        0.369      125.869       27.618        0.048      332.057        0.472      855.411
02/02/2014  13:36:00       69.387       93.131       79.464       61.346       52.840       51.068     3763.355     2792.103     2607.946        1.448        0.458      116.138       47.498        0.167      332.055        0.470      855.404
02/02/2014  13:37:00       92.399      104.127       77.788       43.532       33.375       41.813     1895.050     1113.865     1748.307        1.509        0.238      139.212       30.166        0.047      331.906        0.223      855.403
02/02/2014  13:38:00       97.483       41.189       51.423       50.545       48.717       32.254     2554.752     2373.299     1040.345        0.991        0.298      105.827       24.086        0.052      331.893        0.202      855.401
02/02/2014  13:39:00       72.258       70.651       81.449       47.440       52.979       36.354     2250.516     2806.818     1321.609        1.161        0.319      101.059       35.372        0.123      332.014        0.402      855.384
02/02/2014  13:40:00       66.801       96.348       85.603       72.892       47.960       34.753     5313.277     2300.127     1207.761        1.495        0.441      117.240       25.868        0.049      331.927        0.257      855.387
02/02/2014  13:41:00       21.640       90.801       86.990       54.799       48.831       50.592     3002.931     2384.462     2559.541        1.211        0.397       93.344       42.923        0.211      332.152        0.630      855.390
02/02/2014  13:42:00       32.038       30.778       37.655       31.622       30.296       28.088      999.961      917.857      788.935        0.305        0.135       44.426       22.949        0.267      332.011        0.397      855.388
02/02/2014  13:43:00       31.801       65.592       80.129       40.167       48.470       30.906     1613.404     2349.356      955.200        0.833        0.246       72.895       29.083        0.159      332.102        0.545      855.385
02/02/2014  13:44:00       34.049       -1.103       67.456       44.856       52.638       47.692     2012.031     2770.738     2274.523        0.638        0.353       34.067       45.145        1.756      332.173        0.666      855.388
02/02/2014  13:45:00       65.670      -98.139        2.802       39.120       30.550       22.471     1530.412      933.274      504.924        0.846        0.148      118.083       14.198        0.014      331.890        0.196      855.387
02/02/2014  13:46:00       23.487       -0.058       25.515       33.055       55.829       26.995     1092.648     3116.862      728.711        0.307        0.247       23.487       15.088        0.413      332.243        0.779      855.387
02/02/2014  13:47:00       24.864       26.700       21.908       32.335       28.820       35.989     1045.535      830.588     1295.195        0.249        0.159       36.484       28.564        0.613      332.235        0.766      855.376
02/02/2014  13:48:00       27.645       23.998       21.263       18.858       14.449       17.956      355.608      208.770      322.423        0.134        0.044       36.608        9.163        0.063      332.117        0.571      855.374
02/02/2014  13:49:00      107.476       66.173       30.721       87.344       64.604       45.359     7629.055     4173.678     2057.400        1.536        0.693      126.214       50.031        0.157      332.139        0.607      855.375
02/02/2014  13:50:00      163.148       88.248        9.627       52.864       42.951       35.974     2794.652     1844.768     1294.116        2.021        0.297      185.486       22.248        0.014      331.891        0.198      855.366
02/02/2014  13:51:00      178.644       90.325       14.261       43.158       37.435       31.260     1862.624     1401.399      977.179        2.226        0.212      200.181       16.734        0.007      331.868        0.160      855.374
02/02/2014  13:52:00      130.481       74.117        5.433       34.153       31.925       33.045     1166.406     1019.231     1091.971        1.291        0.164      150.062       20.562        0.019      331.915        0.239      855.379
02/02/2014  13:53:00      123.089       70.712        9.955       35.133       31.281       30.713     1234.337      978.520      943.318        1.170        0.158      141.955       21.602        0.023      331.926        0.257      855.371
02/02/2014  13:54:00      120.971       67.528       12.325       33.781       37.689       31.391     1141.166     1420.437      985.405        1.145        0.177      138.542       10.604        0.006      331.945        0.286      855.366
02/02/2014  13:55:00      103.153       39.670       14.725       49.127       45.251       34.899     2413.506     2047.682     1217.913        0.905        0.284      110.518       20.472        0.034      332.072        0.497      855.373
02/02/2014  13:56:00      166.042       75.776        4.702       54.256       40.864       26.326     2943.740     1669.853      693.033        1.932        0.265      182.515       12.209        0.004      331.858        0.142      855.380
02/02/2014  13:57:00      105.640       27.447       15.520       59.272       44.529       46.384     3513.126     1982.801     2151.459        0.990        0.382      109.147       35.162        0.104      331.971        0.329      855.379
02/02/2014  13:58:00       95.028       55.704       12.918       40.208       33.856       32.853     1616.723     1146.200     1079.350        0.807        0.192      110.151       24.494        0.049      331.883        0.186      855.377
02/02/2014  13:59:00       80.840       63.303       11.163       29.273       21.897       21.475      856.894      479.470      461.172        0.623        0.090      102.677       14.925        0.021      331.871        0.166      855.377
02/02/2014  14:00:00       50.382       50.569        5.584       23.648       18.454       19.837      559.208      340.565      393.495        0.321        0.065       71.383       12.430        0.030      331.918        0.242      855.381
02/02/2014  14:01:00       34.541       31.147       37.720       28.006       38.161       38.470      784.336     1456.262     1479.959        0.365        0.186       46.510       32.765        0.496      332.156        0.636      855.377
02/02/2014  14:02:00       84.940       91.085       43.439       70.888       32.065       47.017     5025.122     1028.159     2210.586        1.283        0.413      124.544       42.295        0.115      332.030        0.427      855.377
02/02/2014  14:03:00       49.871        7.815        8.838       34.541       49.995       32.909     1193.098     2499.485     1082.992        0.370        0.239       50.480       21.610        0.183      332.047        0.457      855.381
02/02/2014  14:04:00       69.763       59.990       37.815       34.172       32.568       24.364     1167.711     1060.686      593.616        0.636        0.141       92.009       11.781        0.016      332.000        0.377      855.378
02/02/2014  14:05:00       63.852       50.761       40.992       45.972       32.481       29.794     2113.429     1055.019      887.694        0.619        0.203       81.571       19.621        0.058      332.178        0.672      855.374
02/02/2014  14:06:00      141.351       93.513       16.166       51.249       33.675       42.260     2626.423     1133.976     1785.906        1.727        0.277      169.484       22.809        0.018      332.006        0.388      855.376
02/02/2014  14:07:00       89.237       58.097       29.182       39.920       32.250       31.767     1593.582     1040.071     1009.160        0.792        0.182      106.483       23.827        0.050      332.073        0.499      855.381
02/02/2014  14:08:00      118.123       61.084       47.322       62.073       59.732       44.455     3853.107     3567.878     1976.275        1.466        0.470      132.982       29.335        0.049      332.219        0.739      855.379
02/02/2014  14:09:00       67.627       92.775      100.878       87.769       74.922       52.707     7703.484     5613.259     2778.011        1.972        0.805      114.807       56.729        0.244      332.161        0.643      855.378
02/02/2014  14:10:00       59.654       82.743       68.625       51.411       64.938       47.920     2643.122     4216.897     2296.285        1.213        0.458      102.005       45.325        0.197      331.950        0.296      855.404
02/02/2014  14:11:00       47.238       42.051       72.085       57.992       51.847       43.450     3363.101     2688.138     1887.869        0.857        0.397       63.243       45.682        0.522      332.080        0.510      855.411
02/02/2014  14:12:00       76.398       13.783       51.834       64.253       53.947       39.618     4128.453     2910.294     1569.591        0.866        0.430       77.631       46.499        0.359      331.988        0.360      855.418
02/02/2014  14:13:00       70.280        7.458       30.785       46.701       65.353       50.718     2181.000     4271.017     2572.366        0.748        0.451       70.674       55.568        0.618      332.018        0.409      855.421
02/02/2014  14:14:00       25.930       56.520       62.827       25.265       29.784       22.762      638.299      887.111      518.113        0.493        0.102       62.184       18.284        0.086      332.091        0.527      855.425
02/02/2014  14:15:00      153.059      102.507       16.236       63.039       46.714       35.013     3973.967     2182.225     1225.904        2.079        0.369      184.214       18.252        0.010      331.952        0.297      855.426
02/02/2014  14:16:00      126.987       62.956        9.514       47.750       34.640       29.978     2280.032     1199.957      898.688        1.228        0.219      141.736       16.420        0.013      331.977        0.341      855.435
02/02/2014  14:17:00       99.986       57.122        6.670       47.309       33.055       30.642     2238.126     1092.653      938.950        0.879        0.213      115.153       22.791        0.039      332.048        0.459      855.451
02/02/2014  14:18:00       46.079       18.359        2.677       36.969       26.281       27.562     1366.672      690.672      759.690        0.264        0.141       49.602       10.882        0.048      332.128        0.590      855.449
02/02/2014  14:19:00       52.728       47.900        4.917       34.557       29.707       24.996     1194.191      882.485      624.797        0.390        0.135       71.237       20.679        0.084      332.038        0.439      855.444
02/02/2014  14:20:00       35.825       27.577        6.627       31.433       30.008       25.551      988.010      900.481      652.860        0.231        0.127       45.209       16.750        0.137      332.073        0.498      855.431
02/02/2014  14:21:00       64.109       59.742       19.817       41.216       26.906       32.788     1698.784      723.949     1075.046        0.578        0.175       87.630       16.890        0.037      332.022        0.415      855.430
02/02/2014  14:22:00       61.358       40.450       28.359       50.969       30.067       26.001     2597.885      904.052      676.061        0.519        0.209       73.492       16.799        0.052      332.165        0.649      855.432
02/02/2014  14:23:00       83.191       40.128       11.346       58.326       40.461       31.111     3401.966     1637.103      967.909        0.733        0.300       92.364       26.979        0.085      332.111        0.562      855.438
02/02/2014  14:24:00      102.283       79.793       23.366       62.971       36.643       29.490     3965.292     1342.698      869.689        1.178        0.309      129.726       27.898        0.046      332.156        0.636      855.441
02/02/2014  14:25:00       26.216       47.427       45.982       36.995       41.205       33.830     1368.595     1697.878     1144.465        0.463        0.211       54.190       20.093        0.137      332.403        1.044      855.440
02/02/2014  14:26:00       72.381       43.643       31.171       58.236       49.486       42.541     3391.476     2448.826     1809.743        0.788        0.383       84.521       33.843        0.160      332.203        0.713      855.443
02/02/2014  14:27:00      120.544       70.607       14.324       25.949       23.062       25.137      673.352      531.867      631.859        1.078        0.092      139.701       11.593        0.007      332.089        0.525      855.441
02/02/2014  14:28:00       24.126       67.521       63.184       42.314       39.278       46.904     1790.447     1542.722     2200.001        0.733        0.277       71.702       33.084        0.213      332.221        0.743      855.441
02/02/2014  14:29:00       21.672      105.807      104.398       48.226       39.626       26.657     2325.768     1570.180      710.598        1.358        0.230      108.004       23.640        0.048      331.991        0.363      855.440
02/02/2014  14:30:00      107.692       74.770       38.143       36.425       34.421       38.163     1326.754     1184.773     1456.401        1.130        0.198      131.103       22.281        0.029      331.960        0.311      855.441
02/02/2014  14:31:00       77.239       59.114       18.867       28.474       21.739       28.227      810.786      472.575      796.753        0.595        0.104       97.264        9.179        0.009      332.020        0.411      855.440
02/02/2014  14:32:00       63.597       61.205        9.457       31.626       21.408       35.110     1000.186      458.319     1232.729        0.529        0.135       88.264       13.750        0.024      331.944        0.286      855.432
02/02/2014  14:33:00       81.573       62.429       26.838       27.320       23.251       23.997      746.362      540.602      575.839        0.657        0.093      102.721       16.056        0.024      331.865        0.157      855.425
02/02/2014  14:34:00       23.268       32.045       -9.158       14.353       15.942       15.792      206.009      254.145      249.398        0.118        0.035       39.601        7.476        0.036      331.897        0.209      855.420
02/02/2014  14:35:00       27.564       60.692       -2.449       15.029       17.158       13.430      225.884      294.381      180.360        0.257        0.035       66.658        9.523        0.020      331.906        0.224      855.417
02/02/2014  14:36:00       93.608       62.777        4.904       45.666       35.777       29.917     2085.359     1279.973      895.023        0.849        0.213      112.710       18.503        0.027      331.998        0.376      855.418
02/02/2014  14:37:00      101.079       64.099       16.810       47.490       32.536       34.835     2255.332     1058.603     1213.506        0.957        0.226      119.689        9.933        0.007      332.068        0.490      855.416
02/02/2014  14:38:00       79.567       83.176       89.675       57.722       64.203       48.794     3331.797     4121.993     2380.836        1.556        0.492      115.105       51.347        0.199      332.034        0.434      855.424
02/02/2014  14:39:00      114.424       85.937       53.999       59.478       61.367       49.713     3537.665     3765.894     2471.362        1.658        0.489      143.101       40.154        0.079      332.002        0.379      855.435
02/02/2014  14:40:00       70.657       68.258       53.238       30.791       29.640       38.052      948.067      878.532     1447.931        0.788        0.164       98.242       26.496        0.073      332.006        0.387      855.444
02/02/2014  14:41:00       79.242       41.022       31.856       51.761       49.336       35.902     2679.188     2433.997     1288.985        0.769        0.320       89.231       31.944        0.128      332.025        0.419      855.442
02/02/2014  14:42:00       41.514       71.175       64.505       34.921       29.658       26.916     1219.479      879.622      724.475        0.689        0.141       82.397       22.053        0.072      332.057        0.474      855.442
02/02/2014  14:43:00       53.834       52.491       48.422       45.307       40.411       29.772     2052.752     1633.061      886.391        0.628        0.229       75.189       29.088        0.150      332.004        0.383      855.436
02/02/2014  14:44:00       49.593       18.347       30.442       31.828       28.895       22.309     1013.034      834.942      497.684        0.303        0.117       52.878       17.268        0.107      332.066        0.487      855.423
02/02/2014  14:45:00       53.825       40.244        4.436       28.170       21.762       15.594      793.527      473.591      243.171        0.302        0.076       67.207        7.937        0.014      332.005        0.386      855.417
02/02/2014  14:46:00       70.158       33.972       44.324       45.012       36.211       30.516     2026.079     1311.240      931.218        0.615        0.213       77.950       22.308        0.082      332.227        0.754      855.412
02/02/2014  14:47:00      109.872       73.507       58.638       52.339       48.229       41.824     2739.356     2326.032     1749.235        1.386        0.341      132.194       38.069        0.083      332.028        0.424      855.414
02/02/2014  14:48:00      107.549       34.045       38.896       32.876       32.686       38.099     1080.803     1068.346     1451.565        0.892        0.180      112.809       25.297        0.050      331.920        0.247      855.432
02/02/2014  14:49:00       39.661       37.042       62.103       32.997       31.988       19.817     1088.828     1023.213      392.709        0.465        0.125       54.268       17.539        0.104      332.114        0.565      855.434
02/02/2014  14:50:00       68.799       50.766       22.777       22.130       14.571       28.245      489.735      212.304      797.792        0.466        0.075       85.501       12.854        0.023      331.880        0.180      855.437
02/02/2014  14:51:00       35.754       42.333       -6.930       29.099       15.585       13.595      846.753      242.900      184.822        0.220        0.064       55.411       15.146        0.075      331.846        0.124      855.431
02/02/2014  14:52:00       26.198       26.244       17.414       22.803       19.421       26.645      519.968      377.180      709.935        0.164        0.080       37.082       17.611        0.226      331.985        0.353      855.434
02/02/2014  14:53:00       54.675       49.818       60.368       34.939       18.892       27.379     1220.764      356.913      749.625        0.572        0.116       73.967       20.967        0.080      331.970        0.330      855.442
02/02/2014  14:54:00       31.423       41.696       53.957       42.045       24.924       26.075     1767.758      621.181      679.903        0.435        0.153       52.210       16.069        0.095      332.028        0.425      855.436
02/02/2014  14:55:00       46.200       55.890       46.443       30.120       25.460       36.933      907.209      648.233     1364.073        0.517        0.146       72.513       22.890        0.100      331.924        0.252      855.448
02/02/2014  14:56:00       46.395       40.007       44.481       22.972       21.367       16.987      527.701      456.530      288.544        0.350        0.064       61.262        7.578        0.015      332.065        0.486      855.448
02/02/2014  14:57:00       52.646       52.533       55.359       43.723       24.670       19.974     1911.703      608.589      398.958        0.576        0.146       74.373       16.633        0.050      332.079        0.509      855.452
02/02/2014  14:58:00       26.909       16.620       63.383       36.235       33.414       24.263     1312.978     1116.477      588.691        0.402        0.151       31.627       21.445        0.460      332.262        0.811      855.448
02/02/2014  14:59:00       45.626        4.976       35.157       23.039       45.066       26.049      530.794     2030.963      678.545        0.329        0.162       45.897       31.391        0.468      332.020        0.411      855.440
02/02/2014  15:00:00       21.643       21.140       32.207       27.695       23.575       20.757      767.035      555.762      430.863        0.185        0.088       30.254       14.641        0.234      332.268        0.820      855.437
02/02/2014  15:01:00       -3.527      -11.657       18.646       17.719       20.138       20.121      313.968      405.555      404.858        0.081        0.056       12.179        7.625        0.392      332.256        0.802      855.427
02/02/2014  15:02:00       44.528       36.421       17.506       45.138       34.470       27.391     2037.419     1188.198      750.256        0.380        0.199       57.526       14.881        0.067      332.104        0.548      855.433
02/02/2014  15:03:00       78.896       78.866        6.465       27.099       23.141       19.497      734.368      535.527      380.143        0.707        0.083      111.554       10.704        0.009      331.920        0.245      855.431
02/02/2014  15:04:00       50.513       48.878       14.455       20.056       17.115       21.952      402.241      292.908      481.896        0.316        0.059       70.290        4.888        0.005      331.944        0.286      855.437
02/02/2014  15:05:00       47.907       57.288       12.678       13.556       18.183        9.782      183.756      330.614       95.694        0.317        0.031       74.679        6.371        0.007      331.869        0.163      855.432
02/02/2014  15:06:00       54.500       42.533        0.338       12.745       17.096       15.349      162.431      292.263      235.603        0.273        0.035       69.133       11.299        0.027      331.860        0.147      855.440
02/02/2014  15:07:00       38.764       41.386        1.535       16.225       19.091       20.106      263.251      364.477      404.238        0.212        0.052       56.705       15.153        0.071      331.948        0.293      855.433
02/02/2014  15:08:00       72.269       60.986       14.267       22.961       18.790       23.439      527.189      353.052      549.373        0.529        0.071       94.562        6.568        0.005      331.909        0.229      855.424
02/02/2014  15:09:00       56.716       39.647       46.463       29.128       33.056       26.541      848.461     1092.687      704.441        0.480        0.132       69.200       24.176        0.122      332.071        0.495      855.431
02/02/2014  15:10:00        3.775       42.032       44.934       23.180       26.586       20.767      537.307      706.813      431.271        0.274        0.084       42.201       15.642        0.137      332.154        0.632      855.429
02/02/2014  15:11:00       56.025       49.930       39.542       43.273       41.062       31.377     1872.511     1686.055      984.530        0.587        0.227       75.046       26.801        0.128      332.175        0.666      855.433
02/02/2014  15:12:00      105.880       60.649       29.795       32.959       35.473       26.911     1086.299     1258.360      724.208        0.942        0.153      122.020       17.579        0.021      331.916        0.242      855.439
02/02/2014  15:13:00       77.581       44.903       23.258       34.120       35.288       33.691     1164.196     1245.212     1135.069        0.606        0.177       89.639       26.486        0.087      331.920        0.247      855.442
02/02/2014  15:14:00       43.497       35.187       22.539       34.068       17.017       18.803     1160.595      289.592      353.571        0.272        0.090       55.948       20.442        0.133      331.968        0.325      855.439
02/02/2014  15:15:00       87.923       53.922       10.081       53.274       26.012       25.525     2838.096      676.609      651.502        0.745        0.208      103.141       20.287        0.039      331.986        0.356      855.425
02/02/2014  15:16:00       94.939       64.374       -0.599       29.228       23.405       23.403      854.298      547.781      547.705        0.755        0.097      114.705       12.668        0.012      331.975        0.336      855.427
02/02/2014  15:17:00       12.752       54.027       68.363       45.486       47.186       42.804     2068.962     2226.521     1832.160        0.694        0.306       55.512       41.360        0.555      332.128        0.590      855.432
02/02/2014  15:18:00       67.573       27.650       45.245       46.009       34.582       39.825     2116.813     1195.941     1586.035        0.614        0.245       73.012       29.040        0.158      331.988        0.358      855.457
02/02/2014  15:19:00       43.270       41.918       56.574       61.194       38.726       33.112     3744.690     1499.696     1096.388        0.658        0.317       60.244       38.454        0.407      332.131        0.595      855.464
02/02/2014  15:20:00       88.186       68.157       38.132       38.144       28.569       39.470     1454.984      816.192     1557.880        0.885        0.191      111.455       27.602        0.061      332.009        0.393      855.482
02/02/2014  15:21:00       69.089       53.775       65.009       34.434       35.984       29.824     1185.670     1294.844      889.451        0.763        0.168       87.550       24.054        0.075      331.972        0.332      855.484
02/02/2014  15:22:00       30.234       62.888       68.355       36.638       35.560       28.598     1342.326     1264.514      817.860        0.648        0.171       69.778       25.882        0.138      332.139        0.608      855.488
02/02/2014  15:23:00      105.657       83.849       52.646       35.095       27.267       32.267     1231.680      743.480     1041.189        1.199        0.151      134.885       21.060        0.024      331.923        0.251      855.489
02/02/2014  15:24:00       88.568       53.235       47.968       22.316       29.418       26.344      498.011      865.417      694.025        0.752        0.103      103.335       10.562        0.010      331.931        0.264      855.492
02/02/2014  15:25:00       53.943       29.793       17.417       19.359       16.503       17.775      374.787      272.362      315.949        0.253        0.048       61.624        5.828        0.009      331.891        0.198      855.491
02/02/2014  15:26:00       51.216       47.560       48.774       46.345       32.025       28.390     2147.880     1025.585      805.986        0.562        0.199       69.893       14.637        0.044      331.961        0.314      855.482
02/02/2014  15:27:00       33.641       52.976       63.630       42.448       34.950       36.165     1801.819     1221.481     1307.943        0.616        0.217       62.755       35.249        0.316      332.010        0.393      855.479
02/02/2014  15:28:00       73.840       61.473       11.521       26.282       29.985       25.903      690.731      899.108      670.946        0.581        0.113       96.079       27.519        0.082      331.841        0.114      855.486
02/02/2014  15:29:00       24.528       52.765       -7.896       21.159       31.909       20.233      447.718     1018.200      409.376        0.266        0.094       58.188       11.414        0.038      331.937        0.275      855.491
02/02/2014  15:30:00       27.474       26.378       21.070       24.150       22.383       14.348      583.240      500.988      205.867        0.159        0.065       38.087       12.864        0.114      332.138        0.604      855.502
02/02/2014  15:31:00       40.205       28.212       45.584       30.930       47.644       26.754      956.686     2269.980      715.782        0.422        0.197       49.116       22.124        0.203      332.130        0.593      855.501
02/02/2014  15:32:00      121.805       74.388       31.865       33.785       24.281       33.447     1141.414      589.545     1118.687        1.212        0.142      142.723       18.776        0.017      331.939        0.278      855.505
02/02/2014  15:33:00       84.587       75.430       29.909       21.796       21.382       23.140      475.084      457.204      535.463        0.760        0.073      113.334        5.414        0.002      331.951        0.298      855.512
02/02/2014  15:34:00       40.871       45.544       24.258       25.337       23.010       22.670      641.947      529.453      513.932        0.301        0.084       61.194       13.380        0.048      332.123        0.581      855.505
02/02/2014  15:35:00        5.846       25.881       59.596       22.461       28.152       20.055      504.493      792.527      402.193        0.298        0.085       26.533       16.050        0.366      332.270        0.823      855.512
02/02/2014  15:36:00       70.639       38.955       19.723       48.243       32.650       30.884     2327.405     1066.053      953.836        0.562        0.217       80.669       25.486        0.100      332.088        0.523      855.514
02/02/2014  15:37:00      115.432       71.408       12.327       31.015       27.067       19.509      961.931      732.616      380.608        1.033        0.104      135.734       12.651        0.009      331.909        0.227      855.530
02/02/2014  15:38:00       83.826       40.112       -7.071       38.368       22.421       21.896     1472.131      502.680      479.426        0.557        0.123       92.928       15.599        0.028      331.938        0.276      855.522
02/02/2014  15:39:00       96.877       48.500       15.601       34.984       26.655       26.826     1223.850      710.474      719.624        0.732        0.133      108.340       13.247        0.015      332.029        0.427      855.524
02/02/2014  15:40:00      128.748       74.821       37.113       42.056       30.800       37.931     1768.717      948.658     1438.791        1.385        0.208      148.910       20.230        0.018      331.993        0.365      855.513
02/02/2014  15:41:00      120.038       63.097       36.138       39.545       36.812       30.211     1563.843     1355.152      912.732        1.176        0.192      135.611       23.150        0.029      331.880        0.180      855.502
02/02/2014  15:42:00       25.364       51.337       47.117       38.620       33.423       31.574     1491.520     1117.068      996.900        0.455        0.180       57.261       25.997        0.206      332.053        0.466      855.500
02/02/2014  15:43:00       53.931       63.699       65.963       43.817       30.607       36.111     1919.943      936.764     1304.012        0.774        0.208       83.463       30.196        0.131      332.010        0.394      855.497
02/02/2014  15:44:00       70.471       52.372       44.405       33.535       26.064       32.703     1124.566      679.351     1069.501        0.628        0.144       87.801       23.285        0.070      331.972        0.331      855.512
02/02/2014  15:45:00       37.033       62.553       63.932       38.777       37.803       32.766     1503.645     1429.089     1073.614        0.669        0.200       72.693       25.470        0.123      332.041        0.446      855.509
02/02/2014  15:46:00       35.187       98.213       99.810       47.558       45.841       29.507     2261.763     2101.394      870.673        1.304        0.262      104.326       18.799        0.032      332.071        0.496      855.516
02/02/2014  15:47:00       92.520       58.360       37.954       34.176       37.751       36.594     1168.007     1425.144     1339.094        0.867        0.197      109.389       28.215        0.067      331.951        0.299      855.513
02/02/2014  15:48:00       98.602       61.858       28.580       41.646       28.703       22.966     1734.369      823.848      527.419        0.873        0.154      116.399       18.473        0.025      331.917        0.243      855.509
02/02/2014  15:49:00       28.827       24.861       32.586       34.618       34.569       32.014     1198.439     1195.041     1024.884        0.296        0.171       38.066       29.709        0.609      332.069        0.492      855.501
02/02/2014  15:50:00       60.152       46.687       29.450       34.286       29.713       23.812     1175.504      882.854      567.015        0.464        0.131       76.144       16.339        0.046      332.083        0.515      855.492
02/02/2014  15:51:00       88.866       55.271       22.482       38.514       28.317       29.015     1483.322      801.841      841.867        0.729        0.156      104.652       18.358        0.031      332.046        0.454      855.490
02/02/2014  15:52:00       86.674       42.900       29.576       41.702       28.751       26.464     1739.064      826.596      700.353        0.675        0.163       96.710       21.317        0.049      332.024        0.419      855.481
02/02/2014  15:53:00       79.867       67.074       31.320       34.919       18.384       20.928     1219.320      337.974      437.968        0.693        0.100      104.296       17.710        0.029      332.009        0.394      855.487
02/02/2014  15:54:00       57.951       45.136       16.163       20.817       19.162       25.851      433.348      367.168      668.272        0.356        0.073       73.455       12.249        0.028      332.010        0.396      855.480
02/02/2014  15:55:00       62.795       53.212       21.609       34.359       34.242       28.922     1180.561     1172.516      836.511        0.522        0.159       82.309       19.388        0.055      332.014        0.401      855.472
02/02/2014  15:56:00       79.383       49.854       19.702       21.810       24.171       20.968      475.688      584.246      439.640        0.534        0.075       93.739        6.399        0.005      331.933        0.268      855.468
02/02/2014  15:57:00       68.295       48.676        5.404       19.086       13.922       14.583      364.275      193.821      212.658        0.392        0.039       83.866        6.466        0.006      331.880        0.180      855.447
02/02/2014  15:58:00       56.560       46.380       18.559       14.076       14.343       25.485      198.123      205.724      649.502        0.337        0.053       73.144        2.033        0.001      331.986        0.355      855.437
02/02/2014  15:59:00       40.671        3.616       22.894       34.205       35.132       20.615     1169.957     1234.260      424.971        0.251        0.141       40.831       21.716        0.283      332.133        0.598      855.444
02/02/2014  16:00:00       87.320       49.859       18.770       24.574       30.010       21.485      603.904      900.618      461.598        0.621        0.098      100.552       18.048        0.032      332.023        0.416      855.438
02/02/2014  16:01:00       31.074       17.032        7.797       38.314       27.414       23.460     1467.936      751.548      550.355        0.204        0.138       35.436        4.010        0.013      332.217        0.735      855.432
02/02/2014  16:02:00       68.193       58.482       45.497       32.947       23.174       25.409     1085.513      537.049      645.642        0.620        0.113       89.836       14.326        0.025      332.063        0.484      855.437
02/02/2014  16:03:00       30.984       52.023       49.765       19.894       34.088       15.231      395.785     1161.961      231.974        0.397        0.089       60.550       14.690        0.059      332.196        0.702      855.432
02/02/2014  16:04:00       78.664       50.677       29.670       29.296       28.022       33.482      858.283      785.206     1121.020        0.620        0.138       93.575       22.388        0.057      332.091        0.527      855.426
02/02/2014  16:05:00       96.694       64.113       33.153       37.251       36.511       34.399     1387.631     1333.057     1183.280        0.923        0.195      116.018       18.539        0.026      332.134        0.601      855.427
02/02/2014  16:06:00       87.253       49.189       29.914       42.663       40.875       35.973     1820.099     1670.803     1294.021        0.786        0.239      100.163       28.865        0.083      332.096        0.537      855.441
02/02/2014  16:07:00       72.281       40.181        1.378       29.776       26.705       24.842      886.617      713.164      617.106        0.453        0.111       82.698       12.336        0.022      332.038        0.442      855.458
02/02/2014  16:08:00       87.387       68.352       29.894       28.959       29.763       22.864      838.619      885.860      522.775        0.772        0.112      110.944        5.742        0.003      332.059        0.475      855.453
02/02/2014  16:09:00       71.372       66.483       40.882       42.100       26.066       33.472     1772.408      679.444     1120.397        0.738        0.179       97.540       24.666        0.064      332.145        0.618      855.453
02/02/2014  16:10:00       19.613       40.051       34.468       26.708       26.907       22.322      713.313      724.003      498.262        0.256        0.097       44.596        8.204        0.034      332.207        0.720      855.447
02/02/2014  16:11:00       86.118       57.782       28.751       42.754       28.418       32.855     1827.880      807.611     1079.479        0.765        0.186      103.707       22.549        0.047      332.150        0.625      855.443
02/02/2014  16:12:00       62.717       61.094       20.969       28.666       22.412       28.754      821.747      502.294      826.770        0.513        0.108       87.555       13.728        0.025      332.202        0.711      855.445
02/02/2014  16:13:00       38.310       37.439       12.932       30.318       26.610       19.071      919.151      708.083      363.711        0.251        0.100       53.566       17.670        0.109      332.274        0.830      855.443
02/02/2014  16:14:00        2.391        9.092        1.776       25.938       27.743       22.334      672.796      769.676      498.810        0.102        0.097        9.401       17.939        3.641      332.225        0.748      855.445
02/02/2014  16:15:00       21.813       29.877        4.794       34.854       27.861       24.911     1214.832      776.259      620.551        0.200        0.131       36.992       19.940        0.291      332.157        0.637      855.443
02/02/2014  16:16:00       76.004       64.836       25.438       50.151       34.197       28.447     2515.086     1169.416      809.249        0.756        0.225       99.901       24.593        0.061      332.147        0.621      855.439
02/02/2014  16:17:00       84.190       58.530       11.915       25.329       21.881       26.431      641.564      478.768      698.624        0.624        0.091      102.537       20.110        0.038      331.943        0.285      855.451
02/02/2014  16:18:00       24.536       11.748        5.221       25.414       18.712       15.635      645.873      350.143      244.468        0.100        0.062       27.204       15.703        0.333      332.055        0.469      855.448
02/02/2014  16:19:00       62.811       33.781       19.801       55.499       23.182       29.411     3080.096      537.418      864.993        0.498        0.224       71.319       29.147        0.167      332.073        0.499      855.445
02/02/2014  16:20:00       25.448       10.952       34.360       24.802       37.265       26.996      615.135     1388.703      728.796        0.234        0.137       27.705       21.026        0.576      332.187        0.687      855.442
02/02/2014  16:21:00       45.639       21.952       33.805       16.212       30.718       21.105      262.826      943.587      445.404        0.268        0.083       50.644       15.668        0.096      332.101        0.546      855.441
02/02/2014  16:22:00       46.559       41.925       38.654       35.074       28.515       23.362     1230.158      813.102      545.796        0.400        0.129       62.653       16.639        0.071      332.190        0.692      855.430
02/02/2014  16:23:00       63.000       65.365       60.334       48.523       37.935       38.262     2354.523     1439.091     1463.948        0.857        0.263       90.784       28.660        0.100      332.164        0.650      855.427
02/02/2014  16:24:00       69.556       13.501       20.240       52.101       23.750       20.502     2714.492      564.047      420.343        0.456        0.185       70.854       16.376        0.053      332.036        0.438      855.431
02/02/2014  16:25:00       75.672       45.490       21.934       42.921       22.497       19.852     1842.254      506.118      394.120        0.551        0.137       88.293       17.933        0.041      332.053        0.465      855.423
02/02/2014  16:26:00       48.060       45.888       12.646       30.732       27.374       24.565      944.440      749.352      603.454        0.344        0.115       66.449       11.857        0.032      332.068        0.490      855.426
02/02/2014  16:27:00       17.209       34.529       28.007       15.333       15.966       22.803      235.101      254.908      519.997        0.164        0.051       38.580       11.309        0.086      332.145        0.617      855.426
02/02/2014  16:28:00       35.743       26.568       37.107       17.904       20.667       12.573      320.543      427.139      158.080        0.213        0.045       44.535        9.300        0.044      332.061        0.479      855.427
02/02/2014  16:29:00       35.380       66.496       71.891       30.412       24.824       20.705      924.905      616.221      428.680        0.641        0.098       75.323       15.312        0.041      332.018        0.409      855.422
02/02/2014  16:30:00       63.477       66.758       60.198       26.809       33.714       23.697      718.699     1136.657      561.556        0.726        0.121       92.119       15.250        0.027      332.044        0.450      855.424
02/02/2014  16:31:00       76.730       47.218       24.334       51.810       33.866       33.496     2684.277     1146.932     1121.982        0.683        0.248       90.094       28.272        0.098      332.091        0.527      855.426
02/02/2014  16:32:00       95.976       72.244       12.642       35.545       32.610       30.834     1263.422     1063.411      950.750        0.893        0.164      120.127       20.022        0.028      332.033        0.432      855.435
02/02/2014  16:33:00      130.298       80.849       -3.208       26.036       19.721       20.532      677.876      388.905      421.573        1.251        0.074      153.343        9.829        0.004      331.937        0.274      855.446
02/02/2014  16:34:00       83.058       56.280        6.688       20.147       17.633       20.175      405.897      310.931      407.025        0.562        0.056      100.329       10.442        0.011      331.960        0.312      855.461
02/02/2014  16:35:00       56.951       41.589        4.063       22.597       23.535       20.634      510.619      553.884      425.780        0.324        0.075       70.520        9.744        0.019      331.988        0.359      855.477
02/02/2014  16:36:00       70.125       48.548        4.451       34.842       21.740       19.717     1213.949      472.649      388.765        0.468        0.104       85.290       13.106        0.024      331.964        0.318      855.485
02/02/2014  16:37:00       82.042       50.937       16.510       23.774       13.927       13.855      565.227      193.949      191.966        0.527        0.048       96.568        8.026        0.007      331.981        0.346      855.498
02/02/2014  16:38:00       62.724       16.376       28.407       36.668       34.369       27.702     1344.542     1181.223      767.428        0.415        0.165       64.826       25.803        0.158      332.069        0.493      855.502
02/02/2014  16:39:00       71.599       47.384       26.320       18.140       18.135       25.872      329.049      328.870      669.358        0.470        0.066       85.858       15.125        0.031      331.948        0.290      855.502
02/02/2014  16:40:00       37.996       37.060        1.977       17.204        8.993       11.260      295.970       80.881      126.782        0.166        0.025       53.077        8.849        0.028      331.899        0.212      855.511
02/02/2014  16:41:00       69.185       52.194        5.356       20.468       16.347       16.742      418.938      267.215      280.279        0.425        0.048       86.665       10.970        0.016      331.957        0.307      855.513
02/02/2014  16:42:00       45.207       53.913        4.131       21.844       21.826       19.191      477.155      476.380      368.311        0.314        0.066       70.358        8.771        0.016      331.941        0.281      855.522
02/02/2014  16:43:00       51.079       53.133        5.027       25.704       24.105       23.448      660.713      581.057      549.821        0.362        0.090       73.703       18.829        0.065      331.958        0.310      855.537
02/02/2014  16:44:00       65.524       61.360       13.749       27.091       16.991       20.731      733.910      288.697      429.769        0.485        0.073       89.769       12.046        0.018      331.941        0.282      855.539
02/02/2014  16:45:00       60.798       47.299        1.017       31.543       21.138       15.018      994.991      446.826      225.526        0.380        0.083       77.030        8.648        0.013      331.973        0.333      855.549
02/02/2014  16:46:00       39.984       48.583       -1.382       16.995       20.940       14.580      288.824      438.498      212.571        0.245        0.047       62.921        6.357        0.010      331.963        0.317      855.555
02/02/2014  16:47:00       42.871       40.669        2.621       23.516       23.019       19.996      552.990      529.856      399.828        0.249        0.074       59.092       15.982        0.073      331.980        0.345      855.550
02/02/2014  16:48:00       36.646       38.457        3.802       14.685       14.569       14.552      215.650      212.260      211.773        0.174        0.032       53.121        7.333        0.019      331.941        0.283      855.556
02/02/2014  16:49:00       39.577       34.118        2.604       19.322       12.457        9.068      373.333      155.175       82.233        0.167        0.031       52.253        9.512        0.033      331.932        0.266      855.567
02/02/2014  16:50:00       45.936       32.268        2.850       17.650       13.654       11.712      311.521      186.422      137.178        0.190        0.032       56.137        8.532        0.023      331.969        0.327      855.586
02/02/2014  16:51:00       79.436       43.554       22.705       29.518       21.200       22.148      871.297      449.425      490.528        0.527        0.091       90.593       11.863        0.017      332.061        0.479      855.605
02/02/2014  16:52:00       68.678       44.106       32.980       31.728       22.405       19.951     1006.678      501.984      398.024        0.483        0.095       81.621        9.497        0.014      332.066        0.487      855.622
02/02/2014  16:53:00       61.503       49.577       63.632       26.780       32.572       22.068      717.170     1060.914      486.976        0.628        0.113       78.997       20.905        0.070      332.085        0.519      855.630
02/02/2014  16:54:00       88.730       57.263       28.217       31.187       32.964       27.592      972.602     1086.653      761.301        0.738        0.141      105.603       17.961        0.029      332.046        0.455      855.634
02/02/2014  16:55:00       44.957       58.859       47.539       24.589       18.594       13.304      604.635      345.743      177.004        0.444        0.056       74.064        6.403        0.007      331.967        0.325      855.627
02/02/2014  16:56:00       42.500       61.478       54.864       20.947       30.089       23.756      438.756      905.321      564.337        0.525        0.095       74.738       13.505        0.033      332.081        0.511      855.630
02/02/2014  16:57:00       52.116       48.186       36.104       22.430       23.408       29.475      503.103      547.927      868.795        0.413        0.096       70.979       16.833        0.056      332.066        0.485      855.641
02/02/2014  16:58:00       55.385       56.004       17.628       25.516       18.811       28.148      651.059      353.858      792.324        0.416        0.090       78.765       14.640        0.035      332.108        0.556      855.654
02/02/2014  16:59:00       20.845       44.242       41.158       42.204       35.731       39.089     1781.182     1276.697     1527.971        0.434        0.229       48.907       36.336        0.552      332.088        0.522      855.666
02/02/2014  17:00:00       67.211       66.021        9.949       18.918       24.881       24.899      357.895      619.083      619.981        0.529        0.080       94.213        9.958        0.011      331.983        0.351      855.675
02/02/2014  17:01:00       56.020       45.888       16.200       16.695       17.250       17.646      278.722      297.560      311.366        0.320        0.044       72.415       12.904        0.032      331.992        0.366      855.682
02/02/2014  17:02:00       65.281       43.752       24.933       24.872       32.898       19.553      618.621     1082.258      382.327        0.444        0.104       78.586       15.448        0.039      332.028        0.425      855.680
02/02/2014  17:03:00       26.839       31.153       14.389       26.353       28.126       21.939      694.472      791.044      481.316        0.193        0.098       41.119       19.083        0.215      332.085        0.519      855.672
02/02/2014  17:04:00       27.523       43.271       43.880       37.706       34.343       28.957     1421.773     1179.419      838.487        0.400        0.172       51.282       20.925        0.166      332.083        0.515      855.666
02/02/2014  17:05:00       33.599       52.614       39.395       32.713       22.929       28.451     1070.137      525.735      809.458        0.393        0.120       62.427       14.909        0.057      332.035        0.437      855.664
02/02/2014  17:06:00       52.346       44.862        5.467       23.622       18.492       21.489      558.007      341.954      461.788        0.307        0.068       68.940        8.906        0.017      332.017        0.407      855.662
02/02/2014  17:07:00       46.803       44.540        5.386       22.678       17.650       14.701      514.293      311.514      216.116        0.262        0.052       64.609        9.892        0.023      332.008        0.393      855.668
02/02/2014  17:08:00       66.630       61.688        4.627       18.464       20.675       18.548      340.912      427.454      344.035        0.469        0.056       90.802       11.522        0.016      331.937        0.274      855.678
02/02/2014  17:09:00       23.240       62.578       -3.886       20.910       14.947       15.008      437.243      223.404      225.229        0.268        0.044       66.754        7.023        0.011      331.945        0.289      855.679
02/02/2014  17:10:00       27.838       61.966        7.601       27.558       27.104       22.675      759.430      734.605      514.171        0.334        0.100       67.932       20.686        0.093      331.956        0.306      855.680
02/02/2014  17:11:00       67.101       37.350       13.213       21.067       16.531       16.515      443.799      273.283      272.754        0.353        0.049       76.796       12.432        0.026      332.016        0.404      855.680
02/02/2014  17:12:00      104.027       59.784       24.492       24.209       19.338       24.430      586.084      373.958      596.836        0.828        0.078      119.982       17.081        0.020      331.971        0.330      855.680
02/02/2014  17:13:00       63.734       59.608       22.558       16.260       13.751       13.646      264.395      189.099      186.207        0.438        0.032       87.264        0.804        0.000      331.925        0.255      855.689
02/02/2014  17:14:00       65.911       51.822       24.534       14.530       10.974       15.022      211.124      120.420      225.659        0.409        0.028       83.843        9.060        0.012      331.943        0.286      855.692
02/02/2014  17:15:00       73.642       60.687       39.168       33.196       21.783       24.474     1101.965      474.498      598.958        0.641        0.109       95.426       17.931        0.035      332.033        0.433      855.683
02/02/2014  17:16:00       57.216       47.722       48.713       28.204       32.805       24.783      795.490     1076.181      614.206        0.520        0.124       74.506       10.737        0.021      332.134        0.600      855.691
02/02/2014  17:17:00       97.616       62.471        9.732       26.474       22.710       35.046      700.890      515.752     1228.251        0.799        0.122      115.894       20.690        0.032      331.989        0.359      855.697
02/02/2014  17:18:00       75.257       58.387       27.275       23.568       22.507       19.928      555.442      506.585      397.124        0.564        0.073       95.251       16.873        0.031      331.983        0.351      855.705
02/02/2014  17:19:00       48.411       56.205       34.069       17.782       14.771       16.521      316.193      218.184      272.943        0.374        0.040       74.180        6.538        0.008      331.979        0.345      855.703
02/02/2014  17:20:00        5.598       15.912        9.390       12.291       14.742       12.834      151.081      217.317      164.706        0.045        0.027       16.868       11.016        0.426      332.054        0.467      855.704
02/02/2014  17:21:00       24.124       43.405       36.698       27.633       20.719       13.029      763.590      429.265      169.768        0.259        0.068       49.658        5.116        0.011      332.121        0.578      855.708
02/02/2014  17:22:00       30.259       51.309       44.664       31.738       30.040       21.986     1007.306      902.418      483.372        0.397        0.120       59.567       18.496        0.096      332.125        0.584      855.715
02/02/2014  17:23:00       75.473       65.394       33.429       29.806       20.203       27.926      888.405      408.175      779.838        0.658        0.104       99.863       21.241        0.045      332.031        0.430      855.732
02/02/2014  17:24:00       57.439       35.146       39.022       33.106       26.577       23.760     1096.031      706.353      564.535        0.421        0.118       67.339       20.342        0.091      332.024        0.418      855.739
02/02/2014  17:25:00       50.282       29.464       32.268       30.000       22.642       27.533      899.989      512.653      758.091        0.330        0.109       58.279       23.189        0.158      332.025        0.420      855.733
02/02/2014  17:26:00       56.697       51.662       43.733       29.342       22.912       22.822      860.958      524.958      520.865        0.485        0.095       76.704       17.973        0.055      332.053        0.465      855.728
02/02/2014  17:27:00       38.868       36.734       26.172       25.849       24.127       21.504      668.172      582.103      462.442        0.263        0.086       53.480       16.783        0.098      332.051        0.461      855.718
02/02/2014  17:28:00       13.774       59.140       49.222       24.307       24.440       27.256      590.811      597.333      742.870        0.402        0.097       60.723       22.506        0.137      332.069        0.493      855.711
02/02/2014  17:29:00       14.007       58.770       57.384       30.541       34.393       19.809      932.780     1182.861      392.411        0.473        0.125       60.416       16.336        0.073      332.088        0.524      855.710
02/02/2014  17:30:00       39.865       38.440       38.579       41.840       25.286       30.234     1750.620      639.396      914.071        0.393        0.165       55.379       27.731        0.251      332.076        0.503      855.714
02/02/2014  17:31:00       59.410       38.981        8.874       16.287       17.820       14.924      265.276      317.550      222.712        0.297        0.040       71.057        6.090        0.007      331.998        0.376      855.718
02/02/2014  17:32:00       78.004       39.470       11.590       15.957       19.620       22.374      254.635      384.952      500.605        0.446        0.057       87.422       11.352        0.017      332.016        0.405      855.721
02/02/2014  17:33:00       61.533       28.743       13.961       22.000       16.841       21.879      483.989      283.614      478.689        0.303        0.062       67.916       12.968        0.036      332.035        0.436      855.727
02/02/2014  17:34:00       47.178       40.900       27.035       23.630       22.130       22.235      558.392      489.721      494.383        0.309        0.077       62.438       14.880        0.057      332.063        0.483      855.736
02/02/2014  17:35:00       71.718       56.482       32.730       33.856       21.561       26.346     1146.206      464.879      694.130        0.585        0.115       91.289       20.581        0.051      332.045        0.452      855.741
02/02/2014  17:36:00       88.140       45.476       21.216       39.031       35.964       29.490     1523.447     1293.438      869.688        0.699        0.184       99.180       24.492        0.061      332.018        0.408      855.745
02/02/2014  17:37:00       75.348       63.118       28.521       24.763       19.204       21.164      613.192      368.778      447.936        0.595        0.071       98.291       10.954        0.012      331.985        0.352      855.748
02/02/2014  17:38:00       88.514       59.965       26.030       20.799       17.728       22.895      432.601      314.280      524.163        0.669        0.064      106.914       10.580        0.010      331.960        0.313      855.743
02/02/2014  17:39:00       84.903       71.351       13.792       24.842       22.770       24.440      617.101      518.474      597.331        0.711        0.087      110.903       14.190        0.016      331.931        0.264      855.734
02/02/2014  17:40:00       84.810       51.848       16.576       29.389       19.684       25.731      863.725      387.445      662.072        0.603        0.096       99.403       16.020        0.026      331.969        0.328      855.730
02/02/2014  17:41:00       97.058       43.933       -2.696       28.303       22.419       18.847      801.072      502.618      355.199        0.651        0.083      106.538       11.625        0.012      331.919        0.245      855.727
02/02/2014  17:42:00       64.356       42.762        7.646       25.588       34.029       24.909      654.733     1157.974      620.433        0.423        0.122       77.267       14.307        0.034      331.931        0.264      855.734
02/02/2014  17:43:00       71.289       68.463       22.302       22.904       14.920       22.277      524.571      222.606      496.256        0.575        0.062       98.840       14.985        0.023      331.889        0.195      855.734
02/02/2014  17:44:00       62.149       50.075       -0.568       19.452       18.815       15.335      378.390      353.990      235.176        0.367        0.048       79.812       12.714        0.025      331.913        0.235      855.735
02/02/2014  17:45:00       56.222       58.613       14.497       24.175       16.159       20.821      584.423      261.114      433.501        0.404        0.064       81.218       15.565        0.037      331.932        0.266      855.722
02/02/2014  17:46:00       69.419       51.435       24.658       32.226       22.576       23.123     1038.536      509.687      534.688        0.508        0.104       86.397       12.890        0.022      331.984        0.351      855.725
02/02/2014  17:47:00       65.298       43.185       30.070       33.192       34.242       33.182     1101.700     1172.516     1101.013        0.520        0.169       78.286       24.648        0.099      332.016        0.403      855.732
02/02/2014  17:48:00       84.240       48.035       25.537       37.105       25.984       28.374     1376.792      675.188      805.067        0.646        0.143       96.973       18.528        0.037      331.971        0.331      855.745
02/02/2014  17:49:00       67.643       56.900       33.026       37.226       20.473       24.841     1385.799      419.141      617.096        0.566        0.121       88.392       18.647        0.045      331.893        0.200      855.757
02/02/2014  17:50:00       56.645       39.535       27.637       21.298       18.707       20.532      453.611      349.958      421.547        0.338        0.061       69.078       12.990        0.035      331.910        0.229      855.778
02/02/2014  17:51:00       67.403       43.931       20.611       13.146       13.050       13.650      172.818      170.295      186.328        0.371        0.026       80.456        7.083        0.008      331.877        0.174      855.800
02/02/2014  17:52:00       60.327       39.243       11.891       14.688        9.315       16.674      215.740       86.775      278.033        0.295        0.029       71.968       11.101        0.024      331.899        0.209      855.815
02/02/2014  17:53:00       84.225       49.136        5.963       14.750       17.826       16.628      217.568      317.766      276.490        0.518        0.041       97.509        9.800        0.010      331.882        0.183      855.822
02/02/2014  17:54:00       80.429       51.635       23.963       20.925       22.304       25.967      437.837      497.487      674.263        0.566        0.080       95.577       15.965        0.028      331.932        0.266      855.838
02/02/2014  17:55:00       55.976       48.100       29.973       20.914       12.307       14.708      437.375      151.458      216.338        0.358        0.040       73.803        7.699        0.011      331.881        0.181      855.850
02/02/2014  17:56:00       57.647       39.884        7.386       23.586       12.762       15.818      556.314      162.865      250.198        0.297        0.048       70.100       10.181        0.021      331.896        0.207      855.853
02/02/2014  17:57:00       59.564       35.847        0.028       13.645       10.523       14.592      186.195      110.741      212.922        0.267        0.025       69.519        8.976        0.017      331.907        0.225      855.859
02/02/2014  17:58:00       46.360       31.145        5.958       16.780       11.416       16.109      281.583      130.324      259.496        0.191        0.034       55.851       10.643        0.036      331.895        0.203      855.865
02/02/2014  17:59:00       65.552       35.216       17.145       17.950       14.120       22.669      322.213      199.375      513.864        0.343        0.052       74.412       11.321        0.023      331.893        0.201      855.879
02/02/2014  18:00:00       87.051       51.995        1.790       20.551       13.985       16.065      422.326      195.582      258.093        0.558        0.044      101.397       14.102        0.019      331.861        0.147      855.893
02/02/2014  18:01:00       79.594       53.861       26.766       20.259       13.296       21.491      410.444      176.792      461.855        0.550        0.052       96.106        9.283        0.009      331.916        0.238      855.898
02/02/2014  18:02:00       54.811       48.121       28.884       19.845       13.402       18.548      393.812      179.613      344.043        0.354        0.046       72.937       13.728        0.035      331.858        0.144      855.896
02/02/2014  18:03:00       65.982       50.235       33.872       24.879       17.398       24.383      618.942      302.686      594.552        0.477        0.076       82.929       18.251        0.048      331.881        0.182      855.907
02/02/2014  18:04:00       78.261       54.774       27.560       20.621       17.214       20.218      425.220      296.323      408.774        0.551        0.057       95.525        8.091        0.007      331.854        0.138      855.909
02/02/2014  18:05:00       68.370       61.291       32.807       15.563       16.242       16.722      242.217      263.813      279.636        0.515        0.039       91.821        7.608        0.007      331.888        0.194      855.896
02/02/2014  18:06:00       72.780       52.041       21.510       12.301       12.101       17.539      151.325      146.422      307.625        0.454        0.030       89.471        8.710        0.009      331.830        0.098      855.887
02/02/2014  18:07:00       63.753       54.113       16.779       18.834       18.695       17.077      354.727      349.499      291.632        0.413        0.050       83.622       12.412        0.022      331.855        0.138      855.881
02/02/2014  18:08:00       91.530       35.921       14.594       28.726       27.833       26.156      825.202      774.678      684.136        0.608        0.114       98.326       14.704        0.022      331.859        0.146      855.878
02/02/2014  18:09:00       72.542       62.870       33.063       44.869       32.615       36.186     2013.185     1063.762     1309.463        0.735        0.219       95.995       34.933        0.132      331.837        0.109      855.884
02/02/2014  18:10:00       54.141       35.494       52.380       41.212       25.835       21.745     1698.388      667.430      472.832        0.489        0.142       64.739       24.366        0.142      331.867        0.159      855.887
02/02/2014  18:11:00       35.005       49.882       52.728       31.317       21.471       14.888      980.724      460.991      221.651        0.408        0.083       60.939        9.529        0.024      331.869        0.162      855.886
02/02/2014  18:12:00       91.563       57.629       27.737       39.248       39.395       36.898     1540.416     1551.932     1361.479        0.846        0.223      108.189       28.547        0.070      331.865        0.156      855.881
02/02/2014  18:13:00       78.070       44.268       15.781       30.334       24.076       33.677      920.131      579.652     1134.112        0.547        0.132       89.747       17.242        0.037      331.867        0.159      855.871
02/02/2014  18:14:00      102.834       63.501       21.581       17.806       14.604       20.736      317.049      213.283      429.979        0.802        0.048      120.860        7.579        0.004      331.771        0.005      855.877
02/02/2014  18:15:00       82.794       57.531       21.164       21.574       15.504       18.232      465.451      240.370      332.411        0.583        0.052      100.819       12.834        0.016      331.760       -0.015      855.886
02/02/2014  18:16:00       70.777       47.958       28.420       22.530       14.807       25.660      507.593      219.247      658.417        0.475        0.069       85.495       11.574        0.018      331.773        0.004      855.902
02/02/2014  18:17:00       69.154       49.013       22.357       18.422       15.607       23.345      339.354      243.573      545.001        0.441        0.056       84.761       16.618        0.038      331.795        0.041      855.913
02/02/2014  18:18:00       64.426       55.955       34.187       26.152       16.060       22.989      683.905      257.920      528.499        0.496        0.074       85.333       19.922        0.055      331.814        0.073      855.922
02/02/2014  18:19:00       78.601       49.077        1.994       19.365       18.080       18.027      374.988      326.899      324.960        0.481        0.051       92.665        7.868        0.007      331.746       -0.040      855.935
02/02/2014  18:20:00       50.350       48.876        2.603       17.380       15.445       12.463      302.049      238.537      155.330        0.281        0.035       70.172       11.251        0.026      331.753       -0.027      855.959
02/02/2014  18:21:00       37.001       44.142        0.218       22.090       16.460       12.408      487.961      270.919      153.947        0.212        0.046       57.598       11.325        0.039      331.767       -0.006      855.984
02/02/2014  18:22:00       32.380       71.296       -6.200       19.621       28.338       16.929      384.968      803.049      286.586        0.382        0.074       78.304       18.384        0.055      331.744       -0.042      856.006
02/02/2014  18:23:00       40.874       64.361       -4.523       18.487       25.202       19.564      341.756      635.136      382.753        0.360        0.068       76.244       17.343        0.052      331.750       -0.033      856.027
02/02/2014  18:24:00       22.609       61.684       -6.425       17.964       17.100       16.712      322.703      292.419      279.280        0.263        0.045       65.697       10.696        0.027      331.760       -0.017      856.045
02/02/2014  18:25:00       15.519      126.384      -21.417       17.687       30.153       13.671      312.814      909.191      186.895        0.904        0.070      127.333       16.067        0.016      331.738       -0.052      856.078
02/02/2014  18:26:00       26.535       72.793       -4.272       28.876       33.178       22.380      833.809     1100.749      500.844        0.423        0.122       77.479       20.837        0.072      331.774        0.005      856.107
02/02/2014  18:27:00       21.257      102.502      -17.472       15.765       31.615       14.110      248.521      999.512      199.097        0.636        0.072      104.682       13.236        0.016      331.756       -0.024      856.119
02/02/2014  18:28:00       27.086       97.137      -11.234       23.186       35.977       18.990      537.589     1294.378      360.625        0.624        0.110      100.843       16.440        0.027      331.780        0.016      856.127
02/02/2014  18:29:00       31.688       89.899       -6.607       25.974       55.038       23.064      674.673     3029.202      531.935        0.668        0.212       95.320       29.161        0.094      331.784        0.023      856.137
02/02/2014  18:30:00        8.947       82.388       -8.449       25.344       31.638       21.036      642.335     1000.947      442.499        0.451        0.104       82.873       18.729        0.051      331.779        0.013      856.152
02/02/2014  18:31:00       16.449       40.481       -5.770       12.953       20.748       15.782      167.772      430.474      249.066        0.139        0.042       43.695       11.771        0.073      331.838        0.111      856.177
02/02/2014  18:32:00       44.833       51.217       -6.654       19.831       24.382       14.685      393.251      594.477      215.655        0.294        0.060       68.067       10.914        0.026      331.816        0.076      856.186
02/02/2014  18:33:00       18.998       71.471       -6.936       21.359       37.044       18.741      456.212     1372.286      351.211        0.385        0.109       73.953       22.645        0.094      331.779        0.012      856.194
02/02/2014  18:34:00       32.230       67.344       -2.687       26.373       35.680       22.462      695.525     1273.094      504.547        0.403        0.124       74.660       26.161        0.123      331.838        0.112      856.192
02/02/2014  18:35:00       10.854       75.102       -8.879       21.203       20.287       19.196      449.583      411.578      368.490        0.353        0.061       75.882       14.030        0.034      331.782        0.017      856.193
02/02/2014  18:36:00       14.411       73.623      -12.172       22.914       26.034       14.164      525.036      677.782      200.631        0.359        0.070       75.021       11.538        0.024      331.773        0.005      856.192
02/02/2014  18:37:00       12.991       45.400       -3.265       17.084       19.474       12.997      291.855      379.255      168.912        0.154        0.042       47.222        5.204        0.012      331.796        0.044      856.204
02/02/2014  18:38:00       13.518       29.215        1.600       17.314       13.780       12.183      299.762      189.875      148.421        0.084        0.032       32.190        8.073        0.063      331.822        0.085      856.208
02/02/2014  18:39:00       18.534        6.934       -3.801       19.276       15.503       11.559      371.552      240.343      133.604        0.058        0.037       19.789        5.763        0.085      331.790        0.032      856.222
02/02/2014  18:40:00       10.595        1.889       -0.093       24.639       12.530        9.629      607.077      157.002       92.725        0.049        0.043       10.762        6.812        0.401      331.845        0.123      856.225
02/02/2014  18:41:00       19.501       23.698       -4.426       22.145       19.229       15.492      490.423      369.738      239.987        0.103        0.055       30.690       12.429        0.164      331.827        0.092      856.234
02/02/2014  18:42:00       25.404       35.425        2.662       20.441       31.302       19.651      417.825      979.826      386.171        0.185        0.089       43.592       15.772        0.131      331.817        0.076      856.245
02/02/2014  18:43:00       22.945       63.727       -3.904       21.015       27.134       15.936      441.636      736.243      253.951        0.302        0.072       67.732       10.741        0.025      331.787        0.026      856.248
02/02/2014  18:44:00       25.590       60.549       -6.469       17.177       27.593       16.624      295.046      761.380      276.347        0.285        0.067       65.735       13.709        0.043      331.805        0.058      856.253
02/02/2014  18:45:00       35.842       53.335        0.030       22.226       25.927       22.732      494.001      672.204      516.741        0.291        0.084       64.260       19.088        0.088      331.804        0.054      856.263
02/02/2014  18:46:00       40.694       35.772        2.320       15.487       20.267       22.686      239.832      410.768      514.666        0.205        0.058       54.181       17.836        0.108      331.841        0.115      856.264
02/02/2014  18:47:00       23.722       29.108       -4.258       21.949       25.083       17.559      481.768      629.148      308.327        0.142        0.071       37.551        9.103        0.059      331.800        0.048      856.270
02/02/2014  18:48:00        9.347        3.443        3.501       15.830       23.692       15.647      250.574      561.296      244.839        0.058        0.053        9.961       10.472        1.105      331.869        0.163      856.274
02/02/2014  18:49:00       11.908       35.482       -6.749       15.414       23.582       14.301      237.597      556.118      204.510        0.122        0.050       37.427       15.041        0.161      331.832        0.101      856.284
02/02/2014  18:50:00       10.441       32.746       -6.827       14.983       12.223        7.997      224.502      149.411       63.948        0.083        0.022       34.370        2.206        0.004      331.820        0.080      856.286
02/02/2014  18:51:00       25.197       39.401       -0.310       15.082       19.136       12.104      227.470      366.201      146.507        0.146        0.037       46.769        6.385        0.019      331.848        0.127      856.293
02/02/2014  18:52:00       29.538       36.954        0.354       19.407       18.987       12.613      376.623      360.515      159.099        0.157        0.045       47.309       10.523        0.049      331.872        0.166      856.295
02/02/2014  18:53:00       35.517       33.629       -5.405       16.655       23.497       20.792      277.404      552.088      432.296        0.184        0.063       48.912       16.397        0.112      331.837        0.109      856.296
02/02/2014  18:54:00       25.460       37.052       -5.192       34.161       20.782       18.511     1166.972      431.890      342.668        0.199        0.097       44.957        9.119        0.041      331.829        0.096      856.298
02/02/2014  18:55:00       26.374      106.003      -10.308       19.159       52.042       23.397      367.058     2708.420      547.423        0.783        0.181      109.235       30.150        0.076      331.852        0.133      856.302
02/02/2014  18:56:00       15.006       49.452       -1.045       19.655       29.308       18.154      386.311      858.961      329.581        0.212        0.079       51.679       19.524        0.143      331.925        0.253      856.302
02/02/2014  18:57:00       20.538       68.950       -5.016       13.019       18.205       16.398      169.497      331.436      268.892        0.299        0.038       71.944       12.051        0.028      331.892        0.200      856.296
02/02/2014  18:58:00       15.504       50.719       -3.514       11.757       17.343       17.109      138.218      300.789      292.713        0.178        0.037       53.036       14.455        0.074      331.871        0.164      856.295
02/02/2014  18:59:00       25.400       62.378      -12.705       17.725       27.816       13.127      314.191      773.709      172.310        0.298        0.063       67.351       14.183        0.044      331.856        0.139      856.302
02/02/2014  19:00:00       -7.243       75.363      -15.986       13.583       12.288        9.359      184.511      151.006       87.591        0.321        0.021       75.710        2.553        0.001      331.839        0.112      856.300
02/02/2014  19:01:00       17.251       52.642       -6.580       24.391       15.235       11.681      594.904      232.095      136.456        0.204        0.048       55.397        5.213        0.009      331.856        0.140      856.304
02/02/2014  19:02:00       22.855       37.598       -4.726       16.426       15.072       13.103      269.817      227.172      171.690        0.131        0.033       44.000        9.570        0.047      331.848        0.127      856.307
02/02/2014  19:03:00        3.272       62.912       -9.810       18.537       36.874       13.479      343.624     1359.704      181.687        0.297        0.094       62.997       19.070        0.092      331.878        0.175      856.314
02/02/2014  19:04:00       34.976       50.824       -8.277       19.412       24.992       14.377      376.807      624.585      206.688        0.254        0.060       61.696       10.940        0.031      331.868        0.159      856.319
02/02/2014  19:05:00       -6.907       50.306       -3.846       26.933       31.281       23.953      725.365      978.526      573.759        0.244        0.114       50.778       19.597        0.149      331.947        0.290      856.326
02/02/2014  19:06:00        7.122       67.291       -9.192       19.685       28.668       23.198      387.489      821.829      538.144        0.321        0.087       67.667       23.105        0.117      331.874        0.171      856.333
02/02/2014  19:07:00        3.134       26.844       12.657       18.216       15.245       15.443      331.815      232.406      238.499        0.085        0.040       27.026       10.597        0.154      331.942        0.282      856.333
02/02/2014  19:08:00       15.834       39.189       -0.427       13.769       18.910       11.062      189.586      357.594      122.362        0.123        0.033       42.267        8.738        0.043      331.886        0.190      856.339
02/02/2014  19:09:00       21.401       52.184       -5.189       16.387       43.995       17.357      268.533     1935.558      301.249        0.286        0.125       56.402       23.900        0.180      331.898        0.210      856.358
02/02/2014  19:10:00       -1.647       64.081       -0.536       28.763       23.291       21.186      827.332      542.455      448.829        0.296        0.091       64.102       16.145        0.063      331.902        0.217      856.368
02/02/2014  19:11:00       27.158       49.395       -3.813       19.541       26.308       14.736      381.836      692.104      217.159        0.224        0.065       56.369       10.132        0.032      331.872        0.167      856.373
02/02/2014  19:12:00       19.067       81.787      -12.464       14.875       29.908       12.454      221.279      894.488      155.103        0.424        0.064       83.980       13.203        0.025      331.873        0.169      856.378
02/02/2014  19:13:00       24.672       29.190        8.577       26.133       18.505       17.508      682.931      342.420      306.537        0.143        0.067       38.219        7.106        0.035      331.979        0.344      856.381
02/02/2014  19:14:00       63.262       59.088        5.177       24.505       22.544       25.040      600.484      508.246      627.001        0.463        0.087       86.565       14.121        0.027      331.854        0.137      856.388
02/02/2014  19:15:00       73.188       50.609       -1.901       13.428       12.808       15.815      180.318      164.038      250.116        0.426        0.030       88.982        3.825        0.002      331.829        0.095      856.400
02/02/2014  19:16:00       59.630       46.094       -1.390       19.344       14.478       17.701      374.202      209.613      313.322        0.329        0.045       75.368        8.275        0.012      331.842        0.118      856.411
02/02/2014  19:17:00       60.295       30.034        2.722       18.674       13.184       13.933      348.711      173.805      194.137        0.263        0.036       67.361        9.640        0.020      331.848        0.128      856.428
02/02/2014  19:18:00       58.153       36.639        0.220       23.397       16.305       20.036      547.414      265.856      401.425        0.297        0.061       68.732       10.316        0.023      331.892        0.199      856.439
02/02/2014  19:19:00       37.695       58.830       -2.165       21.328       20.126       19.318      454.886      405.059      373.170        0.306        0.062       69.871       14.037        0.040      331.871        0.166      856.448
02/02/2014  19:20:00       41.053       51.435        1.113       20.972       23.224       17.060      439.844      539.358      291.049        0.280        0.064       65.810       14.469        0.048      331.875        0.170      856.452
02/02/2014  19:21:00       26.989       62.594      -13.765       10.602       21.415       13.158      112.406      458.610      173.126        0.279        0.037       68.164       12.037        0.031      331.866        0.158      856.459
02/02/2014  19:22:00       29.745       41.872        5.886       19.281       19.943       17.240      371.739      397.730      297.208        0.187        0.053       51.362       12.686        0.061      331.900        0.214      856.462
02/02/2014  19:23:00       30.938       41.671        1.353       16.174       25.329       17.863      261.614      641.547      319.085        0.196        0.061       51.900       12.347        0.057      331.894        0.201      856.475
02/02/2014  19:24:00       27.890       46.807       -5.058       17.817       22.311       12.455      317.444      497.769      155.136        0.198        0.049       54.486        9.972        0.033      331.886        0.190      856.484
02/02/2014  19:25:00       34.422       38.558       -7.333       20.166       16.445       13.394      406.687      270.436      179.390        0.179        0.043       51.687       11.077        0.046      331.898        0.209      856.493
02/02/2014  19:26:00       22.086       28.816       -6.723       14.430       24.945       14.001      208.227      622.270      196.039        0.119        0.051       36.306       11.486        0.100      331.912        0.231      856.500
02/02/2014  19:27:00       21.536       34.975       -8.179       19.053       15.887       11.861      363.004      252.393      140.676        0.125        0.038       41.074       11.144        0.074      331.909        0.228      856.506
02/02/2014  19:28:00       34.465       49.474       -6.209       10.712       13.254       11.091      114.737      175.674      123.021        0.204        0.021       60.296        7.965        0.017      331.922        0.250      856.521
02/02/2014  19:29:00       30.547       36.811       -1.698       25.455       21.045       20.747      647.978      442.902      430.451        0.191        0.076       47.835       16.640        0.121      331.941        0.279      856.531
02/02/2014  19:30:00       14.687       61.667       -8.034       12.572       11.490        9.559      158.044      132.013       91.382        0.223        0.019       63.391        7.055        0.012      331.921        0.246      856.540
02/02/2014  19:31:00       28.610       47.891        0.089       13.603       23.969       11.834      185.049      574.512      140.046        0.201        0.045       55.786       15.304        0.075      331.925        0.254      856.540
02/02/2014  19:32:00       18.275       72.690      -12.274       15.839       13.739       10.780      250.877      188.760      116.204        0.316        0.028       74.952        7.420        0.010      331.893        0.202      856.540
02/02/2014  19:33:00       30.381       30.408       -8.088       13.151       23.145       13.206      172.942      535.690      174.386        0.140        0.044       42.984       13.490        0.099      331.940        0.278      856.537
02/02/2014  19:34:00       37.474       27.579       -2.789       20.838       12.056        8.593      434.225      145.346       73.845        0.141        0.033       46.528        6.495        0.019      331.950        0.297      856.525
02/02/2014  19:35:00       53.171       45.027        0.602       14.621       16.207       14.665      213.766      262.658      215.057        0.277        0.035       69.675        8.182        0.014      331.931        0.264      856.520
02/02/2014  19:36:00       43.103       41.809       -0.160       12.989       20.130       13.437      168.725      405.225      180.558        0.218        0.038       60.049       10.539        0.031      331.929        0.259      856.515
02/02/2014  19:37:00       33.615       50.694       -4.548       13.471       12.733       11.738      181.461      162.140      137.770        0.210        0.024       60.826        4.451        0.005      331.927        0.258      856.510
02/02/2014  19:38:00       56.903       50.631        8.255       16.727       12.963       16.691      279.801      168.028      278.573        0.330        0.036       76.168       12.567        0.027      331.924        0.252      856.507
02/02/2014  19:39:00       55.094       55.308       -1.452       10.507       10.967       12.671      110.401      120.278      160.561        0.324        0.020       78.066        5.756        0.005      331.902        0.217      856.501
02/02/2014  19:40:00       52.553       36.324       11.764       19.182       15.442        9.909      367.942      238.440       98.195        0.246        0.035       63.885        8.446        0.017      331.943        0.284      856.500
02/02/2014  19:41:00       41.950       37.143       14.799       17.195       12.378       14.013      295.662      153.213      196.359        0.200        0.032       56.030        8.254        0.022      331.970        0.331      856.502
02/02/2014  19:42:00       44.883       31.582       13.370       35.441       18.545       17.912     1256.097      343.929      320.850        0.256        0.096       54.881       14.919        0.074      331.945        0.288      856.512
02/02/2014  19:43:00       62.094       27.567       -2.209       14.676       16.020       16.634      215.395      256.629      276.700        0.268        0.037       67.938        8.998        0.018      331.920        0.246      856.524
02/02/2014  19:44:00       40.146       22.755        0.462       15.017       14.348       14.753      225.498      205.852      217.642        0.139        0.032       46.146        8.928        0.037      331.925        0.255      856.527
02/02/2014  19:45:00       53.751       20.713        7.268       34.465       16.813       22.247     1187.812      282.665      494.926        0.267        0.098       57.603       17.783        0.095      331.930        0.264      856.509
02/02/2014  19:46:00       58.770       33.390       -3.964       13.999       13.929       16.317      195.971      194.013      266.238        0.262        0.033       67.593        9.932        0.022      331.866        0.155      856.492
02/02/2014  19:47:00       51.937       34.986        3.807       18.007       13.536       11.787      324.236      183.235      138.935        0.229        0.032       62.622        6.565        0.011      331.889        0.195      856.473
02/02/2014  19:48:00       47.102       46.610       -1.109       10.627       10.311       13.252      112.937      106.310      175.615        0.239        0.020       66.265        7.159        0.012      331.845        0.123      856.462
02/02/2014  19:49:00       34.109       38.071      -10.040       21.027       12.378       11.912      442.126      153.213      141.886        0.173        0.037       51.116        6.486        0.016      331.857        0.139      856.448
02/02/2014  19:50:00       43.433       39.326        9.081       14.851       10.612       12.280      220.549      112.611      150.788        0.200        0.024       58.592        6.161        0.011      331.836        0.108      856.441
02/02/2014  19:51:00       43.474       18.702       -3.520       12.160       13.635       11.902      147.858      185.916      141.646        0.136        0.024       47.326        9.078        0.037      331.804        0.053      856.437
02/02/2014  19:52:00       45.979       26.098        9.945       13.566        8.535       11.348      184.036       72.849      128.786        0.164        0.019       52.869        4.246        0.006      331.873        0.169      856.439
02/02/2014  19:53:00       50.823       39.164        1.349       10.031        8.424       12.939      100.624       70.972      167.429        0.223        0.017       64.163        3.920        0.004      331.794        0.037      856.439
02/02/2014  19:54:00       58.496       35.257       -4.874       11.823       13.545       10.116      139.793      183.464      102.338        0.256        0.021       68.300        4.642        0.005      331.812        0.066      856.435
02/02/2014  19:55:00       55.769       34.105       16.705       27.282       17.264       21.363      744.316      298.038      456.370        0.303        0.075       65.371       15.635        0.057      331.862        0.150      856.437
02/02/2014  19:56:00       59.204       38.737       18.411       24.618       19.966       21.132      606.023      398.659      446.582        0.340        0.073       70.751        8.904        0.016      331.866        0.157      856.451
02/02/2014  19:57:00       41.796       28.221       21.659       21.452       19.758       18.349      460.199      390.393      336.682        0.210        0.059       50.432        9.017        0.032      331.917        0.241      856.448
02/02/2014  19:58:00       42.340       35.477       13.993       15.557       12.234       15.875      242.028      149.676      252.002        0.195        0.032       55.239        8.883        0.026      331.856        0.139      856.441
02/02/2014  19:59:00       67.984       48.661        2.244       34.264       10.858       15.450     1174.044      117.904      238.698        0.426        0.077       83.604        7.303        0.008      331.824        0.087      856.432
02/02/2014  20:00:00       73.546       39.822       26.689       29.875       21.318       22.331      892.525      454.442      498.689        0.478        0.092       83.635       12.826        0.024      331.783        0.021      856.425
02/02/2014  20:01:00       42.738       67.129       44.886       36.336       22.805       27.491     1320.291      520.065      755.763        0.547        0.130       79.579       26.642        0.112      331.832        0.102      856.428
02/02/2014  20:02:00       35.868       52.215       47.499       30.485       24.114       18.203      929.312      581.500      331.338        0.406        0.092       63.348       13.569        0.046      331.933        0.267      856.433
02/02/2014  20:03:00       36.840       52.290       45.905       26.472       22.397       15.409      700.764      501.619      237.446        0.382        0.072       63.964        6.962        0.012      331.845        0.122      856.432
02/02/2014  20:04:00       61.801       50.192       32.304       28.898       20.590       20.662      835.096      423.953      426.909        0.453        0.084       79.615       13.045        0.027      331.843        0.120      856.431
02/02/2014  20:05:00       88.102       56.275       23.883       17.499       10.785       19.488      306.205      116.310      379.781        0.615        0.040      104.541        9.842        0.009      331.802        0.054      856.432
02/02/2014  20:06:00       78.242       41.674       11.928       11.005       18.551       10.289      121.103      344.154      105.872        0.429        0.029       88.649       10.509        0.014      331.742       -0.042      856.432
02/02/2014  20:07:00       62.095       42.412       17.155       13.289       10.094       15.560      176.605      101.895      242.109        0.323        0.026       75.197        9.767        0.017      331.771        0.003      856.439
02/02/2014  20:08:00       48.214       38.927       13.381       16.311       12.010       14.815      266.056      144.232      219.489        0.232        0.031       61.967        9.873        0.025      331.788        0.030      856.457
02/02/2014  20:09:00       26.055       37.191       19.253       16.328       15.788       15.011      266.619      249.276      225.343        0.159        0.037       45.409       12.542        0.076      331.815        0.073      856.466
02/02/2014  20:10:00       22.464       30.357        1.983       14.357       15.179        9.281      206.135      230.412       86.129        0.098        0.026       37.765        5.141        0.019      331.760       -0.017      856.468
02/02/2014  20:11:00       32.628        8.335        1.688       16.450       12.602       11.654      270.608      158.816      135.817        0.085        0.028       33.676        5.913        0.031      331.813        0.071      856.473
02/02/2014  20:12:00       28.754       33.508        1.036       20.551       15.951       11.168      422.343      254.443      124.725        0.138        0.040       44.154        7.462        0.029      331.793        0.037      856.477
02/02/2014  20:13:00       31.831       25.256       -0.348       14.298       14.357       12.271      204.445      206.126      150.582        0.111        0.028       40.634        7.674        0.036      331.796        0.041      856.478
02/02/2014  20:14:00       34.045       26.185        3.489       14.841       14.497       14.342      220.255      210.153      205.680        0.125        0.032       42.951       11.648        0.074      331.795        0.041      856.476
02/02/2014  20:15:00       38.730       41.449        0.407       17.762       15.548       10.340      315.473      241.743      106.916        0.194        0.033       56.728        7.832        0.019      331.788        0.029      856.476
02/02/2014  20:16:00       50.131       30.443       -0.195        9.449        8.705       11.821       89.286       75.776      139.726        0.187        0.015       58.650        6.169        0.011      331.776        0.007      856.471
02/02/2014  20:17:00       56.494       31.384       -6.845       10.211       12.532       10.004      104.271      157.047      100.073        0.229        0.018       64.626        6.850        0.011      331.770       -0.000      856.474
02/02/2014  20:18:00       47.370       27.771       -1.991       15.606        9.180       13.483      243.550       84.275      181.801        0.176        0.025       54.910       11.763        0.046      331.769       -0.000      856.482
02/02/2014  20:19:00       39.147       36.369        5.087       14.168       13.295       12.682      200.724      176.762      160.830        0.171        0.027       53.434       10.584        0.039      331.787        0.028      856.489
02/02/2014  20:20:00       40.009       34.203        5.328       21.180       15.315       13.476      448.574      234.546      181.612        0.183        0.043       52.636       10.872        0.043      331.793        0.038      856.497
02/02/2014  20:21:00       34.083       37.442        4.968       16.431       15.485       10.953      269.965      239.785      119.964        0.161        0.031       50.631        9.395        0.034      331.803        0.054      856.511
02/02/2014  20:22:00       35.147       46.836       -8.301       13.428       11.667        8.597      180.306      136.118       73.902        0.194        0.020       58.557        7.002        0.014      331.740       -0.048      856.519
02/02/2014  20:23:00       33.195       69.938       -6.676       14.571       15.142       11.302      212.326      229.270      127.739        0.330        0.028       77.416        8.117        0.011      331.748       -0.036      856.531
02/02/2014  20:24:00       33.740       53.935       -5.240       24.338       18.349       14.580      592.341      336.690      212.589        0.261        0.057       63.619        8.709        0.019      331.766       -0.006      856.540
02/02/2014  20:25:00       21.016       40.968        6.866       20.976       19.528       17.645      439.993      381.326      311.340        0.165        0.057       46.043       10.122        0.048      331.771       -0.001      856.545
02/02/2014  20:26:00       35.392       44.344       -5.883       23.239       18.845       15.082      540.061      355.142      227.476        0.219        0.056       56.736       12.281        0.047      331.758       -0.021      856.550
02/02/2014  20:27:00       23.161       46.633       -6.951       31.303       23.846       17.349      979.849      568.643      300.988        0.230        0.092       52.068       13.540        0.068      331.755       -0.027      856.546
02/02/2014  20:28:00       28.863       42.580       -4.458       28.428       26.245       18.708      808.136      688.781      349.988        0.226        0.092       51.441       17.481        0.115      331.788        0.028      856.552
02/02/2014  20:29:00       18.601       66.171       -8.899       15.093       19.879       13.105      227.797      395.175      171.735        0.280        0.040       68.736        9.649        0.020      331.776        0.009      856.550
02/02/2014  20:30:00       20.453       86.651      -14.863        8.597       13.464        7.788       73.908      181.292       60.654        0.423        0.016       89.032        3.713        0.002      331.720       -0.082      856.549
02/02/2014  20:31:00       15.529       67.384       -9.361       11.639       12.765       10.876      135.458      162.954      118.298        0.264        0.021       69.150        5.962        0.007      331.742       -0.045      856.548
02/02/2014  20:32:00       32.844       24.061        4.813       19.537       16.079       14.422      381.685      258.539      207.983        0.126        0.042       40.714       13.129        0.104      331.811        0.066      856.550
02/02/2014  20:33:00       35.222       24.634        2.810       23.730       14.271       17.271      563.130      203.670      298.273        0.146        0.053       42.982        6.426        0.022      331.782        0.020      856.558
02/02/2014  20:34:00       10.595       20.758       12.316       22.462       18.470       16.648      504.540      341.157      277.148        0.091        0.056       23.305       12.824        0.303      331.845        0.123      856.564
02/02/2014  20:35:00       33.625       30.686        4.592       21.722       18.773       17.131      471.844      352.412      293.473        0.161        0.056       45.522       10.196        0.050      331.757       -0.020      856.565
02/02/2014  20:36:00       38.341       40.149        0.251       15.436       22.424       16.422      238.264      502.850      269.688        0.205        0.051       55.516       12.611        0.052      331.734       -0.059      856.558
02/02/2014  20:37:00       23.349       49.573       -4.904       20.488       16.623       12.420      419.768      276.312      154.249        0.194        0.043       54.797        8.650        0.025      331.748       -0.037      856.556
02/02/2014  20:38:00       43.423       45.826       -8.723       12.639       13.659        9.846      159.741      186.578       96.945        0.225        0.022       63.132        4.467        0.005      331.755       -0.024      856.552
02/02/2014  20:39:00       31.997       39.112       -2.934       18.570       17.714       13.273      344.844      313.797      176.173        0.170        0.042       50.533        7.834        0.024      331.752       -0.028      856.556
02/02/2014  20:40:00       30.316       51.230        8.404       23.966       21.312       15.971      574.372      454.205      255.071        0.245        0.064       59.528       15.484        0.068      331.758       -0.020      856.557
02/02/2014  20:41:00       43.847       41.190        3.148       16.450       16.667       15.266      270.602      277.798      233.057        0.221        0.039       60.160        9.821        0.027      331.778        0.011      856.560
02/02/2014  20:42:00       34.569       42.166       -6.552       16.684       17.132        8.653      278.368      293.500       74.880        0.183        0.032       54.525        7.161        0.017      331.731       -0.064      856.559
02/02/2014  20:43:00       17.439       43.202       -0.008       20.732       18.613       15.679      429.798      346.460      245.827        0.160        0.051       46.589       10.710        0.053      331.750       -0.034      856.559
02/02/2014  20:44:00       11.962       14.228        8.715       17.348       13.254       13.905      300.964      175.660      193.350        0.055        0.033       18.589        9.182        0.244      331.800        0.049      856.553
02/02/2014  20:45:00       21.974       44.934        1.731       20.599       21.172       13.991      424.311      448.247      195.737        0.179        0.053       50.019       13.041        0.068      331.769       -0.001      856.552
02/02/2014  20:46:00       21.101       64.228       -9.839       13.381       20.689       12.263      179.061      428.025      150.384        0.271        0.038       67.605       12.094        0.032      331.762       -0.015      856.555
02/02/2014  20:47:00       15.429       35.349       -5.360       18.072       18.722       11.534      326.600      350.525      133.030        0.116        0.041       38.569       10.201        0.070      331.780        0.015      856.560
02/02/2014  20:48:00       13.364       29.556       -6.974       17.735       19.032       14.772      314.520      362.209      218.202        0.100        0.045       32.437       10.303        0.101      331.773        0.003      856.575
02/02/2014  20:49:00       27.009       26.888       -1.004       16.946       27.518       20.153      287.179      757.254      406.159        0.145        0.073       38.112       19.098        0.251      331.804        0.055      856.586
02/02/2014  20:50:00       25.755       54.447       -8.237       20.313       22.485       11.541      412.637      505.556      133.198        0.237        0.053       60.231       12.585        0.044      331.768       -0.004      856.593
02/02/2014  20:51:00       32.958       43.235       -6.668       26.760       19.932       17.373      716.090      397.300      301.823        0.221        0.071       54.364       12.194        0.050      331.791        0.034      856.596
02/02/2014  20:52:00       18.178       26.068       -0.268       22.225       14.085       15.020      493.943      198.374      225.603        0.096        0.046       31.780        9.382        0.087      331.805        0.055      856.598
02/02/2014  20:53:00       27.177       47.790        8.014       30.456       28.147       22.286      927.540      792.273      496.644        0.265        0.111       54.977       16.361        0.089      331.775        0.008      856.603
02/02/2014  20:54:00       39.457       41.960        8.946       24.615       18.919       20.762      605.922      357.934      431.068        0.240        0.070       57.598       16.102        0.078      331.759       -0.018      856.608
02/02/2014  20:55:00       40.467       48.131        6.558       26.862       31.011       25.192      721.575      961.685      634.659        0.316        0.116       62.882       20.958        0.111      331.747       -0.035      856.616
02/02/2014  20:56:00       34.316       52.916       -1.010       20.226       27.648       20.806      409.110      764.418      432.890        0.279        0.080       63.069       20.587        0.107      331.746       -0.037      856.621
02/02/2014  20:57:00       22.388       44.223        2.277       22.442       29.860       20.656      503.663      891.638      426.655        0.214        0.091       49.568       19.008        0.147      331.748       -0.037      856.626
02/02/2014  20:58:00       36.236       53.420       -0.663       29.749       26.288       19.685      884.987      691.054      387.493        0.306        0.098       64.550       16.659        0.067      331.730       -0.065      856.631
02/02/2014  20:59:00       35.050       53.564       -5.080       28.542       27.721       23.891      814.631      768.445      570.757        0.314        0.108       64.013       19.975        0.097      331.758       -0.016      856.634
02/02/2014  21:00:00       35.450       55.171       -4.178       22.145       39.961       26.058      490.411     1596.911      679.006        0.354        0.138       65.578       24.929        0.145      331.754       -0.025      856.632
02/02/2014  21:01:00       36.143       62.098       -6.953       29.567       30.556       24.313      874.212      933.660      591.107        0.380        0.120       71.850       19.213        0.072      331.745       -0.039      856.638
02/02/2014  21:02:00       23.847       59.270       -0.498       25.246       25.891       21.757      637.341      670.330      473.381        0.293        0.089       63.887       19.342        0.092      331.737       -0.051      856.635
02/02/2014  21:03:00       29.344       34.185        0.616       21.530       20.379       15.661      463.536      415.301      245.258        0.158        0.056       45.052        9.468        0.044      331.768       -0.006      856.636
02/02/2014  21:04:00       33.095       44.487       -1.394       21.409       25.010       16.678      458.350      625.477      278.149        0.222        0.068       55.447       14.534        0.069      331.773        0.007      856.631
02/02/2014  21:05:00       37.151       33.143        4.406       28.880       22.244       20.289      834.048      494.794      411.662        0.212        0.087       49.786       14.816        0.089      331.748       -0.036      856.632
02/02/2014  21:06:00       40.148       62.666        2.583       21.662       28.820       23.172      469.239      830.588      536.947        0.369        0.092       74.424       18.842        0.064      331.739       -0.049      856.627
02/02/2014  21:07:00       48.640       57.609       -0.932       26.749       28.239       22.927      715.529      797.463      525.644        0.386        0.102       75.396       20.081        0.071      331.736       -0.053      856.612
02/02/2014  21:08:00       43.268       69.149       -1.677       19.993       29.178       20.675      399.714      851.332      427.470        0.417        0.084       81.570       16.760        0.042      331.731       -0.061      856.592
02/02/2014  21:09:00       40.476       81.708      -10.404       16.888       25.667       16.775      285.195      658.796      281.409        0.482        0.061       91.184       14.402        0.025      331.728       -0.065      856.578
02/02/2014  21:10:00       33.933       85.402       -7.229       16.806       25.197       19.223      282.448      634.875      369.511        0.489        0.064       91.897       15.382        0.028      331.734       -0.056      856.552
02/02/2014  21:11:00       39.066       62.213       -6.149       17.755       24.676       16.449      315.249      608.886      270.580        0.331        0.060       73.461       10.512        0.020      331.726       -0.069      856.548
02/02/2014  21:12:00       35.760       26.881        1.968       15.480       21.012       15.836      239.630      441.488      250.789        0.147        0.047       44.737       11.699        0.068      331.767       -0.008      856.550
02/02/2014  21:13:00       47.178       21.998        2.525       19.297       18.872       13.859      372.393      356.170      192.069        0.182        0.046       52.055       10.478        0.041      331.789        0.029      856.557
02/02/2014  21:14:00       39.336       24.391       -5.515       18.052       16.269       14.367      325.865      264.687      206.400        0.148        0.040       46.285       10.284        0.049      331.777        0.010      856.562
02/02/2014  21:15:00       28.715       45.563       -1.067       13.876       24.239       15.795      192.556      587.517      249.470        0.197        0.051       53.857       16.101        0.089      331.753       -0.025      856.547
02/02/2014  21:16:00       29.591       51.675       -2.478       11.810       19.338       15.126      139.468      373.945      228.794        0.215        0.037       59.547       13.182        0.049      331.768       -0.002      856.537
02/02/2014  21:17:00       26.302       45.848       -7.401       11.961       12.592        8.992      143.063      158.568       80.850        0.162        0.019       52.856        3.599        0.005      331.753       -0.027      856.539
02/02/2014  21:18:00       33.501       55.317       -6.219       12.496       19.150       13.421      156.154      366.742      180.123        0.246        0.035       64.670       10.225        0.025      331.735       -0.055      856.547
02/02/2014  21:19:00       19.116       27.931        1.547       17.043       19.952       17.786      290.471      398.069      316.327        0.108        0.050       33.846       15.245        0.203      331.777        0.015      856.554
02/02/2014  21:20:00       27.416       36.765       -4.484       18.670       12.529       10.252      348.559      156.981      105.111        0.137        0.031       45.862        6.771        0.022      331.724       -0.072      856.551
02/02/2014  21:21:00       12.194       32.671        2.869       17.242       22.645       16.178      297.281      512.787      261.716        0.115        0.054       34.872       16.145        0.214      331.733       -0.059      856.550
02/02/2014  21:22:00       13.104       28.935       -5.516       13.824       15.507        8.984      191.111      240.457       80.714        0.078        0.026       31.764        4.179        0.017      331.733       -0.059      856.541
02/02/2014  21:23:00       17.186       35.069       -4.784       15.776       14.499       10.312      248.869      210.227      106.341        0.106        0.028       39.054        8.012        0.042      331.728       -0.067      856.529
02/02/2014  21:24:00       24.286       49.828       -8.225        8.308       15.007        6.740       69.031      225.205       45.423        0.174        0.017       55.432        6.519        0.014      331.719       -0.081      856.517
02/02/2014  21:25:00       25.014       25.967        1.182       10.069       12.320       12.046      101.392      151.782      145.109        0.085        0.020       36.056        8.068        0.050      331.757       -0.019      856.500
02/02/2014  21:26:00       32.846       32.245       -5.955       12.329        9.574        8.275      152.014       91.652       68.477        0.123        0.016       46.028        5.569        0.015      331.754       -0.024      856.483
02/02/2014  21:27:00       36.104       28.531        1.232       12.233       14.442        8.875      149.649      208.570       78.766        0.128        0.022       46.016        5.063        0.012      331.750       -0.030      856.472
02/02/2014  21:28:00       48.216       24.975        4.845       19.584       20.325       19.415      383.523      413.104      376.942        0.207        0.059       54.300        8.051        0.022      331.793        0.038      856.458
02/02/2014  21:29:00       53.066       27.374       -1.534       15.445       10.777       11.747      238.549      116.153      137.994        0.203        0.025       59.710        8.183        0.019      331.721       -0.082      856.446
02/02/2014  21:30:00       40.764       35.942       -0.621        9.312       13.123       11.631       86.712      172.212      135.272        0.167        0.020       54.346        9.486        0.030      331.718       -0.086      856.441
02/02/2014  21:31:00       23.837       34.851       -2.857        7.940       10.390        5.115       63.046      107.951       26.162        0.099        0.010       42.224        3.737        0.008      331.717       -0.086      856.445
02/02/2014  21:32:00       24.916       33.456       -3.905        9.727       13.490        8.266       94.620      181.971       68.321        0.105        0.017       41.715        7.791        0.035      331.744       -0.042      856.457
02/02/2014  21:33:00       25.744       16.679       -4.352       13.609       11.119       10.133      185.200      123.631      102.679        0.069        0.021       30.675        8.640        0.079      331.748       -0.033      856.466
02/02/2014  21:34:00        9.226       26.678       -5.017        9.774        9.725        9.537       95.533       94.575       90.948        0.055        0.014       28.228        7.115        0.064      331.734       -0.056      856.472
02/02/2014  21:35:00        5.911       31.174       -5.115        4.522        7.794        4.415       20.450       60.744       19.494        0.057        0.005       31.729        2.657        0.007      331.720       -0.082      856.484
02/02/2014  21:36:00        7.482       48.919       -6.367        7.930       17.083        7.768       62.887      291.812       60.336        0.145        0.021       49.488        9.088        0.034      331.718       -0.086      856.495
02/02/2014  21:37:00       -0.281       68.499       -6.216       11.983       19.270       10.328      143.582      371.320      106.674        0.268        0.031       68.500        8.826        0.017      331.747       -0.038      856.507
02/02/2014  21:38:00        3.222       68.559       -3.953        8.908       21.444        8.049       79.358      459.829       64.793        0.267        0.030       68.634       10.642        0.024      331.725       -0.072      856.520
02/02/2014  21:39:00        9.750       89.569       -7.735        6.439        8.620        6.213       41.464       74.313       38.597        0.417        0.008       90.098        4.662        0.003      331.713       -0.091      856.532
02/02/2014  21:40:00        7.967       98.244      -10.205        4.932       11.539        3.973       24.320      133.159       15.785        0.500        0.009       98.567        2.616        0.001      331.724       -0.074      856.533
02/02/2014  21:41:00        6.626       92.201      -16.559        6.460        8.100        4.572       41.726       65.613       20.900        0.447        0.006       92.439        3.213        0.001      331.722       -0.076      856.538
02/02/2014  21:42:00       18.959       68.732      -13.581       12.285       15.473        7.186      150.917      239.421       51.643        0.285        0.022       71.299        3.370        0.002      331.703       -0.109      856.522
02/02/2014  21:43:00       18.783       66.904       -6.622       11.490       19.930       16.674      132.029      397.212      278.029        0.284        0.040       69.491       13.944        0.040      331.699       -0.117      856.507
02/02/2014  21:44:00       22.369       75.544      -13.293       14.407       19.875       10.568      207.561      395.015      111.681        0.355        0.036       78.787       11.147        0.020      331.709       -0.099      856.504
02/02/2014  21:45:00       14.667       79.604      -15.817       10.293       25.659        7.722      105.940      658.410       59.633        0.381        0.041       80.944        8.962        0.012      331.705       -0.107      856.502
02/02/2014  21:46:00        5.041       60.428       -3.910       15.718       15.187       10.581      247.047      230.646      111.955        0.214        0.029       60.638        5.937        0.010      331.715       -0.090      856.517
02/02/2014  21:47:00       -5.076       85.344      -10.268        7.000       16.051        6.243       49.005      257.642       38.979        0.388        0.017       85.495        5.475        0.004      331.728       -0.069      856.541
02/02/2014  21:48:00       -6.620       84.934        1.113       17.270       24.781       18.898      298.244      614.092      357.127        0.426        0.063       85.192       15.997        0.035      331.773        0.006      856.549
02/02/2014  21:49:00      -38.690       36.856        5.626       17.946       29.702       19.734      322.060      882.238      389.412        0.224        0.080       53.434       18.866        0.125      331.880        0.180      856.557
02/02/2014  21:50:00      -64.047       25.689       -8.541       17.579       28.798       12.435      309.025      829.339      154.640        0.306        0.065       69.007       12.128        0.031      331.771        0.002      856.570
02/02/2014  21:51:00      -75.327        2.096      -12.737       12.335       31.750       10.255      152.161     1008.052      105.163        0.355        0.063       75.357        7.189        0.009      331.775        0.007      856.581
02/02/2014  21:52:00      -63.540      -10.420       -5.355       29.618       35.120       14.339      877.235     1233.382      205.610        0.324        0.116       64.388       12.226        0.036      331.757       -0.021      856.575
02/02/2014  21:53:00      -65.604      -19.836      -11.817       25.929       19.252       10.817      672.338      370.633      117.004        0.300        0.058       68.537        9.303        0.018      331.691       -0.129      856.576
02/02/2014  21:54:00      -31.124      -18.312       -6.266       19.297       13.693       13.246      372.362      187.507      175.462        0.104        0.037       36.111        6.251        0.030      331.741       -0.049      856.558
02/02/2014  21:55:00      -25.994      -18.563       -0.722       21.474       11.743        9.035      461.111      137.898       81.623        0.085        0.034       31.942       10.008        0.098      331.759       -0.017      856.536
02/02/2014  21:56:00      -37.650      -28.222       -9.531       15.975       14.185       10.897      255.213      201.208      118.749        0.144        0.029       47.054        7.651        0.026      331.785        0.023      856.514
02/02/2014  21:57:00       -3.226      -17.227        6.480       12.176       14.180       11.121      148.256      201.072      123.677        0.041        0.024       17.526        8.389        0.229      331.900        0.214      856.494
02/02/2014  21:58:00       11.849      -15.546        3.852       19.277       14.604       13.328      371.606      213.280      177.646        0.058        0.038       19.547       11.951        0.374      331.875        0.173      856.478
02/02/2014  21:59:00       18.352       -8.595       24.739       15.066       15.423       12.350      226.981      237.857      152.514        0.082        0.031       20.265        5.430        0.072      331.892        0.201      856.454
02/02/2014  22:00:00        8.465      -15.225       14.883       10.781       10.733       10.225      116.235      115.203      104.556        0.043        0.017       17.420        3.420        0.039      331.962        0.315      856.442
02/02/2014  22:01:00      -20.007      -20.672        1.309       18.604        9.077       14.557      346.094       82.400      211.919        0.073        0.032       28.768       12.325        0.184      331.791        0.035      856.431
02/02/2014  22:02:00       -6.237        8.240        7.821       13.435       17.689       10.322      180.498      312.909      106.550        0.038        0.030       10.335        6.553        0.402      331.821        0.083      856.423
02/02/2014  22:03:00       11.587       34.403      -11.665       12.260       10.493        7.340      150.305      110.100       53.876        0.088        0.016       36.302        5.823        0.026      331.677       -0.151      856.425
02/02/2014  22:04:00       14.299       42.155       -6.787       16.883       12.069        9.984      285.028      145.671       99.689        0.128        0.027       44.514        7.121        0.026      331.695       -0.124      856.428
02/02/2014  22:05:00       20.845       31.843       -5.842       13.896       11.896       12.989      193.112      141.524      168.717        0.099        0.025       38.059        8.850        0.054      331.685       -0.139      856.442
02/02/2014  22:06:00       16.021       47.431       -6.841        8.439        9.574        4.446       71.216       91.658       19.769        0.137        0.009       50.064        3.274        0.004      331.701       -0.111      856.457
02/02/2014  22:07:00        4.363       32.570       -8.257       16.431        9.159        8.447      269.964       83.886       71.345        0.079        0.021       32.861        4.999        0.023      331.711       -0.095      856.474
02/02/2014  22:08:00      -34.560       11.556       -3.588        9.605        8.538        8.140       92.261       72.900       66.267        0.079        0.012       36.441        4.635        0.016      331.745       -0.042      856.498
02/02/2014  22:09:00      -41.520       15.872       -3.293       18.037       18.679       12.745      325.350      348.911      162.428        0.141        0.042       44.450        5.453        0.015      331.735       -0.057      856.515
02/02/2014  22:10:00      -67.622       40.988       -6.474       14.743       21.338       12.159      217.342      455.329      147.830        0.356        0.041       79.074       11.078        0.020      331.692       -0.126      856.528
02/02/2014  22:11:00      -65.365       11.545       -4.353       18.834       17.784       12.114      354.702      316.284      146.752        0.262        0.041       66.377        8.574        0.017      331.752       -0.028      856.536
02/02/2014  22:12:00      -67.066       -1.423       -7.464       20.665       18.615       12.041      427.049      346.504      144.978        0.274        0.046       67.081       10.670        0.025      331.742       -0.043      856.535
02/02/2014  22:13:00      -43.559       -3.252       -2.969       20.664       14.775       11.437      426.991      218.302      130.807        0.135        0.039       43.680        9.507        0.047      331.719       -0.084      856.527
02/02/2014  22:14:00      -42.069       15.245       -4.576       12.623       22.382        9.872      159.346      500.939       97.457        0.139        0.038       44.746        4.210        0.009      331.801        0.051      856.529
02/02/2014  22:15:00      -37.775       -7.576       -3.915       15.184        9.967       12.137      230.551       99.345      147.306        0.099        0.024       38.527       10.147        0.069      331.783        0.022      856.521
02/02/2014  22:16:00      -33.108       -5.393       -7.604       12.504       17.976        9.915      156.348      323.149       98.317        0.088        0.029       33.545       10.318        0.095      331.751       -0.032      856.521
02/02/2014  22:17:00       10.799        9.105       -0.921       13.583       12.634       13.492      184.502      159.620      182.045        0.036        0.026       14.125        7.416        0.276      331.654       -0.190      856.518
02/02/2014  22:18:00      -12.389       -0.793       -2.412       17.839       11.422        8.332      318.224      130.466       69.417        0.034        0.026       12.414        6.040        0.237      331.592       -0.292      856.514
02/02/2014  22:19:00       -7.959        9.848       -0.024       10.137       11.137        6.886      102.765      124.041       47.412        0.022        0.014       12.662        2.947        0.054      331.637       -0.219      856.515
02/02/2014  22:20:00      -13.745       10.918       -3.931        7.647       11.130       10.721       58.478      123.884      114.946        0.031        0.015       17.553        5.163        0.087      331.698       -0.118      856.513
02/02/2014  22:21:00       -1.363        9.360        9.277        6.316        7.004        3.972       39.896       49.053       15.777        0.014        0.005        9.459        2.430        0.066      331.765       -0.009      856.514
02/02/2014  22:22:00      -13.580       -3.525        8.107       12.075       13.041        8.077      145.803      170.071       65.242        0.032        0.019       14.030        7.599        0.293      331.792        0.035      856.514
02/02/2014  22:23:00      -47.394       11.757       -5.158       11.400       10.206        7.988      129.950      104.156       63.809        0.135        0.015       48.831        5.188        0.011      331.764       -0.010      856.510
02/02/2014  22:24:00      -60.937       16.359        0.186        9.735        8.400        6.540       94.772       70.559       42.770        0.209        0.010       63.094        4.012        0.004      331.810        0.065      856.513
02/02/2014  22:25:00      -90.845        7.385       -3.864        8.268        7.890        6.367       68.361       62.252       40.536        0.425        0.009       91.145        4.792        0.003      331.788        0.030      856.515
02/02/2014  22:26:00      -96.563       -9.309      -13.353        7.066       11.468        8.907       49.922      131.523       79.327        0.493        0.013       97.011        6.434        0.004      331.768       -0.002      856.528
02/02/2014  22:27:00     -115.276      -13.233      -12.116       29.683       16.433       13.948      881.076      270.032      194.552        0.748        0.067      116.033       11.433        0.010      331.752       -0.029      856.545
02/02/2014  22:28:00     -105.563      -40.649      -10.502       36.776       25.856       19.239     1352.459      668.542      370.152        0.765        0.120      113.119       20.045        0.031      331.712       -0.095      856.552
02/02/2014  22:29:00     -144.120      -35.109      -24.347       21.681       20.108       15.624      470.076      404.329      244.124        1.186        0.056      148.335       10.554        0.005      331.705       -0.107      856.558
02/02/2014  22:30:00      -81.686      -47.937       -6.404       42.018       19.656       20.145     1765.519      386.363      405.804        0.578        0.128       94.713       16.437        0.030      331.804        0.055      856.559
02/02/2014  22:31:00     -117.060      -19.436       -9.632       20.060       30.737       15.199      402.418      944.777      231.003        0.788        0.079      118.663        6.358        0.003      331.769       -0.002      856.553
02/02/2014  22:32:00     -112.499      -31.427       -8.275       50.046       34.343       21.743     2504.572     1179.446      472.758        0.893        0.208      116.806       15.495        0.018      331.828        0.095      856.556
02/02/2014  22:33:00      -75.867      -53.571        0.383       70.788       44.056       24.402     5010.989     1940.947      595.440        0.809        0.377       92.874       27.842        0.090      331.831        0.099      856.558
02/02/2014  22:34:00      -38.297      -40.582        6.120       42.412       39.107       23.838     1798.755     1529.347      568.257        0.352        0.195       55.800       23.317        0.175      331.831        0.099      856.566
02/02/2014  22:35:00      -63.464      -25.043       -4.634       29.343       32.796       19.693      860.992     1075.593      387.812        0.350        0.116       68.226       16.311        0.057      331.821        0.084      856.567
02/02/2014  22:36:00      -74.039        6.054       -4.753       39.407       25.851       17.457     1552.873      668.276      304.750        0.403        0.126       74.287       15.394        0.043      331.759       -0.016      856.566
02/02/2014  22:37:00      -97.479      -18.485       -9.118       39.658       25.166       15.127     1572.760      633.323      228.815        0.618        0.122       99.216       17.775        0.032      331.716       -0.087      856.553
02/02/2014  22:38:00      -55.322       -0.914       -2.537       34.464       21.184       14.473     1187.789      448.749      209.471        0.246        0.092       55.330       15.197        0.075      331.735       -0.057      856.541
02/02/2014  22:39:00     -107.860        4.410      -14.140       18.778       24.441       10.493      352.602      597.369      110.096        0.646        0.053      107.950        6.281        0.003      331.702       -0.113      856.530
02/02/2014  22:40:00      -77.869      -29.048       -6.032       15.401       19.992       16.172      237.187      399.663      261.530        0.392        0.045       83.111        9.720        0.014      331.731       -0.065      856.521
02/02/2014  22:41:00      -65.789       -1.578      -10.867       21.305       21.458        9.311      453.906      460.452       86.699        0.272        0.050       65.808       10.667        0.026      331.726       -0.069      856.522
02/02/2014  22:42:00      -95.661       22.405       -9.971       14.435       35.226       15.343      208.373     1240.897      235.409        0.572        0.084       98.250        7.927        0.007      331.750       -0.031      856.523
02/02/2014  22:43:00      -85.227      -49.823      -14.142       28.283       20.349       15.350      799.905      414.071      235.614        0.570        0.072       98.722       11.309        0.013      331.826        0.093      856.525
02/02/2014  22:44:00      -69.022      -15.920       -0.512       43.353       18.406       16.313     1879.496      338.790      266.101        0.375        0.124       70.834       21.382        0.091      331.826        0.093      856.525
02/02/2014  22:45:00      -99.071      -27.434       -6.660       26.258       20.201       11.542      689.484      408.062      133.208        0.592        0.062      102.799        7.759        0.006      331.767       -0.005      856.523
02/02/2014  22:46:00      -97.963      -42.402       -2.392       32.889       26.574       17.692     1081.706      706.192      312.994        0.675        0.105      106.746       12.932        0.015      331.769       -0.001      856.526
02/02/2014  22:47:00      -97.997      -40.046       -1.582       39.986       36.780       23.373     1598.891     1352.799      546.303        0.735        0.175      105.863       23.718        0.050      331.719       -0.084      856.529
02/02/2014  22:48:00     -134.218      -19.263       -8.892       33.832       31.813       18.893     1144.593     1012.069      356.950        1.049        0.126      135.593       15.873        0.014      331.676       -0.156      856.539
02/02/2014  22:49:00     -130.935       15.461      -12.531       15.283       16.371       11.643      233.580      268.013      135.568        0.909        0.032      131.845        7.826        0.004      331.602       -0.277      856.542
02/02/2014  22:50:00      -92.838        4.668       -6.744       22.626       18.971       14.017      511.916      359.884      196.479        0.488        0.053       92.956       11.706        0.016      331.613       -0.259      856.537
02/02/2014  22:51:00      -84.810      -19.034       -4.779       32.490       28.048       18.524     1055.628      786.710      343.123        0.488        0.109       86.920       18.856        0.047      331.642       -0.211      856.523
02/02/2014  22:52:00     -124.824       15.273      -12.038       26.278       17.327       13.051      690.529      300.212      170.340        0.856        0.058      125.755        9.457        0.006      331.645       -0.204      856.515
02/02/2014  22:53:00     -114.659       29.585      -13.171       22.947       16.034       15.365      526.568      257.095      236.087        0.761        0.051      118.414       11.893        0.010      331.574       -0.321      856.506
02/02/2014  22:54:00      -97.223       16.553      -10.353       31.304       20.304       15.299      979.920      412.267      234.050        0.573        0.081       98.622       10.628        0.012      331.592       -0.292      856.503
02/02/2014  22:55:00     -107.139        8.541       -8.653       20.947       23.419       12.761      438.776      548.444      162.842        0.639        0.058      107.479        9.155        0.007      331.583       -0.307      856.511
02/02/2014  22:56:00      -92.409      -15.922      -11.531       16.537       17.771       10.690      273.464      315.800      114.273        0.481        0.035       93.770        9.126        0.009      331.639       -0.217      856.517
02/02/2014  22:57:00     -105.661      -22.948      -12.999       18.063       21.659       12.980      326.274      469.122      168.482        0.641        0.048      108.124        8.212        0.006      331.693       -0.127      856.528
02/02/2014  22:58:00     -109.882      -24.054       -7.033       30.468       30.964       16.700      928.291      958.741      278.895        0.743        0.108      112.484       18.358        0.027      331.681       -0.145      856.536
02/02/2014  22:59:00      -80.226      -26.864       -4.888       22.428       23.728       17.092      502.995      563.039      292.141        0.427        0.068       84.604       11.851        0.020      331.735       -0.058      856.548
02/02/2014  23:00:00      -69.932      -21.140       -0.676       26.124       32.113       17.108      682.446     1031.244      292.698        0.367        0.100       73.058       12.633        0.030      331.760       -0.016      856.560
02/02/2014  23:01:00     -107.038       -2.027      -12.497       18.792       21.283       17.052      353.148      452.975      290.774        0.636        0.055      107.057       10.095        0.009      331.702       -0.110      856.570
02/02/2014  23:02:00     -112.984      -14.323      -12.193       33.133       18.392       11.588     1097.786      338.255      134.274        0.734        0.079      113.889       13.761        0.015      331.724       -0.075      856.581
02/02/2014  23:03:00     -129.515      -41.823      -13.183       32.381       22.265       16.413     1048.525      495.718      269.392        1.026        0.091      136.100       13.577        0.010      331.657       -0.187      856.600
02/02/2014  23:04:00     -122.786      -30.646      -10.682       24.144       28.142       14.180      582.927      791.989      201.067        0.885        0.079      126.553       12.870        0.010      331.663       -0.178      856.615
02/02/2014  23:05:00      -83.774      -14.518       -6.814       27.672       21.857       15.650      765.740      477.743      244.934        0.438        0.074       85.023       14.360        0.029      331.671       -0.165      856.625
02/02/2014  23:06:00      -71.703      -10.813      -12.460       27.757       35.678       10.192      770.469     1272.945      103.886        0.378        0.107       72.514       10.844        0.022      331.598       -0.283      856.632
02/02/2014  23:07:00      -58.726      -20.148       -5.663       35.755       24.122       13.374     1278.438      581.873      178.864        0.296        0.102       62.087       11.538        0.035      331.677       -0.151      856.634
02/02/2014  23:08:00      -87.126      -22.941       -2.229       31.335       35.206       19.560      981.872     1239.459      382.578        0.536        0.130       90.096       17.322        0.037      331.604       -0.274      856.637
02/02/2014  23:09:00     -155.894       23.532      -14.896       21.757       22.984       12.945      473.361      528.245      167.585        1.312        0.058      157.660        9.030        0.003      331.554       -0.354      856.639
02/02/2014  23:10:00     -122.935       10.513      -11.498       21.462       21.033       11.321      460.629      442.369      128.172        0.819        0.052      123.383        9.769        0.006      331.593       -0.291      856.649
02/02/2014  23:11:00     -120.199       15.135       -6.474       17.309       13.985       10.176      299.615      195.583      103.560        0.766        0.030      121.148        8.224        0.005      331.595       -0.289      856.657
02/02/2014  23:12:00     -106.405       11.611      -15.062       22.809       29.207       14.948      520.235      853.036      223.449        0.664        0.080      107.036        7.841        0.005      331.565       -0.336      856.663
02/02/2014  23:13:00      -98.753      -42.788      -17.695       29.234       25.637       18.092      854.637      657.236      327.318        0.687        0.092      107.624       11.727        0.012      331.610       -0.262      856.676
02/02/2014  23:14:00      -66.913      -52.801       -4.668       33.162       31.443       20.682     1099.728      988.639      427.748        0.490        0.126       85.237       17.844        0.044      331.617       -0.252      856.689
02/02/2014  23:15:00      -83.465      -50.708       -9.021       36.552       31.689       16.005     1336.076     1004.200      256.152        0.611        0.130       97.661       17.569        0.032      331.584       -0.307      856.706
02/02/2014  23:16:00      -85.941      -32.044      -11.302       40.382       31.562       16.968     1630.712      996.151      287.908        0.573        0.146       91.721       19.080        0.043      331.553       -0.358      856.716
02/02/2014  23:17:00      -98.623      -39.416       -6.923       20.414       25.549       17.236      416.738      652.761      297.091        0.635        0.068      106.208       10.841        0.010      331.496       -0.450      856.734
02/02/2014  23:18:00     -112.419      -24.519       -7.384       24.211       24.714       17.141      586.182      610.797      293.804        0.739        0.075      115.062        9.412        0.007      331.442       -0.541      856.738
02/02/2014  23:19:00     -101.921      -21.506      -12.585       34.083       22.314       16.782     1161.647      497.905      281.623        0.647        0.097      104.165       16.848        0.026      331.478       -0.484      856.745
02/02/2014  23:20:00     -125.739      -42.274       -9.107       32.106       22.173       15.340     1030.787      491.645      235.302        0.972        0.088      132.655       12.716        0.009      331.474       -0.487      856.747
02/02/2014  23:21:00      -94.962      -49.487       -3.032       27.906       22.312       15.350      778.745      497.836      235.620        0.649        0.076      107.083       12.798        0.014      331.395       -0.616      856.753
02/02/2014  23:22:00      -84.547       -6.718       -9.124       23.280       23.243       13.062      541.950      540.222      170.624        0.426        0.063       84.814        7.927        0.009      331.396       -0.615      856.757
02/02/2014  23:23:00     -107.989       16.283      -13.097       22.942       19.859       15.737      526.322      394.381      247.659        0.663        0.058      109.209       11.022        0.010      331.303       -0.768      856.764
02/02/2014  23:24:00      -95.820       16.811       -9.783       16.170       18.305       13.207      261.479      335.078      174.433        0.517        0.039       97.283        5.836        0.004      331.304       -0.768      856.768
02/02/2014  23:25:00     -107.179       25.066       -8.411       11.419       15.037       10.421      130.386      226.121      108.607        0.633        0.023      110.071        7.481        0.005      331.322       -0.736      856.762
02/02/2014  23:26:00      -86.073       33.678      -18.827       14.855       30.063       13.695      220.672      903.812      187.564        0.510        0.066       92.427       14.434        0.024      331.273       -0.820      856.759
02/02/2014  23:27:00      -87.381       -3.428      -13.269       21.721       19.405       14.413      471.780      376.544      207.729        0.444        0.053       87.448        9.846        0.013      331.291       -0.787      856.764
02/02/2014  23:28:00      -48.663        6.188       -1.758       19.486       24.581       11.783      379.711      604.233      138.842        0.177        0.056       49.054       10.463        0.045      331.286       -0.794      856.761
02/02/2014  23:29:00      -73.231        6.186      -12.040       27.724       25.517       20.350      768.630      651.111      414.118        0.369        0.092       73.492       14.775        0.040      331.346       -0.698      856.761
02/02/2014  23:30:00      -65.035      -15.016       -8.821       13.238       17.474        9.650      175.248      305.346       93.121        0.255        0.029       66.746        7.522        0.013      331.300       -0.773      856.760
02/02/2014  23:31:00      -63.131      -14.911      -11.199       24.849       19.845       17.244      617.487      393.841      297.346        0.282        0.065       64.868       10.399        0.026      331.336       -0.714      856.753
02/02/2014  23:32:00      -79.647      -40.749      -18.972       24.375       21.855       15.910      594.162      477.628      253.129        0.484        0.066       89.466        6.461        0.005      331.377       -0.646      856.742
02/02/2014  23:33:00     -122.297      -44.718      -15.956       16.757       25.980       14.437      280.812      674.986      208.439        0.919        0.058      130.216        7.202        0.003      331.300       -0.772      856.733
02/02/2014  23:34:00     -104.540      -40.843      -17.854       20.595       28.231       15.604      424.138      796.978      243.479        0.719        0.073      112.235       13.927        0.015      331.287       -0.793      856.728
02/02/2014  23:35:00      -70.547      -33.156       -5.999       19.027       20.993       15.113      362.035      440.722      228.397        0.357        0.052       77.949        7.968        0.010      331.358       -0.678      856.732
02/02/2014  23:36:00      -34.026      -15.403       10.612       39.781       22.692       21.754     1582.525      514.938      473.256        0.204        0.129       37.350       20.252        0.294      331.458       -0.515      856.732
02/02/2014  23:37:00      -92.192      -10.147      -18.161       20.814       25.150       19.569      433.229      632.541      382.964        0.519        0.072       92.748        7.064        0.006      331.380       -0.639      856.727
02/02/2014  23:38:00      -66.575       14.015       -5.231       23.630       35.527       21.941      558.365     1262.197      481.404        0.348        0.115       68.035       15.735        0.053      331.395       -0.618      856.721
02/02/2014  23:39:00      -87.699        6.777      -11.979       30.853       22.666       18.945      951.893      513.754      358.915        0.485        0.091       87.961       13.178        0.022      331.377       -0.646      856.724
02/02/2014  23:40:00      -92.697       37.728      -16.142       23.512       24.483       16.294      552.824      599.436      265.489        0.585        0.071      100.080        9.668        0.009      331.404       -0.604      856.719
02/02/2014  23:41:00      -70.704        7.652       -6.850       17.829       22.549       14.258      317.880      508.453      203.298        0.307        0.051       71.117        9.693        0.019      331.413       -0.588      856.721
02/02/2014  23:42:00      -82.461       17.615       -0.467       26.292       17.763       16.083      691.253      315.530      258.666        0.419        0.063       84.322       13.590        0.026      331.380       -0.642      856.724
02/02/2014  23:43:00     -111.313       -7.999       -4.192       34.381       32.584       25.721     1182.036     1061.747      661.577        0.769        0.145      111.600       19.531        0.031      331.353       -0.685      856.716
02/02/2014  23:44:00     -133.927      -47.803      -15.536       35.205       35.339       18.652     1239.364     1248.823      347.901        1.165        0.142      142.202       14.514        0.010      331.306       -0.765      856.707
02/02/2014  23:45:00      -88.179        1.019      -10.150       42.882       47.247       20.543     1838.865     2232.317      422.004        0.619        0.225       88.185       22.518        0.065      331.348       -0.695      856.696
02/02/2014  23:46:00      -34.996        7.783        2.580       25.610       29.006       15.390      655.877      841.319      236.841        0.151        0.087       35.851       12.637        0.124      331.365       -0.667      856.686
02/02/2014  23:47:00      -61.641       28.000      -14.114       28.842       36.690       19.454      831.889     1346.145      378.446        0.367        0.128       67.702       21.596        0.102      331.332       -0.721      856.680
02/02/2014  23:48:00      -72.089       45.361       -9.486       30.088       19.329       16.188      905.271      373.596      262.037        0.444        0.077       85.173       11.533        0.018      331.364       -0.667      856.670
02/02/2014  23:49:00      -46.345       99.122      -12.351       46.197       56.614       27.075     2134.168     3205.152      733.079        0.910        0.304      109.421       26.024        0.057      331.469       -0.495      856.664
02/02/2014  23:50:00      -41.712      144.663      -10.669       35.078       45.198       24.773     1230.478     2042.881      613.722        1.333        0.194      150.557       18.858        0.016      331.532       -0.392      856.647
02/02/2014  23:51:00      -34.163      137.527      -15.585       30.523       51.376       27.279      931.681     2639.527      744.143        1.232        0.216      141.707       28.475        0.040      331.513       -0.422      856.628
02/02/2014  23:52:00       -1.622      126.501      -13.883       25.044       51.656       22.104      627.193     2668.320      488.568        0.999        0.189      126.511       24.818        0.038      331.438       -0.546      856.607
02/02/2014  23:53:00      -32.206       88.570       -4.318       39.128       49.858       23.894     1531.009     2485.850      570.930        0.674        0.229       94.244       26.842        0.081      331.494       -0.455      856.589
02/02/2014  23:54:00       -2.884       88.871       -9.561       23.437       62.686       17.674      549.279     3929.542      312.381        0.639        0.240       88.918       21.325        0.058      331.544       -0.374      856.580
02/02/2014  23:55:00       29.533       92.586      -12.405       31.626       44.960       24.485     1000.224     2021.446      599.514        0.661        0.181       97.182       19.247        0.039      331.451       -0.526      856.588
02/02/2014  23:56:00       20.763       49.425       -1.734       19.231       19.812       14.703      369.813      392.501      216.187        0.193        0.049       53.608       11.909        0.049      331.449       -0.530      856.591
02/02/2014  23:57:00       48.119       51.205       28.739       18.197       22.880       17.754      331.120      523.482      315.208        0.347        0.058       70.266       11.840        0.028      331.497       -0.450      856.594
02/02/2014  23:58:00       72.248       58.902       16.117       19.425       15.058       21.622      377.349      226.734      467.517        0.501        0.054       93.216       11.307        0.015      331.391       -0.624      856.592
02/02/2014  23:59:00       57.043       50.593       -4.290       36.565       19.032       18.936     1336.988      362.222      358.560        0.394        0.103       76.246       11.199        0.022      331.385       -0.631      856.585
